     2              Observation         GPS                 RINEX VERSION / TYPE
ASHTORIN USGS 24 - NOV - 92 13:46                           PGM / RUN BY / DATE
                                                            COMMENT
Original Marker Name: 3162 3162S                            COMMENT
Campaign Name: USGS-Landers Profile                         COMMENT
4-Character Station Name: 3162                              COMMENT
6-Character Antenna Code: ASHP12                            COMMENT
Vertical Measurement Point: EGP                             COMMENT
Vertical Offset to Rinex Ref. Point: 0.0593                 COMMENT
Radial Measurement Point: EGP                               COMMENT
Radial Offset to Rinex Ref. Point: 0.1425                   COMMENT
Antenna Height from Field Measurement: 1.3900 m             COMMENT
Additional Antenna Identification Info.:                    COMMENT
Ashtech L1/L2 Revision B                                    COMMENT
Revised Rinex header created by UCSD GPS archive for        COMMENT
SCEC DC on 22-Sep-1999 (1999.265) 00:32:22 GMT              COMMENT
For assistance contact dagnew@ucsd.edu or hjohnson@ucsd.edu COMMENT
                                                            COMMENT
3162 3162S                                                  MARKER NAME
                                                            MARKER NUMBER
CHS US GEOLOGICAL SURVEY                                    OBSERVER / AGENCY
104 ASHTECH L-XII 6M24                                      REC # / TYPE / VERS
068 ASHTECH GEODETIC P                                      ANT # / TYPE
 -2327552.6300 -4703412.6800  3614064.0000                  APPROX POSITION XYZ
        1.3234        0.0000        0.0000                  ANTENNA: DELTA H/E/N
     1     2     0                                          WAVELENGTH FACT L1/2
     4    L1    L2    C1    D1                              # / TYPES OF OBSERV
    30                                                      INTERVAL
  1992    11    17    14    43   30.000000                  TIME OF FIRST OBS
  1992    11    17    22     4   30.000000                  TIME OF LAST OBS
    13                                                      # OF SATELLITES
           3   579   579   579   579                        PRN / # OF OBS
          11   371   371   371   371                        PRN / # OF OBS
          12   261   261   261   261                        PRN / # OF OBS
          15   137   137   137   137                        PRN / # OF OBS
          16   272   272   272   272                        PRN / # OF OBS
          17   745   745   745   745                        PRN / # OF OBS
          20   272   272   272   272                        PRN / # OF OBS
          21   637   637   637   637                        PRN / # OF OBS
          23   774   774   774   774                        PRN / # OF OBS
          24    65    65    65    65                        PRN / # OF OBS
          25   196   196   196   196                        PRN / # OF OBS
          26   476   476   476   476                        PRN / # OF OBS
                                                            END OF HEADER
 92 11 17 14 43 30.0000000  0  3  3 16 17                            0.000699010
    -73621.25017   -133672.84211  30664730.018       -2111.686
   -704597.99018     22561.78711  29230814.866         349.286
    -80866.89416   -189767.05912  31117633.637       -2612.761
 92 11 17 14 44  0.0000000  0  4  3 24 16 17                         0.000440680
      -503.32517   -183242.20613  21059264.914       -2124.889
  -1643906.07916    146758.11111  22349887.906        2578.807
       135.02018     30800.51113  19639467.292         354.794
      -309.20516   -250983.95411  21509325.027       -2619.050
 92 11 17 14 44 30.0000000  0  5  3 20 24 16 17                      0.000438390
    -64408.390 7   -233038.402 5  22546066.491       -2136.058
  -2519716.12318     50849.15811  20747765.860         703.989
  -1566736.107 6    206888.861 1  23863535.098        2567.016
     10881.332 8     39174.139 5  21140474.385         362.054
    -78936.073 6   -312251.601 3  22993324.495       -2623.254
 92 11 17 14 45  0.0000000  0  5  3 20 24 16 17                      0.000435860
   -128642.437 7   -283090.987 5  22533843.255       -2146.331
  -2498467.980 8     67402.295 1  20751809.214         712.634
  -1489898.840 6    266761.901 3  23878156.893        2555.372
     21866.691 8     47734.134 6  21142564.855         370.191
   -157687.973 6   -373616.747 5  22978338.545       -2626.833
 92 11 17 14 45 30.0000000  0  5  3 20 24 16 17                      0.000433120
   -193160.264 7   -333364.631 5  22521565.804       -2154.871
  -2476936.450 8     84183.186 5  20755906.275         723.039
  -1413393.617 6    326376.191 5  23892716.016        2545.178
     33104.514 8     56490.849 7  21144703.236         379.202
   -236517.685 6   -435042.529 5  22963337.485       -2628.246
 92 11 17 14 46  0.0000000  0  5  3 20 24 16 17                      0.000430220
   -257909.057 7   -383818.270 5  22509244.067       -2161.768
  -2455069.604 8    101222.241 6  20760067.473         734.993
  -1337171.393 6    385770.011 5  23907220.216        2536.685
     44631.545 8     65472.918 7  21146896.638         389.550
   -315371.314 6   -496486.998 5  22948332.416       -2628.481
 92 11 17 14 46 30.0000000  0  5  3 20 24 16 17                      0.000427160
   -322849.520 7   -434421.232 5  22496886.591       -2167.504
  -2432829.379 8    118552.239 7  20764299.763         747.985
  -1261180.381 6    444983.624 5  23921679.906        2529.608
     56487.927 8     74711.620 8  21149152.746         401.252
   -394219.343 6   -557927.054 5  22933327.405       -2627.816
 92 11 17 14 47  0.0000000  0  5  3 20 24 16 17                      0.000423990
   -387934.361 7   -485136.754 5  22484501.562       -2171.423
  -2410170.445 8    136208.503 7  20768611.799         762.843
  -1185375.764 6    504052.069 5  23936105.808        2524.336
     68735.830 8     84255.407 8  21151483.691         415.497
   -473021.686 6   -619331.531 5  22918332.348       -2625.349
 92 11 17 14 47 30.0000000  0  5  3 20 24 16 17                      0.000420730
   -453108.634 7   -535921.972 5  22472099.181       -2173.583
  -2387039.268 8    154232.747 8  20773013.322         779.409
  -1109704.046 6    563016.890 5  23950505.784        2520.736
     81446.792 8     94160.021 8  21153902.649         432.246
   -551718.627 6   -680653.863 5  22903357.174       -2620.971
 92 11 17 14 48  0.0000000  0  5  3 20 24 16 17                      0.000417390
   -518332.743 7   -586745.993 5  22459687.590       -2174.776
  -2363397.487 8    172654.877 8  20777512.557         796.821
  -1034121.872 6    621911.974 5  23964888.893        2518.289
     94681.515 8    104472.752 8  21156421.314         450.255
   -630274.757 6   -741866.490 5  22888408.548       -2616.022
 92 11 17 14 48 30.0000000  0  5  3 20 24 16 17                      0.000414010
   -583579.274 7   -637587.504 5  22447271.458       -2175.005
  -2339219.097 8    191495.118 8  20782113.604         815.177
   -958594.463 6    680764.319 5  23979261.474        2516.857
    108474.132 8    115220.212 8  21159046.046         469.344
   -708663.699 6   -802948.849 5  22873491.371       -2609.736
 92 11 17 14 49  0.0000000  0  5  3 20 24 16 17                      0.000410590
   -648837.516 7   -688438.107 5  22434852.856       -2175.351
  -2314494.984 8    210760.602 9  20786818.256         833.436
   -883120.340 6    739575.254 5  23993623.903        2515.204
    122829.498 8    126406.169 8  21161777.569         487.839
   -786854.368 6   -863876.699 5  22858611.871       -2602.636
 92 11 17 14 49 30.0000000  0  5  3 20 24 16 17                      0.000407170
   -714072.225 7   -739270.412 5  22422439.158       -2173.840
  -2289191.890 8    230477.257 9  20791632.892         853.460
   -807660.591 6    798374.880 5  24007983.048        2515.542
    137764.094 8    138043.484 8  21164619.478         507.676
   -864803.145 6   -924616.045 5  22843778.414       -2593.966
 92 11 17 14 50  0.0000000  0  5  3 20 24 16 17                      0.000403780
   -779266.389 7   -790071.108 5  22410033.107       -2172.561
  -2263294.304 8    250657.146 9  20796560.632         873.156
   -732187.015 6    857185.363 5  24022345.734        2516.200
    153277.678 8    150131.950 8  21167571.646         526.610
   -942498.914 6   -985158.282 5  22828993.227       -2585.612
 92 11 17 14 50 30.0000000  0  5  3 20 24 16 17                      0.000400430
   -844413.736 7   -840835.310 5  22397635.731       -2170.846
  -2236797.250 8    271304.150 9  20801602.832         893.276
   -656687.765 6    916015.786 5  24036712.631        2516.840
    169367.327 8    162669.306 8  21170633.115         545.855
  -1019925.952 6  -1045491.093 5  22814258.119       -2576.321
 92 11 17 14 51  0.0000000  0  5  3 20 24 16 17                      0.000397110
   -909506.530 7   -891557.026 5  22385248.876       -2168.894
  -2209695.124 8    292422.637 9  20806760.040         913.549
   -581172.951 6    974858.380 5  24051082.719        2517.501
    186036.785 8    175658.447 8  21173805.110         565.523
  -1097077.193 6  -1105608.999 5  22799577.640       -2567.292
 92 11 17 14 51 30.0000000  0  5  3 20 24 16 17                      0.000393810
   -974533.583 7   -942227.482 5  22372874.591       -2166.429
  -2181978.375 8    314020.048 9  20812034.307         934.252
   -505638.313 6   1033716.388 5  24065456.260        2518.183
    203308.942 8    189117.223 8  21177091.923         585.921
  -1173962.270 6  -1165519.488 5  22784947.351       -2558.368
 92 11 17 14 52  0.0000000  0  5  3 20 24 16 17                      0.000390540
  -1039486.846 7   -992840.439 5  22360514.438       -2163.823
  -2153640.814 8    336101.231 9  20817426.825         955.074
   -430084.309 6   1092589.528 5  24079834.209        2518.725
    221187.336 8    203048.405 8  21180494.020         606.171
  -1250573.716 6  -1225216.766 5  22770368.965       -2548.865
 92 11 17 14 52 30.0000000  0  5  3 20 24 16 17                      0.000387270
  -1104356.949 7  -1043388.629 5  22348170.024       -2161.112
  -2124675.035 8    358671.907 9  20822938.990         975.911
   -354523.475 6   1151467.928 5  24094213.203        2518.620
    239678.039 8    217456.696 8  21184012.693         626.499
  -1326901.059 6  -1284692.674 5  22755844.224       -2539.734
 92 11 17 14 53  0.0000000  0  5  3 20 24 16 17                      0.000384010
  -1169137.415 7  -1093866.950 5  22335842.935       -2157.734
  -2095075.816 8    381736.180 9  20828571.790         997.378
   -278943.526 6   1210361.262 5  24108595.986        2520.212
    258795.121 8    232353.084 8  21187650.514         647.946
  -1402946.774 6  -1343949.137 5  22741373.741       -2529.936
 92 11 17 14 53 30.0000000  0  5  3 20 24 16 17                      0.000380780
  -1233827.264 7  -1144274.666 5  22323533.111       -2155.380
  -2064844.327 8    405293.131 9  20834324.988        1017.759
   -203319.988 6   1269288.557 5  24122987.097        2521.146
    278534.056 8    247734.026 8  21191406.714         667.714
  -1478705.127 6  -1402981.668 5  22726957.338       -2520.824
 92 11 17 14 54  0.0000000  0  5  3 20 24 16 17                      0.000377590
  -1298436.775 7  -1194619.762 5  22311238.372       -2151.472
  -2033992.846 8    429333.215 9  20840195.761        1039.662
   -127651.368 6   1328250.981 5  24137385.929        2524.144
    298880.331 8    263588.251 8  21195278.686         689.465
  -1554181.089 6  -1461794.133 5  22712594.543       -2510.279
 92 11 17 14 54 30.0000000  0  5  3 20 24 16 17                      0.000374470
  -1362922.054 7  -1244868.073 5  22298967.244       -2147.694
  -2002479.521 8    453888.995 9  20846192.609        1061.327
    -51879.918 6   1387293.499 5  24151805.157        2527.566
    319891.490 8    279960.530 8  21199277.078         711.350
  -1629341.367 6  -1520360.610 5  22698292.188       -2500.216
 92 11 17 14 55  0.0000000  0  5  3 20 24 16 17                      0.000371440
  -1427293.542 7  -1295027.726 5  22286717.585       -2143.786
  -1970316.901 8    478950.717 9  20852313.234        1082.990
     24004.704 6   1446424.266 5  24166245.403        2531.405
    341558.512 8    296843.882 8  21203400.382         733.087
  -1704186.093 6  -1578681.231 5  22684049.527       -2489.351
 92 11 17 14 55 30.0000000  0  5  3 20 24 16 17                      0.000368470
  -1491548.910 7  -1345096.908 5  22274490.270       -2140.031
  -1937504.382 8    504518.859 9  20858557.282        1104.508
     99986.409 6   1505630.643 5  24180704.298        2533.880
    363867.990 8    314227.851 8  21207645.432         754.328
  -1778716.828 6  -1636757.166 5  22669867.157       -2479.443
 92 11 17 14 56  0.0000000  0  5  3 20 24 16 17                      0.000365550
  -1555687.229 7  -1395074.862 5  22262285.321       -2135.973
  -1904043.136 8    530592.520 9  20864924.734        1126.277
    176042.430 6   1564894.911 5  24195177.302        2536.475
    386823.742 8    332115.419 8  21212013.670         775.948
  -1852950.264 6  -1694601.434 5  22655740.877       -2469.286
 92 11 17 14 56 30.0000000  0  5  3 20 24 16 17                      0.000362680
  -1619703.696 7  -1444957.877 5  22250103.004       -2131.806
  -1869930.516 8    557173.731 9  20871416.011        1148.062
    252163.823 5   1624210.201 5  24209663.274        2538.286
    410413.124 8    350496.715 8  21216502.112         796.844
  -1926872.251 6  -1752203.051 5  22641673.756       -2458.676
 92 11 17 14 57  0.0000000  0  5  3 20 24 16 17                      0.000359850
  -1683594.879 7  -1494743.249 5  22237945.080       -2127.725
  -1835165.100 8    584263.611 9  20878031.619        1169.705
    328327.149 6   1683558.090 5  24224157.010        2539.261
    434630.322 8    369367.217 8  21221110.591         817.650
  -2000477.806 6  -1809558.056 5  22627666.692       -2448.480
 92 11 17 14 57 30.0000000  0  6  3 20 24 16 17 26                   0.000357120
  -1747359.972 7  -1544430.360 5  22225810.440       -2123.502
  -1799748.673 8    611860.783 9  20884771.014        1191.398
    404516.613 6   1742926.329 5  24238655.269        2540.163
    459473.468 8    388725.486 8  21225838.079         838.597
  -2073784.978 6  -1866680.569 5  22613716.702       -2438.421
  -3149645.77915  -1023776.77515  24683839.984       -2675.817
 92 11 17 14 58  0.0000000  0  6  3 20 24 16 17 26                   0.000354360
  -1810998.614 7  -1594018.934 5  22213700.726       -2119.242
  -1763682.948 8    639963.902 9  20891634.052        1213.012
    480745.780 6   1802325.557 5  24253160.327        2541.862
    484947.410 8    408575.261 8  21230685.352         859.704
  -2146773.758 6  -1923554.998 5  22599827.385       -2427.318
  -3229882.575 5  -1086298.833 5  24668570.523       -2673.085
 92 11 17 14 58 30.0000000  0  6  3 20 24 16 17 26                   0.000351660
  -1874512.578 7  -1643510.359 5  22201614.656       -2114.926
  -1726971.587 8    668570.091 9  20898619.758        1234.694
    557024.213 5   1861763.149 5  24267676.272        2543.672
    511053.174 8    428917.383 8  21235652.904         881.150
  -2219428.374 6  -1980169.020 5  22586001.867       -2416.126
  -3310036.176 5  -1148756.015 5  24653318.494       -2670.207
 92 11 17 14 59  0.0000000  0  6  3 20 24 16 17 26                   0.000349010
  -1937902.813 7  -1692905.411 5  22189551.682       -2110.669
  -1689618.132 8    697676.639 9  20905728.116        1256.211
    633363.659 5   1921248.265 5  24282203.246        2546.463
    537801.934 8    449760.536 8  21240743.277         902.692
  -2291756.163 6  -2036528.367 5  22572238.576       -2405.024
  -3390111.971 5  -1211152.599 5  24638080.693       -2667.343
 92 11 17 14 59 30.0000000  0  6  3 20 24 16 17 26                   0.000346430
  -2001156.876 7  -1742194.332 5  22177514.878       -2106.439
  -1651612.238 8    727291.587 9  20912960.510        1277.569
    709797.772 6   1980807.191 5  24296748.142        2549.235
    565195.137 8    471105.858 8  21245956.190         923.677
  -2363736.196 6  -2092616.756 5  22558541.329       -2393.508
  -3470087.430 5  -1273470.966 5  24622861.599       -2664.223
 92 11 17 15  0  0.0000000  0  6  3 20 24 16 17 26                   0.000343920
  -2064279.377 7  -1791380.740 5  22165502.966       -2101.839
  -1612961.204 8    757409.228 9  20920315.658        1299.226
    786321.796 5   2040436.159 5  24311310.107        2552.314
    593226.279 8    492948.271 8  21251290.518         945.089
  -2435366.928 6  -2148432.950 5  22544909.513       -2382.032
  -3549963.390 5  -1335711.834 5  24607662.782       -2660.767
 92 11 17 15  0 30.0000000  0  6  3 20 24 16 17 26                   0.000341480
  -2127266.540 7  -1840461.668 5  22153516.677       -2097.394
  -1573663.394 8    788030.843 9  20927793.669        1320.683
    862931.502 5   2100131.781 5  24325887.509        2554.978
    621891.166 8    515284.505 7  21256745.152         965.961
  -2506665.495 6  -2203990.340 5  22531341.836       -2371.265
  -3629745.772 5  -1397879.794 5  24592479.871       -2658.067
 92 11 17 15  1  0.0000000  0  6  3 20 24 16 17 26                   0.000339090
  -2190121.480 7  -1889439.565 5  22141556.309       -2093.088
  -1533724.513 8    819152.004 8  20935393.358        1341.938
    939611.822 6   2159882.593 5  24340479.573        2557.081
    651181.632 8    538108.224 7  21262318.943         986.743
  -2577647.033 6  -2259300.655 5  22517834.870       -2360.847
  -3709446.457 5  -1459984.082 5  24577312.944       -2655.235
 92 11 17 15  1 30.0000000  0  6  3 20 24 16 17 26                   0.000336750
  -2252839.143 7  -1938310.489 5  22129621.421       -2088.434
  -1493141.935 8    850774.752 8  20943116.062        1363.375
   1016351.850 5   2219679.903 5  24355081.248        2558.705
    681105.262 8    561425.292 7  21268013.341        1008.244
  -2648311.219 6  -2314363.667 5  22504388.248       -2350.297
  -3789053.689 5  -1522015.617 5  24562164.287       -2652.219
 92 11 17 15  2  0.0000000  0  6  3 20 24 16 17 26                   0.000334440
  -2315419.476 7  -1987074.414 5  22117712.765       -2083.800
  -1451917.776 8    882897.420 8  20950961.149        1384.822
   1093141.841 5   2279516.107 5  24369694.362        2560.541
    711683.103 8    585252.150 7  21273832.363        1030.153
  -2718661.254 6  -2369181.915 5  22491001.752       -2339.741
  -3868577.519 5  -1583982.119 5  24547030.862       -2649.353
 92 11 17 15  2 30.0000000  0  6  3 20 24 16 17 26                   0.000332170
  -2377864.084 7  -2035732.579 5  22105829.809       -2079.297
  -1410056.407 8    915516.615 8  20958927.147        1405.977
   1169987.244 5   2339395.521 5  24384319.087        2562.425
    742913.101 8    609587.182 7  21279775.039        1051.974
  -2788694.950 6  -2423753.663 5  22477674.788       -2329.009
  -3948015.326 5  -1645881.648 5  24531914.149       -2646.309
 92 11 17 15  3  0.0000000  0  6  3 20 24 16 17 26                   0.000329950
  -2440173.063 7  -2084285.076 5  22093972.902       -2074.736
  -1367560.444 8    948630.300 8  20967013.988        1427.115
   1246884.340 5   2399315.183 5  24398952.297        2564.201
    774799.083 8    634433.367 7  21285842.509        1073.778
  -2858402.115 6  -2478070.988 5  22464409.764       -2318.046
  -4027347.144 5  -1707698.501 5  24516818.877       -2642.538
 92 11 17 15  3 30.0000000  0  6  3 20 24 16 17 26                   0.000327770
  -2502345.117 7  -2132730.842 5  22082141.742       -2070.183
  -1324431.502 8    982237.211 8  20975220.978        1448.157
   1323840.525 6   2459280.890 5  24413597.237        2566.267
    807334.274 8    659785.420 7  21292033.813        1095.177
  -2927777.982 6  -2532130.113 5  22451207.670       -2306.968
  -4106558.183 5  -1769421.367 5  24501745.653       -2638.185
 92 11 17 15  4  0.0000000  0  6  3 20 24 16 17 26                   0.000325650
  -2564378.512 7  -2181068.571 6  22070337.375       -2065.621
  -1280669.947 8   1016337.079 8  20983548.453        1469.210
   1400866.411 5   2519300.859 5  24428254.256        2568.645
    840500.065 8    685628.875 7  21298345.284        1115.726
  -2996819.518 6  -2585928.741 5  22438069.362       -2295.861
  -4185637.105 5  -1831041.285 5  24486696.679       -2633.559
 92 11 17 15  4 30.0000000  0  6  3 20 24 16 17 26                   0.000323600
  -2626272.530 7  -2229297.683 6  22058559.207       -2060.904
  -1236278.335 8   1050927.894 8  20991996.075        1490.208
   1477958.742 5   2579372.712 5  24442923.742        2570.654
    874276.843 8    711948.394 7  21304772.663        1136.035
  -3065530.050 6  -2639469.425 5  22424994.307       -2284.792
  -4264575.361 5  -1892551.554 5  24471675.077       -2628.942
 92 11 17 15  5  0.0000000  0  6  3 20 24 16 17 26                   0.000321630
  -2688025.326 7  -2277416.785 6  22046807.802       -2056.280
  -1191257.257 8   1086009.209 8  21000563.313        1511.036
   1555106.074 6   2639487.353 5  24457605.490        2572.417
    908654.916 8    738736.468 7  21311314.435        1155.713
  -3133907.082 6  -2692750.234 5  22411982.176       -2273.851
  -4343375.117 5  -1953953.888 5  24456679.813       -2624.643
 92 11 17 15  5 30.0000000  0  6  3 20 24 16 17 26                   0.000319720
  -2749641.630 7  -2325429.522 6  22035082.469       -2051.769
  -1145613.743 8   1121575.525 8  21009248.750        1531.814
   1632309.890 5   2699645.968 5  24472296.299        2574.510
    943620.522 8    765982.363 7  21317968.087        1175.321
  -3201957.389 6  -2745776.461 6  22399033.083       -2262.830
  -4422049.973 5  -2015258.926 5  24441707.956       -2620.518
 92 11 17 15  6  0.0000000  0  6  3 20 24 16 17 26                   0.000317880
  -2811118.385 7  -2373333.510 6  22023383.819       -2047.039
  -1099347.670 8   1157626.958 8  21018052.952        1552.523
   1709576.599 5   2759853.648 5  24486998.872        2576.557
    979181.409 8    793692.091 7  21324735.283        1195.399
  -3269676.057 6  -2798544.262 6  22386146.914       -2251.796
  -4500610.219 5  -2076474.703 5  24426758.307       -2616.777
 92 11 17 15  6 30.0000000  0  6  3 20 24 16 17 26                   0.000316100
  -2872456.714 7  -2421129.648 6  22011711.288       -2042.419
  -1052463.042 8   1194160.384 8  21026975.228        1573.088
   1786899.644 5   2820105.333 5  24501714.253        2578.333
   1015347.064 8    821873.086 7  21331617.348        1215.668
  -3337068.029 6  -2851057.485 6  22373322.960       -2241.003
  -4579057.552 5  -2137602.433 5  24411830.098       -2613.059
 92 11 17 15  7  0.0000000  0  6  3 20 24 16 17 26                   0.000314360
  -2933655.976 7  -2468817.420 6  22000065.738       -2037.746
  -1004962.329 8   1231173.887 8  21036014.309        1593.566
   1864280.122 5   2880401.499 5  24516438.906        2580.446
   1052124.180 8    850530.547 7  21338615.834        1236.289
  -3404142.937 6  -2903323.640 6  22360558.706       -2230.759
  -4657382.306 5  -2198634.700 5  24396926.007       -2608.671
 92 11 17 15  7 30.0000000  0  6  3 20 24 16 17 26                   0.000312670
  -2994716.603 7  -2516397.154 6  21988446.543       -2033.133
   -956848.315 8   1268665.276 8  21045170.091        1613.996
   1941722.951 5   2940746.446 5  24531176.290        2582.384
   1089530.359 8    879678.181 7  21345734.057        1257.484
  -3470911.956 6  -2955351.450 6  22347852.294       -2220.620
  -4735574.402 5  -2259563.570 5  24382047.047       -2604.210
 92 11 17 15  8  0.0000000  0  6  3 20 24 16 17 26                   0.000311000
  -3055637.487 7  -2563868.015 6  21976853.851       -2028.510
   -908123.152 8   1306632.896 8  21054442.223        1634.303
   2019214.577 5   3001129.377 5  24545922.005        2583.503
   1127569.388 8    909318.948 7  21352972.567        1278.306
  -3537390.249 6  -3007152.696 6  22335201.432       -2211.309
  -4813637.176 5  -2320391.674 5  24367191.554       -2599.902
 92 11 17 15  8 30.0000000  0  6  3 20 24 16 17 26                   0.000309360
  -3116416.731 7  -2611228.498 6  21965287.908       -2023.629
   -858787.883 8   1345075.894 8  21063830.121        1654.738
   2096734.844 6   3061534.532 5  24560672.774        2584.564
   1166234.751 8    939447.752 7  21360330.381        1299.387
  -3603579.115 6  -3058728.462 5  22322606.821       -2201.204
  -4891560.658 5  -2381111.246 5  24352362.939       -2594.984
 92 11 17 15  9  0.0000000  0  6  3 20 24 16 17 26                   0.000307750
  -3177053.848 7  -2658478.217 6  21953748.846       -2019.023
   -808844.827 8   1383992.513 8  21073334.153        1674.824
   2174287.013 5   3121964.674 5  24575431.848        2585.676
   1205522.960 8    970061.908 7  21367806.826        1319.838
  -3669466.183 6  -3110069.037 5  22310068.650       -2191.125
  -4969344.978 5  -2441722.377 5  24337560.756       -2590.720
 92 11 17 15  9 30.0000000  0  6  3 20 24 16 17 26                   0.000306170
  -3237550.820 7  -2705618.708 6  21942237.013       -2014.305
   -758298.804 8   1423378.973 8  21082953.136        1694.909
   2251873.853 5   3182421.752 5  24590196.095        2586.641
   1245417.633 8   1001148.623 7  21375398.760        1339.647
  -3735037.477 6  -3161163.553 5  22297591.009       -2180.380
  -5047007.855 5  -2502238.841 5  24322783.139       -2586.845
 92 11 17 15 10  0.0000000  0  6  3 20 24 16 17 26                   0.000304640
  -3297907.951 7  -2752650.275 6  21930751.457       -2009.717
   -707153.047 8   1463232.761 8  21092685.679        1714.783
   2329491.525 5   3242902.921 5  24604966.784        2588.025
   1285898.572 8   1032692.181 7  21383102.055        1359.057
  -3800287.930 6  -3212008.047 5  22285174.604       -2169.528
  -5124552.147 5  -2562662.957 5  24308027.757       -2582.632
 92 11 17 15 10 30.0000000  0  6  3 20 24 16 17 26                   0.000303170
  -3358121.562 7  -2799569.999 6  21919293.310       -2004.851
   -655407.275 8   1503554.092 8  21102532.421        1734.781
   2407168.395 5   3303430.163 5  24619748.967        2590.475
   1326973.833 8   1064698.837 7  21390918.484        1379.134
  -3865194.708 6  -3262584.769 5  22272823.305       -2157.804
  -5201962.760 5  -2622982.866 5  24293296.355       -2578.054
 92 11 17 15 11  0.0000000  0  6  3 20 24 16 17 26                   0.000301760
  -3418193.196 7  -2846379.093 6  21907862.372       -2000.139
   -603066.278 8   1544339.218 8  21112492.566        1754.621
   2484921.346 6   3364016.727 5  24634544.126        2592.969
   1368637.648 8   1097164.098 7  21398846.987        1398.454
  -3929762.964 6  -3312897.700 5  22260536.001       -2146.844
  -5279239.284 5  -2683198.303 5  24278589.914       -2573.585
 92 11 17 15 11 30.0000000  0  6  3 20 24 16 17 26                   0.000300410
  -3478122.729 7  -2893077.455 6  21896458.215       -1995.413
   -550132.609 8   1585586.198 8  21122565.831        1774.269
   2562741.812 5   3424655.922 5  24649353.642        2594.973
   1410885.528 8   1130084.491 7  21406886.650        1418.070
  -3994013.744 6  -3362963.251 5  22248309.255       -2136.607
  -5356366.724 5  -2743297.480 5  24263912.403       -2568.165
 92 11 17 15 12  0.0000000  0  6  3 20 24 16 17 26                   0.000299120
  -3537908.769 7  -2939663.999 6  21885081.175       -1990.587
   -496607.805 8   1627293.785 8  21132751.303        1793.997
   2640628.665 5   3485346.778 5  24664174.713        2597.424
   1453725.954 8   1163466.602 7  21415038.825        1437.838
  -4057958.519 7  -3412790.329 5  22236141.509       -2126.421
  -5433323.446 5  -2803263.705 5  24249267.713       -2562.294
 92 11 17 15 12 30.0000000  0  6  3 20 24 16 17 26                   0.000297900
  -3597553.297 7  -2986140.278 6  21873731.032       -1985.948
   -442497.425 8   1669457.647 8  21143048.043        1813.423
   2718573.076 5   3546082.457 5  24679007.424        2598.720
   1497146.153 8   1197300.476 7  21423301.106        1456.739
  -4121600.104 7  -3462381.203 6  22224030.954       -2116.309
  -5510099.162 5  -2863088.883 5  24234657.917       -2556.027
 92 11 17 15 13  0.0000000  0  6  3 20 24 16 17 26                   0.000296730
  -3657054.211 7  -3032504.652 6  21862408.532       -1981.064
   -387802.508 8   1712077.005 8  21153456.527        1832.889
   2796546.419 5   3606840.842 5  24693846.411        2599.451
   1541122.021 8   1231567.336 7  21431669.603        1475.129
  -4184940.126 6  -3511737.059 5  22211977.159       -2106.371
  -5586685.422 5  -2922766.399 5  24220082.968       -2549.764
 92 11 17 15 13 30.0000000  0  6  3 20 24 16 17 26                   0.000295620
  -3716410.211 7  -3078756.121 6  21851113.439       -1976.270
   -332525.274 8   1755150.116 8  21163975.274        1852.244
   2874539.454 5   3667614.355 5  24708687.518        2600.152
   1585660.781 8   1266272.826 7  21440144.907        1494.030
  -4247976.361 7  -3560856.195 5  22199982.031       -2095.890
  -5663085.780 5  -2982299.004 5  24205544.702       -2543.780
 92 11 17 15 14  0.0000000  0  6  3 20 24 16 17 26                   0.000294560
  -3775622.957 7  -3124895.942 6  21839845.761       -1971.414
   -276670.361 8   1798673.380 8  21174603.817        1871.499
   2952551.671 5   3728402.950 5  24723532.740        2600.757
   1630758.441 8   1301413.819 7  21448726.816        1512.532
  -4310689.114 7  -3609723.294 5  22188048.713       -2084.988
  -5739316.419 5  -3041699.370 5  24191038.973       -2538.153
 92 11 17 15 14 30.0000000  0  6  3 20 24 16 17 26                   0.000293560
  -3834690.287 7  -3170922.443 6  21828605.620       -1966.499
   -220238.823 8   1842645.940 8  21185342.724        1890.665
   3030572.567 5   3789198.310 5  24738379.787        2600.818
   1676411.596 8   1336987.662 7  21457414.631        1531.217
  -4373076.967 7  -3658337.240 5  22176176.751       -2074.172
  -5815378.720 5  -3100968.577 5  24176564.733       -2532.749
 92 11 17 15 15  0.0000000  0  6  3 20 24 16 17 26                   0.000292580
  -3893612.493 7  -3216835.870 6  21817393.163       -1961.802
   -163234.606 8   1887064.766 8  21196190.194        1909.595
   3108606.595 5   3850003.856 5  24753227.964        2601.451
   1722637.935 8   1373008.146 7  21466211.181        1550.726
  -4435148.419 7  -3706704.615 5  22164364.910       -2063.993
  -5891288.439 5  -3160118.861 5  24162119.474       -2528.018
 92 11 17 15 15 30.0000000  0  6  3 20 24 16 17 26                   0.000291630
  -3952390.567 7  -3262637.012 6  21806207.977       -1956.861
   -105661.890 8   1931926.551 8  21207146.089        1928.640
   3186664.090 5   3910827.647 5  24768082.788        2602.410
   1769463.775 8   1409495.760 7  21475121.703        1570.952
  -4496912.131 7  -3754832.180 5  22152611.406       -2053.415
  -5967049.524 5  -3219153.376 5  24147701.955       -2522.533
 92 11 17 15 16  0.0000000  0  6  3 20 24 16 17 26                   0.000290700
  -4011020.421 7  -3308322.624 6  21795051.130       -1951.905
    -47519.691 8   1977232.111 8  21218210.068        1947.591
   3264748.232 5   3971672.337 4  24782940.963        2603.281
   1816893.790 8   1446454.147 7  21484147.343        1591.115
  -4558363.159 7  -3802716.101 5  22140917.630       -2043.495
  -6042642.679 5  -3278056.976 5  24133317.257       -2516.896
 92 11 17 15 16 30.0000000  0  5  3 20 16 17 26                      0.000289730
  -4069501.366 7  -3353892.219 6  21783922.424       -1947.068
     11189.197 8   2022979.246 8  21229381.992        1966.294
   1864929.563 8   1483884.587 7  21493288.378        1611.176
  -4619515.507 7  -3850367.265 6  22129280.701       -2033.443
  -6118063.032 5  -3336825.987 5  24118965.056       -2511.269
 92 11 17 15 17  0.0000000  0  5  3 20 16 17 26                      0.000288880
  -4127834.885 7  -3399346.919 6  21772822.020       -1942.152
     70459.369 8   2069163.739 8  21240660.826        1984.959
   1913560.226 8   1521778.548 7  21502542.400        1630.742
  -4680364.082 7  -3897781.725 6  22117701.605       -2023.147
  -6193317.150 5  -3395465.425 5  24104645.120       -2505.517
 92 11 17 15 17 30.0000000  0  5  3 20 16 17 26                      0.000288070
  -4186019.588 7  -3444685.669 6  21761749.716       -1937.123
    130289.042 8   2115784.210 8  21252046.263        2003.587
   1962771.103 7   1560124.632 7  21511906.997        1649.662
  -4740895.600 7  -3944949.146 6  22106183.227       -2012.370
  -6268384.048 5  -3453958.978 5  24090359.381       -2499.144
 92 11 17 15 18  0.0000000  0  5  3 20 16 17 26                      0.000287320
  -4244057.486 7  -3489910.024 6  21750705.231       -1932.231
    190672.688 8   2162836.344 8  21263537.030        2021.992
   2012532.197 7   1598899.467 7  21521375.883        1667.623
  -4801112.409 7  -3991871.341 6  22094724.180       -2002.070
  -6343273.135 5  -3512314.014 5  24076108.623       -2493.620
 92 11 17 15 18 30.0000000  0  5  3 20 16 17 26                      0.000286610
  -4301947.022 7  -3535018.779 6  21739688.966       -1927.301
    251608.514 8   2210318.745 8  21275132.772        2040.348
   2062817.793 7   1638082.987 7  21530944.949        1684.716
  -4861012.940 7  -4038547.078 6  22083325.410       -1991.364
  -6417997.151 5  -3570540.453 5  24061889.143       -2488.022
 92 11 17 15 19  0.0000000  0  5  3 20 16 17 26                      0.000285950
  -4359686.694 7  -3580010.756 6  21728701.755       -1922.199
    313094.074 8   2258229.527 8  21286832.714        2058.676
   2113622.129 7   1677670.732 7  21540612.494        1702.295
  -4920592.565 7  -4084972.767 6  22071987.680       -1980.700
  -6492554.314 5  -3628636.836 5  24047700.405       -2482.274
 92 11 17 15 19 30.0000000  0  5  3 20 16 17 26                      0.000285350
  -4417277.463 7  -3624886.670 6  21717742.300       -1917.359
    375125.032 8   2306565.275 8  21298636.911        2076.680
   2164955.792 7   1717670.936 7  21550381.013        1719.803
  -4979869.118 7  -4131162.301 6  22060707.769       -1971.222
  -6566937.027 5  -3686597.346 5  24033546.934       -2476.722
 92 11 17 15 20  0.0000000  0  5  3 20 16 17 26                      0.000284750
  -4474717.374 7  -3669645.078 6  21706811.907       -1912.181
    437699.905 8   2355324.862 8  21310544.716        2094.951
   2216815.882 7   1758081.351 7  21560249.800        1737.538
  -5038864.423 7  -4177132.686 6  22049480.871       -1961.845
  -6641154.579 5  -3744429.149 5  24019423.555       -2470.902
 92 11 17 15 20 30.0000000  0  5  3 20 16 17 26                      0.000284190
  -4532002.495 7  -3714282.868 6  21695910.987       -1907.064
    500818.588 7   2404508.183 8  21322555.960        2112.921
   2269212.978 7   1798910.198 7  21570220.477        1755.739
  -5097578.458 7  -4222883.885 6  22038308.187       -1952.600
  -6715186.547 5  -3802116.333 5  24005335.221       -2464.450
 92 11 17 15 21  0.0000000  0  6 23  3 20 16 17 26                   0.000283610
  16446134.60215   -206806.11311  24192293.075       -3556.648
  -4589134.995 7  -3758801.683 6  21685038.802       -1901.981
    564475.378 7   2454110.817 8  21334669.826        2130.804
   2322163.530 7   1840170.328 7  21580296.763        1774.164
  -5156024.903 7  -4268426.549 6  22027185.839       -1943.828
  -6789014.499 5  -3859644.528 5  23991286.355       -2457.412
 92 11 17 15 21 30.0000000  0  6 23  3 20 16 17 26                   0.000283130
  16339511.029 5   -289889.514 2  24172002.631       -3551.819
  -4646114.822 7  -3803201.551 6  21674196.105       -1896.861
    628666.779 7   2504130.023 8  21346884.939        2148.567
   2375656.260 7   1881852.932 7  21590475.895        1791.912
  -5214209.527 7  -4313765.250 6  22016113.892       -1934.976
  -6862628.698 5  -3917006.159 5  23977278.438       -2450.355
 92 11 17 15 22  0.0000000  0  6 23  3 20 16 17 26                   0.000282660
  16233031.234 5   -372860.752 3  24151739.603       -3546.896
  -4702939.248 7  -3847480.325 6  21663382.631       -1891.655
    693391.996 7   2554565.197 8  21359201.533        2166.393
   2429679.484 7   1923948.906 7  21600756.227        1809.592
  -5272105.060 7  -4358878.635 6  22005096.969       -1924.623
  -6936033.569 5  -3974204.623 5  23963309.614       -2443.200
 92 11 17 15 22 30.0000000  0  6 23  3 20 16 17 26                   0.000282230
  16126704.420 5   -455712.805 4  24131506.574       -3541.340
  -4759611.175 7  -3891640.274 6  21652598.297       -1886.544
    758643.892 7   2605410.783 8  21371618.576        2183.858
   2484233.697 7   1966458.637 7  21611137.480        1827.477
  -5329686.862 7  -4403747.564 6  21994139.743       -1913.963
  -7009228.084 5  -4031239.190 5  23949381.029       -2436.259
 92 11 17 15 23  0.0000000  0  6 23  3 20 16 17 26                   0.000281840
  16020554.752 5   -538426.848 5  24111307.991       -3535.081
  -4816124.030 7  -3935676.306 6  21641844.223       -1881.237
    824425.311 7   2656668.952 8  21384136.600        2201.493
   2539326.817 7   2009388.285 7  21621621.423        1845.271
  -5386936.683 7  -4448357.824 6  21983245.389       -1902.687
  -7082213.735 5  -4088111.076 5  23935493.003       -2429.604
 92 11 17 15 23 30.0000000  0  6 23  3 20 16 17 26                   0.000281490
  15914607.515 5   -620983.108 5  24091147.385       -3528.106
  -4872479.828 7  -3979589.927 6  21631120.064       -1875.972
    890730.348 7   2708335.163 8  21396753.977        2218.895
   2594949.951 7   2052730.958 7  21632206.365        1863.084
  -5443843.907 7  -4492701.105 6  21972415.772       -1891.077
  -7155006.185 5  -4144832.348 5  23921640.985       -2423.191
 92 11 17 15 24  0.0000000  0  6 23  3 20 16 17 26                   0.000281200
  15808872.913 5   -703373.694 5  24071025.481       -3520.630
  -4928680.153 7  -4023382.404 6  21620425.511       -1870.808
    957553.545 7   2760405.122 8  21409469.533        2236.081
   2651110.162 7   2096492.113 7  21642893.526        1881.037
  -5500407.815 7  -4536776.904 6  21961651.943       -1880.014
  -7227610.158 5  -4201406.767 5  23907824.905       -2416.700
 92 11 17 15 24 30.0000000  0  6 23  3 20 16 17 26                   0.000280960
  15703369.353 5   -785584.229 5  24050947.905       -3512.956
  -4984723.452 7  -4067052.523 6  21609760.674       -1865.505
   1024892.740 7   2812877.164 8  21422283.463        2253.278
   2707812.227 7   2140675.498 7  21653683.616        1899.155
  -5556652.527 7  -4580603.963 6  21950949.084       -1869.761
  -7300008.457 5  -4257820.889 5  23894047.480       -2409.672
 92 11 17 15 25  0.0000000  0  6 23  3 20 16 17 26                   0.000280780
  15598093.519 5   -867617.345 5  24030915.513       -3505.351
  -5040606.304 7  -4110597.609 6  21599126.306       -1860.126
   1092747.899 7   2865751.262 8  21435195.822        2270.418
   2765051.663 7   2185277.618 7  21664576.096        1916.782
  -5612599.928 7  -4624199.310 6  21940302.625       -1860.203
  -7372194.658 5  -4314069.778 5  23880310.168       -2402.653
 92 11 17 15 25 30.0000000  0  6 23  3 20 16 17 26                   0.000280650
  15493041.566 5   -949475.997 5  24010925.181       -3498.240
  -5096325.899 7  -4154015.489 6  21588523.205       -1854.718
   1161117.521 7   2919026.221 8  21448206.524        2287.540
   2822817.495 7   2230289.898 7  21675568.567        1934.191
  -5668269.022 7  -4667577.852 6  21929708.769       -1851.093
  -7444162.424 5  -4370148.442 5  23866614.597       -2395.095
 92 11 17 15 26  0.0000000  0  6 23  3 20 16 17 26                   0.000280560
  15388189.213 5  -1031179.101 5  23990972.765       -3491.545
  -5151885.345 7  -4197308.581 6  21577950.656       -1849.252
   1229994.537 7   2972696.557 7  21461313.621        2304.470
   2881100.641 7   2275705.278 7  21686659.659        1951.518
  -5723671.787 7  -4710748.845 6  21919166.446       -1842.206
  -7515901.514 5  -4426048.906 5  23852963.579       -2387.329
 92 11 17 15 26 30.0000000  0  6 23  3 20 16 17 26                   0.000280510
  15283536.363 6  -1112726.742 5  23971057.929       -3485.247
  -5207282.910 7  -4240475.525 6  21567409.370       -1844.021
   1299376.630 7   3026760.473 7  21474516.393        2321.091
   2939893.987 7   2321518.245 7  21697847.653        1968.048
  -5778809.315 7  -4753713.137 6  21908673.882       -1833.410
  -7587415.461 5  -4481773.962 5  23839354.587       -2380.224
 92 11 17 15 27  0.0000000  0  6 23  3 20 16 17 26                   0.000280480
  15179075.184 5  -1194125.056 5  23951178.953       -3478.803
  -5262517.063 7  -4283515.150 6  21556899.110       -1838.531
   1369261.550 7   3081216.177 7  21487815.376        2337.826
   2999181.394 7   2367716.154 7  21709129.912        1984.368
  -5833668.457 7  -4796460.526 6  21898234.229       -1823.793
  -7658709.151 5  -4537327.412 5  23825787.451       -2372.722
 92 11 17 15 27 30.0000000  0  6 23  3 20 16 17 26                   0.000280490
  15074806.786 5  -1275373.131 5  23931336.863       -3472.497
  -5317586.412 7  -4326426.350 6  21546419.625       -1832.973
   1439646.458 7   3136061.507 7  21501208.984        2354.509
   3058954.297 7   2414292.399 7  21720503.988        2000.616
  -5888231.934 7  -4838977.540 6  21887851.345       -1813.611
  -7729780.895 5  -4592707.873 5  23812263.446       -2365.233
 92 11 17 15 28  0.0000000  0  6 23  3 20 16 17 26                   0.000280530
  14970723.445 5  -1356476.991 5  23911530.482       -3466.269
  -5372491.830 7  -4369209.819 6  21535971.128       -1827.534
   1510526.349 7   3191292.510 7  21514697.204        2370.869
   3119215.758 7   2461249.327 7  21731971.608        2016.806
  -5942487.780 7  -4881254.822 6  21877526.794       -1803.464
  -7800632.237 5  -4647916.668 5  23798780.739       -2358.098
 92 11 17 15 28 30.0000000  0  6 23  3 20 16 17 26                   0.000280600
  14866830.271 5  -1437432.695 5  23891759.167       -3460.153
  -5427228.946 7  -4411862.145 6  21525555.268       -1821.767
   1581901.335 7   3246909.313 7  21528279.063        2387.442
   3179959.314 7   2508581.900 7  21743530.976        2032.793
  -5996439.224 7  -4923294.904 6  21867260.091       -1793.308
  -7871263.315 5  -4702953.800 5  23785340.241       -2350.525
 92 11 17 15 29  0.0000000  0  6 23  3 20 16 17 26                   0.000280700
  14763109.186 5  -1518254.255 5  23872024.069       -3454.500
  -5481796.836 7  -4454382.578 6  21515171.217       -1816.207
   1653768.775 7   3302909.856 7  21541955.384        2403.754
   3241190.989 7   2556294.851 7  21755182.888        2049.455
  -6050087.114 7  -4965098.457 6  21857051.338       -1783.282
  -7941663.141 5  -4757810.765 5  23771943.236       -2342.678
 92 11 17 15 29 30.0000000  0  6 23  3 20 16 17 26                   0.000280790
  14659556.807 5  -1598944.361 5  23852317.420       -3448.941
  -5536198.052 8  -4496773.162 7  21504819.443       -1810.660
   1726122.134 7   3359289.033 7  21555724.032        2419.863
   3302925.094 7   2604399.286 7  21766930.679        2066.271
  -6103448.014 7  -5006678.390 6  21846896.708       -1774.117
  -8011828.421 6  -4812484.930 5  23758590.979       -2334.699
 92 11 17 15 30  0.0000000  0  6 23  3 20 16 17 26                   0.000280880
  14556174.803 5  -1679501.731 5  23832643.758       -3443.115
  -5590429.327 8  -4539031.335 7  21494499.567       -1805.067
   1798959.949 7   3416045.707 7  21569584.846        2435.887
   3365169.263 7   2652901.185 7  21778775.428        2083.154
  -6156535.793 7  -5048045.502 6  21836794.195       -1765.157
  -8081750.508 5  -4866969.653 5  23745285.456       -2326.869
 92 11 17 15 30 30.0000000  0  6 23  3 20 16 17 26                   0.000280990
  14452975.437 5  -1759916.813 5  23813004.848       -3436.864
  -5644489.912 7  -4581156.508 7  21484211.981       -1799.327
   1872278.803 7   3473177.200 7  21583536.719        2451.897
   3427915.743 7   2701794.469 7  21790715.762        2099.937
  -6209348.534 7  -5089198.315 6  21826744.900       -1755.655
  -8151431.660 6  -4921266.607 5  23732024.867       -2318.597
 92 11 17 15 31  0.0000000  0  6 23  3 20 16 17 26                   0.000281110
  14349978.138 5  -1840174.360 5  23793405.794       -3429.448
  -5698379.309 7  -4623148.283 6  21473956.859       -1793.473
   1946075.403 7   3530680.973 7  21597579.946        2467.845
   3491172.052 7   2751085.024 7  21802752.868        2116.972
  -6261873.368 7  -5130126.755 6  21816749.807       -1745.995
  -8220866.543 5  -4975371.678 5  23718811.789       -2310.391
 92 11 17 15 31 30.0000000  0  6 23  3 20 16 17 26                   0.000281280
  14247211.213 5  -1920252.454 5  23773849.575       -3421.746
  -5752097.569 7  -4665006.657 6  21463734.537       -1787.907
   2020345.683 7   3588553.854 7  21611712.992        2483.487
   3554916.444 7   2800755.942 7  21814882.919        2132.527
  -6314108.093 7  -5170829.128 6  21806810.119       -1736.215
  -8290059.849 5  -5029288.521 5  23705645.134       -2302.587
 92 11 17 15 32  0.0000000  0  6 23  3 20 16 17 26                   0.000281490
  14144677.970 5  -2000148.461 5  23754338.222       -3413.741
  -5805643.898 7  -4706731.110 7  21453545.148       -1782.052
   2095085.942 7   3646792.948 7  21625935.546        2499.175
   3619132.947 7   2850794.712 7  21827102.901        2148.453
  -6366033.231 7  -5211290.274 6  21796928.912       -1725.548
  -8359015.365 5  -5083020.087 5  23692523.519       -2294.524
 92 11 17 15 32 30.0000000  0  6 23  3 20 16 17 26                   0.000281760
  14042387.692 5  -2079855.150 5  23734871.858       -3405.591
  -5859016.194 7  -4748319.944 7  21443388.650       -1776.160
   2170293.909 7   3705396.484 7  21640247.257        2514.754
   3683816.996 7   2901197.772 7  21839411.730        2163.962
  -6417639.213 7  -5251502.730 6  21787108.229       -1715.003
  -8427725.602 5  -5136560.441 5  23679448.313       -2285.894
 92 11 17 15 33  0.0000000  0  6 23  3 20 16 17 26                   0.000282100
  13940341.478 5  -2159371.609 5  23715454.344       -3397.582
  -5912211.703 7  -4789770.984 7  21433266.098       -1770.374
   2245968.030 7   3764363.257 7  21654647.539        2530.160
   3748965.932 7   2951963.126 7  21851809.406        2179.074
  -6468940.088 7  -5291477.438 6  21777346.176       -1705.076
  -8496172.500 5  -5189895.663 5  23666422.760       -2277.288
 92 11 17 15 33 30.0000000  0  6 23  3 20 16 17 26                   0.000282500
  13838529.416 5  -2238705.688 5  23696081.511       -3389.812
  -5965229.668 7  -4831083.698 7  21423176.981       -1764.352
   2322104.658 7   3823690.421 7  21669136.210        2545.624
   3814561.262 7   3003076.293 7  21864291.797        2194.048
  -6519942.026 7  -5331219.211 6  21767641.554       -1695.124
  -8564352.755 5  -5243023.093 5  23653448.929       -2268.139
 92 11 17 15 34  0.0000000  0  6 23  3 20 16 17 26                   0.000282950
  13736956.762 5  -2317853.125 5  23676752.300       -3381.735
  -6018065.880 7  -4872254.776 7  21413122.362       -1758.379
   2398703.742 7   3883377.944 7  21683712.588        2560.902
   3880616.140 7   3054547.567 7  21876861.725        2209.475
  -6570654.522 7  -5370735.411 6  21757991.098       -1685.943
  -8632256.847 6  -5295935.328 5  23640527.556       -2258.948
 92 11 17 15 34 30.0000000  0  6 23  3 20 16 17 26                   0.000283450
  13635628.905 5  -2396809.889 5  23657469.334       -3373.553
  -6070723.431 7  -4913286.659 7  21403102.019       -1752.318
   2475757.907 7   3943420.074 7  21698375.447        2576.044
   3947126.393 7   3106373.668 7  21889518.053        2224.619
  -6621099.458 7  -5410043.166 6  21748391.843       -1677.064
  -8699885.929 6  -5348633.281 5  23627657.589       -2249.708
 92 11 17 15 35  0.0000000  0  6 23  3 20 16 17 26                   0.000284000
  13534546.329 5  -2475575.527 5  23638233.560       -3365.387
  -6123199.520 7  -4954177.113 7  21393116.154       -1746.304
   2553265.217 7   4003815.305 7  21713124.267        2591.100
   4014097.928 7   3158559.207 7  21902262.570        2240.173
  -6671278.172 7  -5449143.488 6  21738842.503       -1667.998
  -8767242.632 6  -5401118.986 5  23614839.428       -2240.815
 92 11 17 15 35 30.0000000  0  6 23  3 20 16 17 26                   0.000284600
  13433708.977 5  -2554150.021 5  23619044.987       -3357.200
  -6175491.137 7  -4994923.830 7  21383165.214       -1740.012
   2631224.896 7   4064563.044 7  21727959.427        2606.201
   4081549.032 7   3211118.444 7  21915097.794        2256.655
  -6721177.080 7  -5488025.728 6  21729346.677       -1658.779
  -8834328.946 6  -5453393.984 5  23602072.997       -2231.583
 92 11 17 15 36  0.0000000  0  6 23  3 20 16 17 26                   0.000285230
  13333112.467 5  -2632536.890 5  23599902.288       -3349.514
  -6227596.041 7  -5035525.049 7  21373250.016       -1733.799
   2709634.394 7   4125661.271 7  21742880.476        2621.117
   4149499.339 7   3264066.656 7  21928028.434        2273.330
  -6770804.243 7  -5526696.247 6  21719903.134       -1649.671
  -8901144.305 6  -5505457.802 5  23589358.462       -2222.560
 92 11 17 15 36 30.0000000  0  6 23  3 20 16 17 26                   0.000285870
  13232732.015 5  -2710755.371 5  23580800.203       -3342.520
  -6279512.663 7  -5075979.578 7  21363370.867       -1727.462
   2788490.837 7   4187107.781 7  21757886.528        2635.999
   4217947.708 7   3317403.004 7  21941053.646        2289.789
  -6820153.355 7  -5565150.077 6  21710512.944       -1640.201
  -8967682.669 6  -5557305.795 5  23576697.520       -2213.182
 92 11 17 15 37  0.0000000  0  6 23  3 20 16 17 26                   0.000286530
  13132561.316 5  -2788810.433 5  23561739.284       -3335.531
  -6331238.079 7  -5116285.093 7  21353527.801       -1721.034
   2867793.027 7   4248901.621 7  21772977.492        2650.786
   4286887.171 7   3371121.993 7  21954172.192        2306.030
  -6869216.117 7  -5603380.799 6  21701176.416       -1630.506
  -9033936.174 6  -5608931.868 5  23564089.698       -2203.770
 92 11 17 15 37 30.0000000  0  6 23  3 20 16 17 26                   0.000287170
  13032600.962 5  -2866701.585 5  23542716.528       -3328.489
  -6382770.525 8  -5156440.269 7  21343721.768       -1714.658
   2947538.029 7   4311040.509 7  21788152.527        2665.480
   4356303.451 7   3425212.548 7  21967381.857        2321.494
  -6917986.651 7  -5641383.826 6  21691895.694       -1620.964
  -9099911.135 6  -5660340.837 5  23551535.484       -2194.650
 92 11 17 15 38  0.0000000  0  6 23  3 20 16 17 26                   0.000287830
  12932857.350 6  -2944423.853 5  23523735.902       -3321.001
  -6434109.377 7  -5196444.562 7  21333952.072       -1708.078
   3027722.160 7   4373521.579 7  21803411.151        2680.175
   4426173.448 7   3479656.641 7  21980677.953        2336.401
  -6966466.001 7  -5679159.952 6  21682669.793       -1610.958
  -9165613.084 6  -5711537.099 5  23539033.315       -2185.328
 92 11 17 15 38 30.0000000  0  6 23  3 20 16 17 26                   0.000288520
  12833346.924 5  -3021964.430 5  23504800.225       -3312.854
  -6485249.257 7  -5236293.811 7  21324220.221       -1701.361
   3108346.226 7   4436345.453 7  21818753.474        2694.874
   4496479.272 7   3534440.348 7  21994056.740        2350.760
  -7014639.666 7  -5716697.874 6  21673503.036       -1600.452
  -9231037.010 6  -5762516.736 5  23526583.243       -2176.171
 92 11 17 15 39  0.0000000  0  6 23  3 20 16 17 26                   0.000289240
  12734088.545 5  -3099308.580 5  23485912.108       -3304.342
  -6536190.173 8  -5275988.055 7  21314526.639       -1694.820
   3189405.715 7   4499508.607 7  21834178.113        2709.194
   4567215.465 7   3589559.391 7  22007517.451        2365.125
  -7062500.911 7  -5753992.359 6  21664395.173       -1590.120
  -9296190.092 6  -5813285.336 5  23514184.814       -2167.407
 92 11 17 15 39 30.0000000  0  6 23  3 20 16 17 26                   0.000290000
  12635085.107 5  -3176454.087 5  23467071.970       -3295.852
  -6586933.935 8  -5315528.652 7  21304870.554       -1688.353
   3270893.953 7   4563005.861 7  21849685.109        2723.306
   4638384.326 7   3645015.591 7  22021060.546        2379.451
  -7110057.808 7  -5791049.678 6  21655345.195       -1580.582
  -9361078.386 6  -5863847.605 5  23501837.325       -2158.439
 92 11 17 15 40  0.0000000  0  6 23  3 20 16 17 26                   0.000290800
  12536337.221 6  -3253400.461 5  23448280.149       -3287.298
  -6637480.118 8  -5354915.285 7  21295252.363       -1681.614
   3352806.582 7   4626833.815 7  21865273.007        2737.544
   4709986.755 7   3700809.626 7  22034686.424        2394.112
  -7157335.721 7  -5827889.616 6  21646348.226       -1571.277
  -9425680.420 6  -5914186.780 5  23489544.047       -2148.254
 92 11 17 15 40 30.0000000  0  6 23  3 20 16 17 26                   0.000291630
  12437837.739 6  -3330153.269 5  23429536.429       -3279.298
  -6687828.043 8  -5394147.436 7  21285671.466       -1675.106
   3435139.863 7   4690989.540 7  21880940.751        2751.353
   4782027.725 7   3756945.400 7  22048395.001        2408.722
  -7204339.265 7  -5864515.763 6  21637403.875       -1562.284
  -9489981.853 6  -5964291.747 5  23477307.787       -2138.405
 92 11 17 15 41  0.0000000  0  6 23  3 20 16 17 26                   0.000292500
  12339583.833 6  -3406714.706 5  23410840.092       -3271.006
  -6737976.669 8  -5433224.301 7  21276128.243       -1668.364
   3517890.521 7   4755470.489 7  21896687.661        2765.313
   4854513.712 7   3813427.922 7  22062188.816        2423.610
  -7251074.702 7  -5900932.976 7  21628510.332       -1553.498
  -9553974.806 6  -6014156.395 5  23465130.572       -2127.830
 92 11 17 15 41 30.0000000  0  6 23  3 20 16 17 26                   0.000293380
  12241573.644 6  -3483086.271 5  23392189.154       -3262.986
  -6787921.737 8  -5472142.539 7  21266624.083       -1661.586
   3601057.985 7   4820276.226 7  21912513.493        2779.079
   4927442.726 7   3870255.665 7  22076066.586        2438.205
  -7297552.697 7  -5937149.599 7  21619665.747       -1545.130
  -9617644.994 6  -6063769.481 5  23453014.663       -2116.901
 92 11 17 15 42  0.0000000  0  6 23  3 20 16 17 26                   0.000294260
  12143803.486 6  -3559270.783 5  23373583.378       -3254.818
  -6837663.748 8  -5510902.538 7  21257158.337       -1654.655
   3684636.905 7   4885402.580 7  21928418.153        2792.883
   5000805.780 7   3927421.620 7  22090027.083        2452.767
  -7343771.639 7  -5973164.341 7  21610870.764       -1535.988
  -9680989.045 6  -6113128.445 5  23440960.389       -2106.109
 92 11 17 15 42 30.0000000  0  6 23  3 20 16 17 26                   0.000295190
  12046288.293 6  -3635256.626 5  23355028.431       -3246.064
  -6887199.860 7  -5549502.121 7  21247731.883       -1647.924
   3768626.030 7   4950848.565 7  21944400.778        2806.346
   5074604.794 7   3984927.263 6  22104070.481        2467.126
  -7389708.016 7  -6008958.931 7  21602129.556       -1526.529
  -9744025.243 6  -6162247.547 5  23428964.475       -2096.373
 92 11 17 15 43  0.0000000  0  6 23  3 20 16 17 26                   0.000296160
  11949046.498 6  -3711029.429 5  23336523.649       -3236.591
  -6936528.607 8  -5587940.118 7  21238345.028       -1640.891
   3853021.649 7   5016611.306 7  21960460.769        2819.991
   5148832.445 7   4042766.950 6  22118195.483        2481.360
  -7435359.870 7  -6044531.824 7  21593442.391       -1516.942
  -9806759.452 6  -6211131.311 5  23417026.440       -2086.054
 92 11 17 15 43 30.0000000  0  6 23  3 20 16 17 26                   0.000297200
  11852088.445 6  -3786581.141 5  23318072.805       -3227.360
  -6985646.913 8  -5626214.132 7  21228998.022       -1633.906
   3937822.311 7   5082689.652 7  21976597.787        2833.374
   5223481.079 7   4100934.630 6  22132400.429        2495.184
  -7480725.557 7  -6079881.700 7  21584810.119       -1507.403
  -9869192.591 6  -6259780.482 5  23405145.954       -2076.070
 92 11 17 15 44  0.0000000  0  6 23  3 20 16 17 26                   0.000298300
  11755412.800 6  -3861912.774 5  23299676.102       -3217.708
  -7034556.014 7  -5664325.127 7  21219690.854       -1626.887
   4023021.696 7   5149078.720 7  21992810.592        2846.616
   5298542.304 7   4159423.840 6  22146684.280        2508.878
  -7525798.539 7  -6115003.517 7  21576232.935       -1497.508
  -9931322.808 6  -6308193.598 5  23393322.690       -2065.714
 92 11 17 15 44 30.0000000  0  6 23  3 20 16 17 26                   0.000299470
  11659023.193 6  -3937021.557 5  23281333.617       -3208.476
  -7083252.047 7  -5702270.109 7  21210424.230       -1619.828
   4108619.231 7   5215778.011 7  22009099.288        2859.804
   5374009.298 7   4218229.228 6  22161045.186        2522.163
  -7570577.664 7  -6149896.345 7  21567711.783       -1487.893
  -9993132.696 6  -6356357.131 5  23381560.501       -2054.773
 92 11 17 15 45  0.0000000  0  6 23  3 20 16 17 26                   0.000300700
  11562899.473 6  -4011923.128 5  23263041.739       -3199.791
  -7131734.970 7  -5740049.026 7  21201198.195       -1612.517
   4194610.396 7   5282784.029 7  22025463.068        2873.000
   5449876.047 7   4277346.105 6  22175482.513        2535.605
  -7615077.480 7  -6184571.516 7  21559243.637       -1478.740
 -10054602.431 6  -6404255.596 5  23369862.691       -2043.253
 92 11 17 15 45 30.0000000  0  6 23  3 20 16 17 26                   0.000301920
  11467025.135 6  -4086630.391 5  23244797.070       -3191.831
  -7180000.849 7  -5777658.816 7  21192013.236       -1605.315
   4280994.056 7   5350095.896 7  22041901.530        2885.968
   5526143.247 7   4336775.022 6  22189995.923        2548.938
  -7659308.604 7  -6219037.333 7  21550826.445       -1469.908
 -10115731.923 6  -6451888.903 5  23358229.792       -2031.772
 92 11 17 15 46  0.0000000  0  6 23  3 20 16 17 26                   0.000303140
  11371392.511 6  -4161149.294 5  23226599.371       -3183.554
  -7228051.482 7  -5815100.882 7  21182869.563       -1598.139
   4367763.294 7   5417708.211 6  22058412.968        2898.719
   5602809.323 7   4396514.758 6  22204585.158        2562.197
  -7703274.510 7  -6253296.482 7  21542459.893       -1461.003
 -10176512.634 6  -6499250.445 5  23346663.982       -2020.225
 92 11 17 15 46 30.0000000  0  6 23  3 20 16 17 26                   0.000304350
  11276012.271 6  -4235471.567 5  23208449.158       -3175.046
  -7275883.246 8  -5852372.387 7  21173767.557       -1590.831
   4454917.037 7   5485620.135 6  22074997.769        2911.544
   5679877.154 7   4456567.533 6  22219250.844        2575.855
  -7746973.148 7  -6287347.377 7  21534144.523       -1452.134
 -10236949.522 6  -6546344.107 5  23335163.213       -2008.978
 92 11 17 15 47  0.0000000  0  6 23  3 20 16 17 26                   0.000305550
  11180888.689 6  -4309593.785 5  23190347.067       -3166.353
  -7323495.569 8  -5889472.911 7  21164707.280       -1583.530
   4542451.450 7   5553828.674 6  22091654.797        2924.069
   5757358.874 7   4516942.832 6  22233995.007        2589.604
  -7790398.980 7  -6321185.711 7  21525880.461       -1442.818
 -10297061.794 6  -6593184.814 5  23323724.149       -1998.487
 92 11 17 15 47 30.0000000  0  6 23  3 20 16 17 26                   0.000306800
  11086035.832 6  -4383505.087 5  23172297.375       -3157.146
  -7370888.389 8  -5926402.378 7  21155688.612       -1576.186
   4630361.709 7   5622330.088 6  22108383.455        2936.586
   5835259.742 7   4577644.726 6  22248819.230        2603.685
  -7833530.448 8  -6354794.643 7  21517672.843       -1432.542
 -10356852.589 6  -6639774.964 5  23312346.222       -1987.467
 92 11 17 15 48  0.0000000  0  6 23  3 20 16 17 26                   0.000308110
  10991462.843 6  -4457198.292 5  23154300.404       -3147.797
  -7418056.832 8  -5963157.011 7  21146712.815       -1568.650
   4718647.654 7   5691124.246 6  22125183.393        2949.085
   5913584.690 7   4638677.092 6  22263723.975        2617.898
  -7876342.273 7  -6388154.514 7  21509526.416       -1421.709
 -10416307.664 6  -6686103.560 5  23301032.022       -1976.463
 92 11 17 15 48 30.0000000  0  6 23  3 20 16 17 26                   0.000309490
  10897166.032 6  -4530676.328 5  23136355.965       -3138.584
  -7465000.072 8  -5999736.181 7  21137779.921       -1561.080
   4807305.491 7   5760208.192 6  22142054.564        2961.460
   5992335.998 7   4700041.661 6  22278709.880        2632.224
  -7918837.377 7  -6421267.587 7  21501439.851       -1411.348
 -10475436.120 6  -6732177.655 5  23289780.439       -1965.432
 92 11 17 15 49  0.0000000  0  6 23  3 20 16 17 26                   0.000310940
  10803142.180 6  -4603941.640 5  23118464.509       -3129.644
  -7511715.718 8  -6036137.984 7  21128890.302       -1553.559
   4896332.367 7   5829579.709 6  22158996.096        2973.593
   6071502.921 7   4761730.100 6  22293774.860        2645.431
  -7961024.862 7  -6454140.955 7  21493411.890       -1401.380
 -10534232.028 6  -6777992.588 5  23278591.829       -1954.243
 92 11 17 15 49 30.0000000  0  6 23  3 20 16 17 26                   0.000312410
  10709385.562 6  -4676998.716 5  23100623.490       -3120.867
  -7558204.599 8  -6072363.094 7  21120043.688       -1545.881
   4985722.794 7   5899234.486 6  22176006.891        2985.747
   6151059.732 7   4823722.340 6  22308913.919        2658.126
  -8002927.787 7  -6486792.593 7  21485437.823       -1392.407
 -10592679.904 6  -6823536.358 5  23267468.686       -1942.336
 92 11 17 15 50  0.0000000  0  6 23  3 20 16 17 26                   0.000313860
  10615890.689 6  -4749851.827 5  23082832.538       -3112.101
  -7604463.048 8  -6108408.636 7  21111241.020       -1538.251
   5075475.390 7   5969171.490 6  22193086.107        2997.700
   6230986.891 7   4886003.187 6  22324123.829        2670.269
  -8044576.020 7  -6519245.750 7  21477512.719       -1384.252
 -10650776.453 6  -6868806.370 5  23256413.405       -1930.939
 92 11 17 15 50 30.0000000  0  6 23  3 20 16 17 26                   0.000315250
  10522669.644 6  -4822491.604 5  23065092.865       -3102.719
  -7650490.153 8  -6144273.919 7  21102482.225       -1530.535
   5165586.106 7   6039387.548 6  22210233.416        3009.572
   6311269.198 7   4948560.748 6  22339401.113        2681.740
  -8085988.946 7  -6551515.566 7  21469631.984       -1376.731
 -10708527.483 6  -6913807.127 5  23245424.107       -1919.274
 92 11 17 15 51  0.0000000  0  6 23  3 20 16 17 26                   0.000316580
  10429722.923 6  -4894917.575 5  23047405.772       -3093.693
  -7696284.326 8  -6179957.703 7  21093767.988       -1522.697
   5256051.440 7   6109879.918 6  22227448.804        3021.384
   6391891.884 7   5011383.553 6  22354742.911        2693.080
  -8127173.479 7  -6583607.428 7  21461795.108       -1368.936
 -10765933.395 6  -6958539.003 5  23234500.741       -1907.700
 92 11 17 15 51 30.0000000  0  6 23  3 20 16 17 26                   0.000317820
  10337050.692 6  -4967129.668 5  23029770.567       -3084.375
  -7741842.154 8  -6215457.304 7  21085098.639       -1514.770
   5346869.709 7   6180647.309 6  22244731.491        3033.092
   6472862.200 7   5074477.225 6  22370150.997        2704.906
  -8168122.560 7  -6615515.829 7  21454002.503       -1360.842
 -10822984.250 6  -7002994.174 5  23223644.995       -1895.833
 92 11 17 15 52  0.0000000  0  6 23  3 20 16 17 26                   0.000319060
  10244666.766 6  -5039117.135 5  23012191.001       -3074.424
  -7787164.457 8  -6250773.415 7  21076474.061       -1506.821
   5438035.268 6   6251685.304 6  22262079.805        3044.730
   6554186.402 7   5137846.670 6  22385626.165        2716.843
  -8208815.599 7  -6647224.679 7  21446258.704       -1351.874
 -10879688.326 6  -7047179.181 5  23212854.393       -1884.354
 92 11 17 15 52 30.0000000  0  6 23  3 20 16 17 26                   0.000320310
  10152587.000 6  -5110867.564 5  22994668.752       -3064.290
  -7832245.747 8  -6285901.678 7  21067895.178       -1498.876
   5529549.002 6   6322994.612 6  22279494.165        3056.102
   6635873.315 7   5201498.736 6  22401170.943        2728.968
  -8249234.026 7  -6678719.560 7  21438566.639       -1342.656
 -10936042.415 6  -7091091.443 5  23202130.642       -1872.630
 92 11 17 15 53  0.0000000  0  6 23  3 20 16 17 26                   0.000321620
  10060814.216 6  -5182378.797 5  22977204.220       -3053.757
  -7877087.185 8  -6320843.071 7  21059362.297       -1490.817
   5621404.185 6   6394570.003 6  22296973.695        3067.498
   6717933.190 7   5265441.422 6  22416786.490        2741.631
  -8289364.824 7  -6709990.308 7  21430930.014       -1332.700
 -10992041.638 6  -7134727.213 5  23191474.086       -1860.480
 92 11 17 15 53 30.0000000  0  6 23  3 20 16 17 26                   0.000323080
   9969370.087 6  -5253633.948 5  22959802.379       -3042.415
  -7921688.980 8  -6355597.731 7  21050874.683       -1482.770
   5713596.041 6   6466407.703 6  22314517.111        3078.715
   6800374.706 7   5329681.506 6  22432474.631        2754.628
  -8329193.486 7  -6741025.635 7  21423350.895       -1322.495
 -11047668.086 6  -7178072.480 5  23180889.104       -1848.061
 92 11 17 15 54  0.0000000  0  6 23  3 20 16 17 26                   0.000324710
   9878267.864 6  -5324622.641 5  22942466.150       -3031.186
  -7966046.833 8  -6390162.286 7  21042433.875       -1474.572
   5806123.961 6   6538507.285 6  22332125.074        3089.831
   6883206.272 7   5394225.508 6  22448236.709        2767.640
  -8368717.739 7  -6771823.759 7  21415829.519       -1312.554
 -11102929.622 6  -7221133.405 5  23170373.365       -1835.948
 92 11 17 15 54 30.0000000  0  6 23  3 20 16 17 26                   0.000326520
   9787497.121 6  -5395353.071 5  22925193.268       -3020.174
  -8010161.572 8  -6424537.423 7  21034039.147       -1466.558
   5898981.980 6   6610864.068 6  22349794.859        3100.668
   6966432.530 7   5459077.074 6  22464074.673        2780.761
  -8407955.685 7  -6802398.782 7  21408363.120       -1303.283
 -11157819.114 6  -7263904.424 5  23159928.043       -1823.274
 92 11 17 15 55  0.0000000  0  6 23  3 20 16 17 26                   0.000328450
   9697054.543 6  -5465827.762 5  22907982.947       -3009.511
  -8054031.033 8  -6458721.428 7  21025690.908       -1458.287
   5992166.961 6   6683475.643 6  22367527.315        3111.625
   7050047.817 7   5524231.759 6  22479986.139        2793.404
  -8446920.386 7  -6832760.892 7  21400948.592       -1294.603
 -11212318.406 6  -7306371.401 5  23149557.075       -1809.986
 92 11 17 15 55 30.0000000  0  6 23  3 20 16 17 26                   0.000330410
   9606912.279 6  -5536068.460 5  22890829.589       -2999.867
  -8097655.866 8  -6492714.812 7  21017389.631       -1450.140
   6085673.601 6   6756337.859 6  22385321.254        3122.254
   7134031.501 7   5589673.512 6  22495967.637        2805.508
  -8485633.613 7  -6862927.042 7  21393581.753       -1286.342
 -11266429.019 6  -7348535.478 5  23139259.974       -1797.415
 92 11 17 15 56  0.0000000  0  6 23  3 20 16 17 26                   0.000332330
   9517054.240 6  -5606087.686 5  22873729.631       -2990.655
  -8141032.274 8  -6526514.623 7  21009135.348       -1441.739
   6179500.171 6   6829449.359 6  22403176.452        3132.895
   7218368.343 7   5655390.458 6  22512016.386        2816.951
  -8524104.482 7  -6892904.370 7  21386260.992       -1278.365
 -11320165.005 6  -7390407.667 5  23129034.523       -1784.655
 92 11 17 15 56 30.0000000  0  6 23  3 20 16 17 26                   0.000334180
   9427471.095 6  -5675892.714 5  22856681.590       -2981.659
  -8184158.094 8  -6560119.173 7  21000929.019       -1433.580
   6273643.673 7   6902807.825 6  22421091.510        3143.220
   7303042.537 7   5721370.273 6  22528129.699        2827.851
  -8562338.492 7  -6922697.087 7  21378985.167       -1270.509
 -11373511.329 6  -7431976.206 5  23118882.530       -1771.856
 92 11 17 15 57  0.0000000  0  6 23  3 20 16 17 26                   0.000335950
   9338152.496 6  -5745491.579 5  22839685.023       -2973.102
  -8227034.508 8  -6593529.383 7  20992769.900       -1425.150
   6368097.951 6   6976408.479 6  22439065.438        3153.608
   7388042.452 7   5787603.885 6  22544304.583        2838.751
  -8600331.036 7  -6952301.666 7  21371755.701       -1262.340
 -11426481.407 6  -7473251.555 5  23108802.391       -1759.659
 92 11 17 15 57 30.0000000  0  6 23  3 20 16 17 26                   0.000337680
   9249099.133 6  -5814883.800 5  22822739.075       -2963.678
  -8269661.444 8  -6626745.183 7  20984658.194       -1416.798
   6462858.315 6   7050247.619 6  22457098.453        3163.747
   7473375.895 7   5854097.397 6  22560543.041        2850.123
  -8638068.855 8  -6981707.759 7  21364574.291       -1253.491
 -11479094.361 6  -7514248.608 5  23098791.170       -1747.866
 92 11 17 15 58  0.0000000  0  6 23  3 20 16 17 26                   0.000339470
   9160333.049 6  -5884052.125 5  22805848.439       -2954.150
  -8312037.361 8  -6659765.387 7  20976594.324       -1408.476
   6557920.828 6   7124322.196 6  22475188.220        3173.680
   7559052.334 7   5920858.167 6  22576847.054        2861.636
  -8675542.720 8  -7010908.174 7  21357443.169       -1244.674
 -11531347.442 6  -7554965.260 5  23088847.316       -1735.564
 92 11 17 15 58 30.0000000  0  6 23  3 20 16 17 26                   0.000341300
   9071860.194 6  -5952992.005 5  22789012.145       -2943.954
  -8354162.316 8  -6692590.046 7  20968578.535       -1400.042
   6653280.145 6   7198628.050 6  22493334.548        3183.574
   7645074.235 7   5987888.128 6  22593216.251        2873.205
  -8712744.730 8  -7039896.776 7  21350363.591       -1235.440
 -11583229.531 6  -7595392.811 5  23078974.177       -1723.364
 92 11 17 15 59  0.0000000  0  6 23  3 20 16 17 26                   0.000343240
   8983701.314 6  -6021687.204 5  22772236.079       -2933.266
  -8396033.888 8  -6725217.250 7  20960610.563       -1391.660
   6748933.741 6   7273163.242 6  22511536.597        3193.250
   7731437.010 7   6055183.712 6  22609650.883        2884.059
  -8749672.492 8  -7068671.655 7  21343336.174       -1226.453
 -11634750.153 6  -7635538.712 5  23069169.934       -1711.340
 92 11 17 15 59 30.0000000  0  6 23  3 20 16 17 26                   0.000345240
   8895869.542 6  -6090127.517 5  22755521.849       -2922.209
  -8437653.009 8  -6757647.731 7  20952690.646       -1383.144
   6844875.718 6   7347923.111 6  22529793.908        3202.888
   7818120.208 7   6122728.974 6  22626146.124        2894.541
  -8786323.651 8  -7097230.992 7  21336361.952       -1216.950
 -11685901.885 6  -7675397.142 5  23059436.443       -1698.746
 92 11 17 16  0  0.0000000  0  6 23  3 20 16 17 26                   0.000347240
   8808362.091 6  -6158315.121 5  22738869.328       -2911.634
  -8479016.879 8  -6789879.332 7  20944819.534       -1374.611
   6941103.408 6   7422905.620 6  22548105.693        3212.319
   7905104.469 7   6190508.821 6  22642699.065        2904.401
  -8822693.286 8  -7125570.978 7  21329441.075       -1207.648
 -11736670.834 6  -7714957.334 5  23049775.553       -1685.900
 92 11 17 16  0 30.0000000  0  6 23  3 20 16 17 26                   0.000349250
   8721177.585 6  -6226251.070 5  22722278.980       -2900.850
  -8520123.272 8  -6821910.310 7  20936997.058       -1366.071
   7037614.399 6   7498108.904 6  22566470.899        3221.662
   7992381.904 7   6258517.105 6  22659307.648        2914.028
  -8858786.711 8  -7153695.724 7  21322572.681       -1198.687
 -11787051.868 6  -7754215.211 5  23040187.872       -1672.882
 92 11 17 16  1  0.0000000  0  6 23  3 20 16 17 26                   0.000351210
   8634309.249 6  -6293940.646 5  22705748.197       -2890.670
  -8560970.593 8  -6853739.398 7  20929223.829       -1357.372
   7134404.758 6   7573529.849 6  22584889.677        3230.934
   8079949.348 7   6326751.380 6  22675971.512        2923.665
  -8894612.781 8  -7181612.143 7  21315755.502       -1189.853
 -11837034.509 6  -7793162.704 5  23030676.465       -1659.271
 92 11 17 16  1 30.0000000  0  6 23  3 20 16 17 26                   0.000353130
   8547735.431 6  -6361400.748 5  22689274.639       -2880.905
  -8601559.866 8  -6885367.418 7  20921500.147       -1348.690
   7231468.039 6   7649163.480 6  22603359.482        3240.063
   8167814.101 7   6395217.335 6  22692691.507        2934.135
  -8930175.730 8  -7209323.531 7  21308988.173       -1180.997
 -11886602.036 6  -7831786.713 5  23021243.903       -1645.197
 92 11 17 16  2  0.0000000  0  6 23  3 20 16 17 26                   0.000355050
   8461452.102 6  -6428634.469 5  22672855.168       -2871.165
  -8641888.032 8  -6916791.981 7  20913826.019       -1340.005
   7328802.174 6   7725008.141 6  22621882.227        3248.914
   8255995.124 7   6463929.714 6  22709471.690        2944.778
  -8965484.217 8  -7236836.634 7  21302269.357       -1172.872
 -11935753.808 6  -7870086.778 5  23011890.758       -1631.598
 92 11 17 16  2 30.0000000  0  6 23  3 20 16 17 26                   0.000357000
   8375466.659 6  -6495636.091 5  22656492.148       -2861.274
  -8681952.701 8  -6948011.227 7  20906201.827       -1331.229
   7426404.701 6   7801061.964 6  22640455.219        3257.779
   8344500.346 7   6532894.726 6  22726313.920        2955.425
  -9000550.257 8  -7264160.816 7  21295596.716       -1164.892
 -11984500.730 6  -7908071.383 5  23002614.014       -1618.151
 92 11 17 16  3  0.0000000  0  6 23  3 20 16 17 26                   0.000358990
   8289777.481 6  -6562406.855 5  22640185.996       -2851.186
  -8721752.093 8  -6979023.762 7  20898628.450       -1322.108
   7524272.055 6   7877322.120 6  22659079.216        3266.752
   8433323.945 7   6602107.810 6  22743216.049        2966.213
  -9035374.125 8  -7291296.303 7  21288970.181       -1156.667
 -12032852.255 6  -7945747.887 5  22993413.172       -1605.157
 92 11 17 16  3 30.0000000  0  6 23  3 20 16 17 26                   0.000361040
   8204394.476 6  -6628939.027 6  22623938.224       -2840.836
  -8761280.461 8  -7009825.094 7  20891106.040       -1313.173
   7622405.061 6   7953789.271 6  22677753.499        3275.471
   8522467.820 7   6671570.468 6  22760179.506        2976.698
  -9069950.954 8  -7318239.302 7  21282390.478       -1148.366
 -12080817.262 6  -7983123.211 5  22984285.570       -1592.517
 92 11 17 16  4  0.0000000  0  6 23  3 20 16 17 26                   0.000363140
   8119332.498 6  -6695221.041 6  22607751.999       -2830.027
  -8800535.902 8  -7040413.771 7  20883636.211       -1304.174
   7720799.856 6   8030460.431 6  22696477.337        3284.020
   8611920.227 7   6741273.546 6  22777201.690        2986.605
  -9104280.168 8  -7344989.349 7  21275857.925       -1140.440
 -12128401.114 6  -8020201.541 5  22975230.612       -1579.696
 92 11 17 16  4 30.0000000  0  6 23  3 20 16 17 26                   0.000365260
   8034596.277 6  -6761249.230 6  22591627.391       -2818.939
  -8839519.951 8  -7070790.968 7  20876217.894       -1294.845
   7819449.849 6   8107330.447 6  22715250.528        3292.746
   8701667.204 7   6811206.172 6  22794280.259        2996.650
  -9138377.981 8  -7371559.072 7  21269368.992       -1132.608
 -12175585.038 6  -8056968.224 5  22966251.876       -1565.625
 92 11 17 16  5  0.0000000  0  6 23  3 20 16 17 26                   0.000367390
   7950189.227 6  -6827020.928 6  22575565.082       -2807.984
  -8878229.266 8  -7100954.080 7  20868851.515       -1285.790
   7918352.919 6   8184397.669 6  22734070.782        3300.993
   8791711.067 7   6881370.116 6  22811414.865        3006.518
  -9172239.792 8  -7397944.896 8  21262925.194       -1124.620
 -12222343.762 6  -8093403.591 5  22957353.944       -1551.373
 92 11 17 16  5 30.0000000  0  6 23  3 20 16 17 26                   0.000369520
   7866113.819 6  -6892534.200 6  22559565.326       -2796.887
  -8916664.943 8  -7130903.975 7  20861537.528       -1276.679
   8017502.704 6   8261657.108 6  22752938.768        3309.035
   8882050.250 7   6951764.191 6  22828605.625        3016.213
  -9205858.105 8  -7424140.987 8  21256527.702       -1116.555
 -12268660.052 6  -8129494.201 5  22948540.327       -1536.328
 92 11 17 16  6  0.0000000  0  6 23  3 20 16 17 26                   0.000371670
   7782371.316 6  -6957788.061 6  22543630.131       -2785.989
  -8954823.931 8  -7160638.264 7  20854276.096       -1267.431
   8116897.361 6   8339107.379 6  22771852.646        3317.184
   8972684.311 6   7022388.035 6  22845852.966        3025.937
  -9239238.649 8  -7450151.809 8  21250175.540       -1108.788
 -12314523.477 6  -8165231.924 5  22939812.846       -1521.184
 92 11 17 16  6 30.0000000  0  6 23  3 20 16 17 26                   0.000373810
   7698944.089 6  -7022796.269 6  22527754.361       -2775.788
  -8992704.671 8  -7190155.729 8  20847067.466       -1258.163
   8216533.164 6   8416745.570 6  22790812.700        3325.151
   9063607.416 6   7093237.102 6  22863155.418        3035.541
  -9272377.743 8  -7475974.487 8  21243869.015       -1100.397
 -12359933.732 6  -8200616.486 5  22931171.859       -1506.304
 92 11 17 16  7  0.0000000  0  6 23  3 20 16 17 26                   0.000375950
   7615824.679 6  -7087564.612 6  22511937.371       -2765.460
  -9030306.703 8  -7219456.024 8  20839912.099       -1248.859
   8316405.182 6   8494567.810 6  22809817.570        3332.956
   9154812.451 6   7164305.862 6  22880511.621        3044.744
  -9305256.540 8  -7501594.339 8  21237612.437       -1091.617
 -12404908.060 6  -8235661.370 5  22922613.917       -1492.036
 92 11 17 16  7 30.0000000  0  6 23  3 20 16 17 26                   0.000378090
   7533019.964 6  -7152087.715 6  22496180.179       -2754.882
  -9067627.552 8  -7248537.229 8  20832810.117       -1239.456
   8416510.684 6   8572571.993 6  22828867.312        3340.620
   9246290.440 6   7235587.309 6  22897919.492        3053.628
  -9337880.209 8  -7527015.390 8  21231404.603       -1083.469
 -12449455.502 6  -8270373.635 5  22914136.343       -1477.998
 92 11 17 16  8  0.0000000  0  6 23  3 20 16 17 26                   0.000380240
   7450537.360 6  -7216359.846 6  22480484.803       -2743.951
  -9104665.892 8  -7277398.287 8  20825762.086       -1230.017
   8516845.737 6   8650755.027 6  22847960.397        3348.279
   9338033.435 6   7307075.265 5  22915377.446        3062.429
  -9370263.773 8  -7552249.353 8  21225241.681       -1075.482
 -12493589.171 6  -8304763.448 5  22905737.499       -1464.318
 92 11 17 16  8 30.0000000  0  6 23  3 20 16 17 26                   0.000382400
   7368393.039 7  -7280368.378 6  22464852.986       -2732.292
  -9141418.273 8  -7306036.499 8  20818767.878       -1220.488
   8617408.606 6   8729115.588 6  22867096.727        3355.768
   9430037.529 6   7378766.658 5  22932885.202        3071.080
  -9402402.034 8  -7577292.155 8  21219125.963       -1067.223
 -12537311.228 6  -8338832.491 5  22897417.427       -1450.603
 92 11 17 16  9  0.0000000  0  6 23  3 20 16 17 26                   0.000384580
   7286603.075 7  -7344100.760 6  22449288.630       -2720.654
  -9177885.996 8  -7334452.929 7  20811828.601       -1211.048
   8718192.461 6   8807648.347 6  22886275.902        3362.956
   9522296.139 6   7450656.382 5  22950441.889        3079.270
  -9434298.865 8  -7602146.833 8  21213056.706       -1059.447
 -12580628.278 6  -8372585.994 5  22889174.313       -1437.366
 92 11 17 16  9 30.0000000  0  6 23  3 20 16 17 26                   0.000386750
   7205157.134 7  -7407565.112 6  22433789.959       -2709.296
  -9214067.784 8  -7362646.541 7  20804943.568       -1201.307
   8819192.903 6   8886349.878 6  22905495.233        3370.276
   9614802.023 6   7522738.789 5  22968044.925        3087.714
  -9465957.884 8  -7626816.221 8  21207032.376       -1051.167
 -12623547.634 6  -8406029.571 5  22881007.079       -1424.084
 92 11 17 16 10  0.0000000  0  6 23  3 20 16 17 26                   0.000388960
   7124038.673 7  -7470774.261 6  22418353.357       -2698.537
  -9249958.761 8  -7390613.537 7  20798113.714       -1191.566
   8920410.201 6   8965220.378 6  22924756.486        3377.490
   9707561.360 6   7595018.695 6  22985696.364        3096.292
  -9497363.999 8  -7651288.530 8  21201056.024       -1042.435
 -12666073.561 6  -8439166.603 5  22872914.752       -1410.839
 92 11 17 16 10 30.0000000  0  6 23  3 20 16 17 26                   0.000391190
   7043235.544 6  -7533737.698 6  22402976.952       -2688.224
  -9285559.788 8  -7418354.616 7  20791338.975       -1181.869
   9021838.029 6   9044254.937 6  22944057.425        3384.415
   9800571.676 6   7667494.158 6  23003396.031        3104.450
  -9528504.257 8  -7675553.666 8  21195130.277       -1033.478
 -12708199.135 6  -8471991.663 5  22864898.191       -1397.318
 92 11 17 16 11  0.0000000  0  6 23  3 20 16 17 26                   0.000393430
   6962734.447 6  -7596465.778 6  22387658.158       -2678.431
  -9320867.978 8  -7445867.507 7  20784620.495       -1172.099
   9123473.883 6   9123451.557 6  22963397.841        3391.329
   9893827.253 6   7740160.737 6  23021142.054        3112.827
  -9559378.541 8  -7699611.563 8  21189254.925       -1024.769
 -12749913.020 6  -8504495.916 5  22856960.476       -1383.465
 92 11 17 16 11 30.0000000  0  6 23  3 20 16 17 26                   0.000395710
   6882541.089 6  -7658954.070 6  22372397.531       -2667.694
  -9355880.651 8  -7473150.127 7  20777957.749       -1162.284
   9225315.337 6   9202808.431 6  22982777.756        3398.067
   9987340.141 6   7813027.807 6  23038936.876        3121.426
  -9589992.126 8  -7723466.304 8  21183429.607       -1016.241
 -12791199.377 6  -8536667.067 5  22849103.755       -1368.898
 92 11 17 16 12  0.0000000  0  6 23  3 20 16 17 26                   0.000398000
   6802682.878 6  -7721181.217 6  22357201.161       -2656.132
  -9390597.375 8  -7500202.115 8  20771350.984       -1152.401
   9327357.271 6   9282321.508 6  23002196.230        3404.729
  10081114.029 6   7886098.276 6  23056781.484        3130.108
  -9620356.161 8  -7747126.593 8  21177651.476       -1008.180
 -12832031.833 6  -8568484.508 5  22841334.004       -1353.295
 92 11 17 16 12 30.0000000  0  6 23  3 20 16 17 26                   0.000400300
   6723171.825 6  -7783137.837 6  22342070.667       -2644.510
  -9425019.367 8  -7527024.474 8  20764800.537       -1142.495
   9429593.682 6   9361986.106 5  23021651.249        3411.146
  10175140.348 6   7959365.408 6  23074674.794        3138.377
  -9650486.996 8  -7770605.179 8  21171917.928       -1000.518
 -12872398.152 6  -8599938.739 5  22833652.221       -1337.750
 92 11 17 16 13  0.0000000  0  6 23  3 20 16 17 26                   0.000402620
   6644015.956 7  -7844817.690 6  22327007.704       -2632.535
  -9459140.681 8  -7553612.518 8  20758307.631       -1132.481
   9532024.861 6   9441802.501 5  23041143.426        3417.541
  10269427.565 6   8032835.875 6  23092616.883        3147.533
  -9680389.903 8  -7793906.150 8  21166227.695        -993.136
 -12912296.770 6  -8631028.525 5  22826059.664       -1322.360
 92 11 17 16 13 30.0000000  0  6 23  3 20 16 17 26                   0.000404980
   6565220.708 7  -7906216.556 6  22312013.525       -2620.572
  -9492963.749 8  -7579968.152 8  20751871.338       -1122.504
   9634643.112 6   9521764.626 5  23060671.389        3423.710
  10363985.908 6   8106517.595 5  23110610.407        3156.273
  -9710070.768 8  -7817034.099 8  21160579.867        -985.452
 -12951745.719 6  -8661767.925 5  22818553.144       -1307.591
 92 11 17 16 14  0.0000000  0  6 23  3 20 16 17 26                   0.000407370
   6486765.993 7  -7967350.073 6  22297084.270       -2609.919
  -9526486.018 8  -7606089.432 8  20745492.576       -1112.584
   9737445.409 6   9601870.202 5  23080234.167        3429.713
  10458802.593 6   8180400.630 5  23128653.265        3164.720
  -9739524.183 8  -7839984.823 8  21154974.715        -978.082
 -12990762.034 6  -8692170.204 5  22811128.964       -1293.564
 92 11 17 16 14 30.0000000  0  6 23  3 20 16 17 26                   0.000409810
   6408633.464 7  -8028232.521 6  22282216.571       -2599.039
  -9559704.227 8  -7631973.755 8  20739171.360       -1102.270
   9840430.058 6   9682117.851 5  23099831.329        3435.816
  10553872.064 6   8254480.640 5  23146744.891        3173.109
  -9768748.550 8  -7862757.054 8  21149413.617        -970.297
 -13029356.825 6  -8722244.046 5  22803784.467       -1279.400
 92 11 17 16 15  0.0000000  0  6 23  3 20 16 17 26                   0.000412290
   6330826.054 7  -8088861.635 6  22267410.232       -2588.094
  -9592618.272 8  -7657621.066 8  20732907.777       -1092.094
   9943591.396 6   9762503.181 5  23119462.545        3441.645
  10649191.816 6   8328755.658 5  23164883.444        3181.458
  -9797749.972 8  -7885355.567 8  21143894.566        -963.035
 -13067526.813 6  -8751986.843 5  22796521.088       -1265.149
 92 11 17 16 15 30.0000000  0  6 23  3 20 16 17 26                   0.000414790
   6253345.941 7  -8149235.712 6  22252665.830       -2577.140
  -9625222.800 8  -7683027.201 8  20726703.470       -1081.662
  10046929.598 6   9843026.315 5  23139127.038        3447.589
  10744747.443 6   8403214.478 5  23183066.847        3188.787
  -9826519.620 8  -7907773.490 8  21138419.597        -954.942
 -13105259.716 6  -8781389.095 5  22789340.436       -1250.086
 92 11 17 16 16  0.0000000  0  6 23  3 20 16 17 26                   0.000417280
   6176197.643 6  -8209351.230 6  22237984.654       -2565.801
  -9657516.751 8  -7708191.344 8  20720558.045       -1071.398
  10150440.779 6   9923684.238 5  23158824.611        3453.236
  10840518.189 6   8477840.899 5  23201291.742        3195.948
  -9855064.192 8  -7930016.028 8  21132987.507        -947.977
 -13142526.750 6  -8810428.307 5  22782248.920       -1234.232
 92 11 17 16 16 30.0000000  0  6 23  3 20 16 17 26                   0.000419740
   6099407.616 7  -8269187.581 6  22223371.820       -2553.547
  -9689497.024 8  -7733111.039 8  20714472.678       -1060.826
  10254122.233 6  10004474.867 5  23178554.653        3458.848
  10936500.118 6   8552631.924 5  23219556.786        3202.798
  -9883393.185 8  -7952090.560 8  21127596.699        -940.697
 -13179306.083 6  -8839087.512 5  22775249.710       -1217.719
 92 11 17 16 17  0.0000000  0  6 23  3 20 16 17 26                   0.000422160
   6022982.739 7  -8328739.392 6  22208829.020       -2541.520
  -9721162.521 8  -7757785.454 8  20708447.210       -1050.448
  10357969.686 6  10085394.814 5  23198316.731        3464.333
  11032686.126 6   8627581.966 5  23237860.205        3209.460
  -9911508.770 8  -7973998.824 8  21122246.564        -933.547
 -13215599.141 6  -8867367.806 5  22768343.594       -1201.832
 92 11 17 16 17 30.0000000  0  6 23  3 20 16 17 26                   0.000424570
   5946920.408 7  -8388008.708 6  22194354.779       -2529.157
  -9752512.564 8  -7782214.084 8  20702481.589       -1039.748
  10461978.843 6  10166440.784 5  23218109.167        3469.711
  11129067.794 6   8702684.448 5  23256201.297        3216.061
  -9939399.330 8  -7995731.733 9  21116939.205        -925.867
 -13251413.570 6  -8895275.127 5  22761528.392       -1185.738
 92 11 17 16 18  0.0000000  0  6 23  3 20 16 17 26                   0.000426970
   5871232.480 7  -8446986.287 6  22179951.997       -2516.840
  -9783539.983 7  -7806391.306 8  20696576.808       -1028.991
  10566151.067 6  10247613.807 5  23237932.360        3475.099
  11225658.304 6   8777949.679 5  23274581.963        3223.289
  -9967062.524 8  -8017287.487 9  21111675.231        -918.339
 -13286748.541 6  -8922808.872 5  22754804.237       -1170.134
 92 11 17 16 18 30.0000000  0  6 23  3 20 16 17 26                   0.000429370
   5795904.206 7  -8505683.607 6  22165617.142       -2505.072
  -9814245.413 7  -7830317.638 8  20690733.493       -1018.311
  10670481.042 6  10328909.764 5  23257785.611        3480.174
  11322461.034 6   8853380.270 5  23293002.964        3230.304
  -9994490.203 8  -8038659.713 8  21106456.035        -910.175
 -13321626.674 6  -8949986.609 5  22748166.862       -1155.125
 92 11 17 16 19  0.0000000  0  6 23  3 20 16 17 26                   0.000431810
   5720930.231 7  -8564104.843 6  22151349.999       -2493.234
  -9844628.553 7  -7853992.811 8  20684951.647       -1007.527
  10774963.647 6  10410324.624 5  23277668.749        3485.246
  11419486.330 6   8928984.276 5  23311465.518        3238.011
 -10021671.153 8  -8059839.691 8  21101283.886        -901.823
 -13356059.076 6  -8976817.036 5  22741614.545       -1140.393
 92 11 17 16 19 30.0000000  0  6 23  3 20 16 17 26                   0.000434290
   5646313.044 7  -8622248.096 6  22137151.249       -2481.313
  -9874687.705 7  -7877415.537 8  20679231.575        -996.593
  10879595.182 6  10491855.580 5  23297579.049        3490.218
  11516738.620 6   9004765.179 5  23329972.685        3245.499
 -10048595.014 8  -8080819.334 8  21096160.474        -893.163
 -13390041.001 6  -9003296.435 5  22735148.116       -1125.100
 92 11 17 16 20  0.0000000  0  6 23  3 20 16 17 26                   0.000436800
   5572041.052 7  -8680122.330 6  22123017.794       -2470.069
  -9904420.826 7  -7900584.219 8  20673573.712        -985.683
  10984372.164 6  10573499.825 5  23317518.092        3494.975
  11614212.645 6   9080718.853 5  23348521.663        3252.755
 -10075268.569 8  -8101603.927 8  21091084.838        -884.977
 -13423570.155 6  -9029423.043 5  22728767.241       -1110.110
 92 11 17 16 20 30.0000000  0  6 23  3 20 16 17 26                   0.000439330
   5498112.020 7  -8737729.343 6  22108949.622       -2458.362
  -9933825.230 8  -7923496.743 8  20667978.705        -974.753
  11089291.883 6  10655255.289 5  23337483.427        3499.662
  11711892.218 6   9156832.704 5  23367109.527        3259.298
 -10101693.829 8  -8122195.045 8  21086056.280        -876.607
 -13456645.082 6  -9055195.689 5  22722473.179       -1094.767
 92 11 17 16 21  0.0000000  0  6 23  3 20 16 17 26                   0.000441860
   5424530.950 7  -8795065.208 6  22094947.556       -2447.054
  -9962901.795 8  -7946153.838 8  20662445.706        -963.749
  11194348.503 6  10737117.458 5  23357474.703        3504.273
  11809759.131 6   9233092.525 5  23385732.425        3265.190
 -10127872.191 8  -8142593.767 8  21081074.583        -868.469
 -13489260.348 6  -9080610.172 5  22716266.876       -1079.282
 92 11 17 16 21 30.0000000  0  6 23  3 20 16 17 26                   0.000444370
   5351280.214 7  -8852143.661 6  22081008.374       -2436.327
  -9991646.117 8  -7968552.029 8  20656975.863        -952.747
  11299540.935 6  10819085.442 5  23377492.152        3508.574
  11907788.862 6   9309479.214 5  23404386.672        3270.066
 -10153805.182 8  -8162801.303 8  21076140.101        -860.440
 -13521401.569 6  -9105655.253 5  22710150.390       -1063.436
 92 11 17 16 22  0.0000000  0  6 23  3 20 16 17 26                   0.000446860
   5278360.563 7  -8908964.145 6  22067132.033       -2424.764
 -10020058.411 8  -7990691.495 8  20651569.407        -941.572
  11404863.414 6  10901154.748 5  23397535.526        3512.995
  12005970.694 6   9385984.392 5  23423070.234        3275.413
 -10179500.746 8  -8182823.837 8  21071250.178        -852.557
 -13553068.847 6  -9130331.040 5  22704124.230       -1047.627
 92 11 17 16 22 30.0000000  0  6 23  3 20 16 17 26                   0.000449320
   5205793.158 7  -8965510.147 6  22053322.694       -2413.061
 -10048137.410 8  -8012571.247 8  20646226.274        -930.484
  11510312.188 6  10983322.481 5  23417602.231        3516.997
  12104313.863 6   9462615.343 5  23441784.320        3280.932
 -10204963.862 8  -8202665.235 8  21066404.605        -844.978
 -13584257.893 6  -9154634.150 5  22698189.471       -1031.655
 92 11 17 16 23  0.0000000  0  6 23  3 20 16 17 26                   0.000451790
   5133571.101 7  -9021787.042 6  22039578.988       -2401.728
 -10075883.396 8  -8034191.532 8  20640946.092        -919.344
  11615881.877 6  11065584.453 5  23437691.463        3521.024
  12202836.149 6   9539385.808 5  23460532.321        3287.381
 -10230207.436 8  -8222335.561 8  21061600.697        -837.891
 -13614970.671 6  -9178566.196 5  22692345.265       -1015.811
 92 11 17 16 23 30.0000000  0  6 23  3 20 16 17 26                   0.000454280
   5061699.145 7  -9077791.141 6  22025902.155       -2389.649
 -10103292.375 8  -8055549.200 8  20635730.311        -908.210
  11721571.034 6  11147939.473 5  23457802.918        3524.852
  12301559.637 6   9616313.070 5  23479320.003        3294.197
 -10255238.405 8  -8241840.224 9  21056837.436        -830.941
 -13645208.712 6  -9202128.255 5  22686591.347       -1000.176
 92 11 17 16 24  0.0000000  0  6 23  3 20 16 17 26                   0.000456820
   4990198.387 7  -9133506.001 6  22012296.414       -2377.145
 -10130364.984 8  -8076644.748 8  20630578.446        -896.889
  11827373.746 6  11230383.007 5  23477936.303        3528.595
  12400499.389 6   9693408.856 5  23498148.531        3301.767
 -10280070.034 8  -8261189.555 9  21052112.252        -824.602
 -13674979.187 6  -9225326.003 5  22680926.450        -984.543
 92 11 17 16 24 30.0000000  0  6 23  3 20 16 17 26                   0.000459380
   4919066.241 7  -9188933.630 6  21998760.124       -2365.187
 -10157098.146 8  -8097475.805 8  20625491.360        -885.531
  11933287.455 6  11312913.024 5  23498091.301        3532.269
  12499664.045 6   9770679.911 5  23517018.141        3308.984
 -10304708.892 8  -8280388.670 9  21047423.445        -817.877
 -13704275.940 6  -9248154.627 5  22675351.561        -968.682
 92 11 17 16 25  0.0000000  0  6 23  3 20 16 17 26                   0.000461990
   4848292.106 7  -9244082.272 6  21985291.929       -2353.057
 -10183491.913 8  -8118042.401 8  20620469.127        -874.209
  12039307.274 6  11395525.734 5  23518266.586        3535.737
  12599032.059 6   9848109.392 5  23535928.134        3315.495
 -10329135.727 8  -8299422.580 9  21042775.238        -810.507
 -13733101.450 6  -9270616.026 5  22669866.515        -952.857
 92 11 17 16 25 30.0000000  0  6 23  3 20 16 17 26                   0.000464600
   4777885.590 7  -9298944.472 6  21971894.273       -2340.713
 -10209545.709 8  -8138344.056 8  20615511.160        -862.937
  12145428.480 6  11478217.457 5  23538460.536        3539.052
  12698579.211 6   9925678.464 5  23554871.021        3320.927
 -10353336.912 8  -8318280.646 9  21038170.098        -802.930
 -13761446.918 6  -9292703.369 5  22664472.403        -936.828
 92 11 17 16 26  0.0000000  0  6 23  3 20 16 17 26                   0.000467210
   4707839.855 7  -9353525.540 6  21958564.620       -2329.210
 -10235259.497 8  -8158380.786 8  20610617.917        -851.692
  12251645.276 6  11560983.635 5  23558672.739        3541.933
  12798281.456 6  10003368.400 5  23573843.790        3325.618
 -10377311.216 8  -8336961.940 9  21033607.795        -795.376
 -13789312.250 6  -9314416.600 5  22659169.845        -920.996
 92 11 17 16 26 30.0000000  0  6 23  3 20 16 17 26                   0.000469790
   4638133.404 7  -9407842.228 6  21945300.086       -2317.832
 -10260635.732 8  -8178154.498 8  20605788.839        -840.168
  12357950.373 6  11643818.638 5  23578901.988        3545.085
  12898108.800 6  10081155.829 5  23592840.597        3329.559
 -10401051.343 8  -8355460.751 9  21029090.302        -787.165
 -13816705.598 6  -9335762.042 5  22653957.013        -905.268
 92 11 17 16 27  0.0000000  0  6 23  3 20 16 17 26                   0.000472350
   4568770.454 7  -9461891.260 6  21932100.741       -2306.255
 -10285669.602 8  -8197661.427 8  20601025.187        -828.886
  12464343.322 6  11726722.090 5  23599148.900        3547.862
  12998048.566 6  10159030.832 5  23611858.592        3333.371
 -10424553.983 8  -8373774.504 9  21024618.197        -779.764
 -13843635.154 7  -9356746.087 5  22648832.288        -889.906
 92 11 17 16 27 30.0000000  0  6 23  3 20 16 17 26                   0.000474880
   4499760.764 7  -9515665.027 7  21918968.415       -2294.392
 -10310359.020 8  -8216899.954 8  20596326.620        -817.275
  12570820.659 6  11809691.299 5  23619410.910        3550.611
  13098109.340 6  10237000.143 5  23630899.658        3337.435
 -10447844.240 8  -8391922.768 9  21020185.978        -772.937
 -13870102.651 6  -9377370.088 5  22643795.677        -874.583
 92 11 17 16 28  0.0000000  0  6 23  3 20 16 17 26                   0.000477400
   4431102.391 7  -9569165.045 7  21905903.779       -2282.624
 -10334704.014 8  -8235870.098 8  20591694.146        -805.835
  12677377.285 6  11892722.286 5  23639687.973        3553.211
  13198293.907 6  10315065.921 5  23649964.167        3341.692
 -10470938.851 8  -8409918.575 9  21015791.071        -766.549
 -13896110.206 6  -9397635.695 6  22638846.304        -859.016
 92 11 17 16 28 30.0000000  0  6 23  3 20 16 17 26                   0.000479910
   4362809.720 7  -9622380.076 7  21892908.267       -2270.209
 -10358702.116 8  -8254569.946 8  20587127.906        -794.254
  12784010.126 6  11975812.674 5  23659980.540        3555.654
  13298614.716 6  10393237.851 5  23669055.077        3346.511
 -10493841.300 8  -8427764.652 9  21011432.987        -760.265
 -13921646.163 6  -9417533.824 6  22633987.066        -843.243
 92 11 17 16 29  0.0000000  0  6 23  3 20 16 17 26                   0.000482420
   4294894.582 7  -9675300.937 7  21879984.540       -2257.476
 -10382353.625 8  -8272999.709 8  20582626.753        -782.692
  12890713.841 6  12058958.239 5  23680285.251        3557.923
  13399093.458 6  10471532.840 5  23688174.978        3352.049
 -10516552.636 8  -8445461.800 9  21007111.600        -753.840
 -13946704.249 6  -9437059.576 6  22629219.038        -827.192
 92 11 17 16 29 30.0000000  0  6 23  3 20 16 17 26                   0.000484950
   4227360.753 7  -9727924.693 7  21867133.290       -2244.980
 -10405656.981 8  -8291158.190 8  20578192.854        -771.071
  12997484.877 6  12142156.290 5  23700603.537        3560.112
  13499737.577 6  10549956.700 5  23707326.740        3357.561
 -10539073.120 8  -8463010.239 9  21002826.065        -747.352
 -13971276.081 6  -9456206.443 6  22624543.125        -810.900
 92 11 17 16 30  0.0000000  0  6 23  3 20 16 17 26                   0.000487490
   4160196.359 7  -9780260.550 7  21854352.238       -2232.771
 -10428609.057 8  -8309042.952 8  20573824.778        -759.338
  13104321.210 6  12225405.210 5  23720933.725        3562.228
  13600547.314 6  10628509.644 5  23726510.738        3363.018
 -10561386.725 8  -8480397.489 9  20998580.406        -740.241
 -13995350.425 6  -9474965.650 6  22619961.736        -794.189
 92 11 17 16 30 30.0000000  0  6 23  3 20 16 17 26                   0.000490050
   4093397.768 7  -9832311.377 7  21841640.895       -2220.581
 -10451209.271 8  -8326653.518 8  20569524.375        -747.630
  13211217.913 6  12308701.186 5  23741275.616        3564.151
  13701519.976 6  10707189.495 5  23745725.298        3368.214
 -10583481.988 8  -8497614.584 9  20994375.436        -732.916
 -14018930.831 6  -9493339.968 6  22615473.696        -777.947
 92 11 17 16 31  0.0000000  0  6 23  3 20 16 17 26                   0.000492610
   4026962.660 7  -9884078.967 7  21828998.537       -2208.448
 -10473456.492 8  -8343989.032 8  20565290.955        -735.744
  13318170.660 6  12392040.817 5  23761628.329        3566.069
  13802636.532 6  10785981.507 5  23764967.326        3372.761
 -10605354.801 8  -8514658.355 9  20990213.197        -725.422
 -14042021.313 6  -9511332.546 6  22611079.984        -761.420
 92 11 17 16 31 30.0000000  0  6 23  3 20 16 17 26                   0.000495160
   3960888.553 7  -9935565.246 7  21816425.303       -2196.511
 -10495346.556 8  -8361046.250 8  20561125.162        -723.758
  13425179.114 6  12475423.843 5  23781991.001        3567.859
  13903882.629 6  10864874.411 5  23784234.076        3376.877
 -10627011.044 8  -8531533.372 9  20986092.681        -718.335
 -14064603.326 6  -9528928.907 6  22606782.099        -744.155
 92 11 17 16 32  0.0000000  0  6 23  3 20 16 17 26                   0.000497700
   3895172.024 7  -9986772.901 7  21803919.852       -2184.449
 -10516878.246 7  -8377824.195 8  20557027.118        -711.848
  13532239.139 6  12558847.090 5  23802363.249        3569.462
  14005243.186 6  10943856.548 5  23803521.954        3380.570
 -10648451.199 8  -8548239.999 9  20982012.932        -711.219
 -14086676.628 6  -9546128.855 6  22602582.458        -727.451
 92 11 17 16 32 30.0000000  0  6 23  3 20 16 17 26                   0.000500210
   3829823.816 7 -10037693.560 7  21791484.207       -2172.022
 -10538050.076 8  -8394321.730 8  20552998.258        -699.779
  13639346.848 6  12642307.458 5  23822745.626        3571.033
  14106710.273 6  11022921.677 5  23822830.667        3383.938
 -10669688.256 8  -8564788.392 9  20977972.121        -704.628
 -14108247.456 6  -9562937.271 6  22598477.141        -710.751
 92 11 17 16 33  0.0000000  0  6 23  3 20 16 17 26                   0.000502710
   3764841.618 7 -10088329.005 7  21779118.528       -2160.125
 -10558859.950 8  -8410537.246 8  20549038.377        -687.701
  13746498.661 5  12725802.215 5  23843135.690        3572.474
  14208283.581 6  11102069.600 5  23842159.588        3387.710
 -10690731.832 8  -8581185.996 9  20973967.634        -698.245
 -14129317.234 6  -9579355.262 6  22594466.996        -693.954
 92 11 17 16 33 30.0000000  0  6 23  3 20 16 17 26                   0.000505190
   3700209.611 7 -10138691.574 7  21766819.295       -2148.557
 -10579307.354 8  -8426470.291 8  20545147.788        -675.584
  13853690.497 6  12809328.104 5  23863534.533        3573.689
  14309967.546 6  11181303.716 5  23861509.381        3391.269
 -10711587.092 8  -8597436.862 9  20969998.234        -691.982
 -14149883.899 6  -9595381.234 6  22590553.226        -677.327
 92 11 17 16 34  0.0000000  0  6 23  3 20 16 17 26                   0.000507660
   3635928.029 7 -10188781.093 7  21754586.874       -2136.876
 -10599390.597 8  -8442119.574 8  20541326.466        -663.439
  13960918.751 6  12892882.391 5  23883938.921        3574.856
  14411761.700 6  11260623.708 5  23880879.405        3395.315
 -10732250.444 8  -8613538.200 9  20966065.801        -685.508
 -14169964.052 7  -9611028.081 6  22586732.247        -661.144
 92 11 17 16 34 30.0000000  0  6 23  3 20 16 17 26                   0.000510130
   3571988.943 7 -10238603.725 7  21742419.835       -2125.666
 -10619108.827 8  -8457484.432 8  20537574.303        -651.304
  14068179.427 5  12976461.965 5  23904350.087        3575.819
  14513678.299 6  11340039.104 5  23900273.602        3399.201
 -10752720.470 8  -8629488.890 9  20962170.662        -679.037
 -14189549.625 7  -9626289.566 6  22583005.362        -644.535
 92 11 17 16 35  0.0000000  0  6 23  3 20 16 17 26                   0.000512600
   3508386.232 7 -10288164.250 7  21730316.496       -2114.448
 -10638462.509 8  -8472565.235 8  20533891.742        -639.162
  14175466.476 5  13060062.070 5  23924766.114        3576.609
  14615714.073 6  11419547.370 5  23919691.219        3403.050
 -10772991.116 8  -8645284.227 9  20958313.210        -672.310
 -14208631.845 6  -9641158.812 6  22579374.594        -627.613
 92 11 17 16 35 30.0000000  0  6 23  3 20 16 17 26                   0.000515070
   3445131.100 7 -10337453.935 7  21718279.666       -2102.402
 -10657449.507 8  -8487360.302 8  20530278.694        -626.785
  14282777.026 5  13143680.494 5  23945186.701        3577.418
  14717864.124 6  11499144.700 5  23939128.985        3407.066
 -10793057.857 8  -8660920.660 9  20954494.245        -665.351
 -14227211.492 6  -9655636.467 6  22575839.810        -611.000
 92 11 17 16 36  0.0000000  0  6 23  3 20 16 17 26                   0.000517540
   3382241.747 7 -10386458.602 7  21706312.211       -2090.193
 -10676064.724 8  -8501865.676 8  20526735.998        -614.375
  14390110.839 5  13227317.005 5  23965610.891        3578.123
  14820134.829 6  11578836.019 5  23958590.450        3411.060
 -10812917.548 8  -8676395.759 9  20950715.012        -658.574
 -14245301.742 6  -9669732.734 6  22572397.573        -594.863
 92 11 17 16 36 30.0000000  0  6 23  3 20 16 17 26                   0.000520030
   3319727.736 7 -10435170.794 7  21694416.088       -2077.197
 -10694308.951 8  -8516081.963 8  20523263.941        -601.921
  14497462.520 5  13310967.482 5  23986040.220        3578.683
  14922515.255 6  11658612.832 5  23978073.379        3414.356
 -10832573.884 8  -8691712.407 9  20946974.381        -651.650
 -14262906.990 6  -9683451.112 6  22569046.703        -578.694
 92 11 17 16 37  0.0000000  0  6 23  3 20 16 17 26                   0.000522500
   3257608.763 7 -10483575.167 7  21682595.434       -2063.996
 -10712180.024 8  -8530007.475 8  20519862.764        -589.464
  14604828.642 5  13394629.185 5  24006471.949        3579.212
  15024990.462 6  11738463.525 5  23997573.487        3417.475
 -10852022.137 8  -8706866.905 9  20943273.365        -644.640
 -14280036.494 6  -9696798.785 6  22565787.754        -563.100
 92 11 17 16 37 30.0000000  0  6 23  3 20 16 17 26                   0.000524980
   3195885.234 7 -10531671.413 7  21670849.985       -2050.956
 -10729668.742 8  -8543635.065 8  20516534.938        -576.627
  14712213.407 5  13478305.417 5  24026906.332        3579.874
  15127565.430 6  11818391.945 5  24017093.555        3420.852
 -10871254.304 8  -8721853.015 9  20939613.779        -637.539
 -14296695.760 6  -9709780.028 6  22562616.814        -547.314
 92 11 17 16 38  0.0000000  0  6 23  3 20 16 17 26                   0.000527460
   3134550.928 7 -10579464.351 7  21659178.173       -2038.049
 -10746773.868 8  -8556963.731 8  20513280.031        -563.839
  14819612.953 5  13561993.160 5  24047344.090        3580.246
  15230235.159 6  11898394.150 5  24036631.806        3423.657
 -10890279.379 8  -8736677.773 9  20935993.751        -630.730
 -14312867.409 6  -9722381.331 6  22559539.365        -530.548
 92 11 17 16 38 30.0000000  0  6 23  3 20 16 17 26                   0.000529920
   3073600.875 7 -10626957.890 7  21647579.623       -2025.347
 -10763495.566 8  -8569993.625 8  20510097.935        -551.040
  14927022.113 5  13645688.427 5  24067782.663        3580.421
  15332983.343 6  11978457.561 5  24056184.262        3426.425
 -10909096.734 8  -8751340.657 9  20932413.112        -623.795
 -14328521.562 6  -9734579.375 6  22556560.885        -512.926
 92 11 17 16 39  0.0000000  0  6 23  3 20 16 17 26                   0.000532370
   3013021.944 7 -10674162.234 7  21636051.454       -2013.338
 -10779830.937 8  -8582722.516 8  20506989.626        -538.170
  15034438.886 5  13729389.569 5  24088225.616        3580.634
  15435822.648 6  12058591.941 5  24075753.760        3429.551
 -10927713.712 8  -8765847.394 9  20928869.904        -617.445
 -14343652.880 6  -9746370.018 6  22553681.843        -495.798
 92 11 17 16 39 30.0000000  0  6 23  3 20 16 17 26                   0.000534810
   2952802.632 7 -10721086.370 7  21624591.936       -2001.096
 -10795779.455 8  -8595149.956 8  20503954.707        -525.153
  15141858.340 5  13813092.841 5  24108666.052        3580.742
  15538755.807 6  12138799.429 5  24095342.270        3432.581
 -10946151.670 8  -8780214.638 9  20925361.035        -611.692
 -14358267.855 6  -9757758.326 6  22550900.745        -478.358
 92 11 17 16 40  0.0000000  0  6 23  3 20 16 17 26                   0.000537220
   2892962.033 7 -10767715.394 7  21613204.690       -1988.305
 -10811336.043 8  -8607271.996 8  20500994.438        -512.072
  15249280.708 5  13896798.390 5  24129107.517        3580.764
  15641772.055 6  12219071.679 5  24114945.758        3435.262
 -10964412.057 8  -8794443.526 9  20921886.108        -605.603
 -14372352.883 6  -9768733.693 6  22548220.674        -460.772
 92 11 17 16 40 30.0000000  0  6 23  3 20 16 17 26                   0.000539630
   2833501.507 7 -10814048.251 7  21601890.061       -1975.735
 -10826498.680 8  -8619087.078 8  20498109.075        -498.938
  15356702.852 5  13980503.734 5  24149548.858        3580.714
  15744871.401 6  12299408.695 5  24134565.317        3438.160
 -10982490.944 8  -8808530.976 9  20918446.299        -599.661
 -14385929.545 6  -9779312.899 6  22545637.101        -444.472
 92 11 17 16 41  0.0000000  0  6 23  3 20 16 17 26                   0.000542040
   2774420.433 7 -10860085.432 7  21590647.176       -1962.995
 -10841263.715 8  -8630592.328 8  20495299.409        -485.628
  15464123.636 5  14064208.053 5  24169990.490        3580.558
  15848053.836 6  12379810.446 5  24154199.827        3440.505
 -11000391.288 8  -8822479.310 9  20915040.427        -593.631
 -14399022.197 6  -9789514.979 6  22543145.634        -428.322
 92 11 17 16 41 30.0000000  0  6 23  3 20 16 17 26                   0.000544430
   2715721.624 7 -10905824.750 7  21579477.171       -1950.154
 -10855632.964 7  -8641789.160 8  20492564.713        -472.379
  15571536.280 5  14147905.994 5  24190431.135        3580.337
  15951288.860 6  12460253.153 5  24173845.147        3442.029
 -11018101.817 8  -8836279.736 9  20911670.582        -586.783
 -14411617.466 7  -9799329.463 6  22540748.776        -411.127
 92 11 17 16 42  0.0000000  0  6 23  3 20 16 17 26                   0.000546790
   2657407.000 7 -10951264.701 7  21568380.072       -1937.521
 -10869601.750 8  -8652673.960 8  20489906.703        -458.981
  15678940.283 5  14231597.221 5  24210870.430        3579.971
  16054575.090 6  12540735.740 5  24193499.469        3443.745
 -11035598.389 8  -8849913.446 9  20908341.197        -579.648
 -14423689.938 7  -9808736.589 6  22538451.474        -393.707
 92 11 17 16 42 30.0000000  0  6 23  3 20 16 17 26                   0.000549140
   2599466.056 7 -10996413.471 7  21557354.073       -1925.158
 -10883166.401 7  -8663243.849 8  20487325.621        -445.534
  15786334.209 5  14315280.591 5  24231306.238        3579.535
  16157921.902 6  12621265.576 5  24213165.204        3445.871
 -11052879.284 8  -8863379.085 9  20905052.513        -572.321
 -14435234.920 7  -9817732.681 6  22536254.564        -375.847
 92 11 17 16 43  0.0000000  0  6 23  3 20 16 17 26                   0.000551470
   2541899.274 7 -11041270.694 7  21546399.568       -1912.645
 -10896324.595 7  -8673497.008 8  20484821.693        -431.937
  15893715.753 5  14398954.309 5  24251740.372        3579.139
  16261331.604 6  12701844.419 5  24232843.019        3448.177
 -11069933.067 8  -8876667.759 9  20901807.371        -564.682
 -14446231.147 7  -9826301.192 6  22534161.903        -357.119
 92 11 17 16 43 30.0000000  0  6 23  3 20 16 17 26                   0.000553790
   2484704.540 7 -11085837.995 7  21535515.802       -1900.394
 -10909072.471 7  -8683430.433 8  20482395.963        -418.116
  16001083.741 5  14482617.434 5  24272171.493        3578.594
  16364822.448 6  12782486.444 5  24252536.926        3451.411
 -11086755.640 8  -8889776.265 9  20898606.235        -557.041
 -14456660.556 7  -9834428.008 6  22532176.867        -338.332
 92 11 17 16 44  0.0000000  0  6 23  3 20 16 17 26                   0.000556130
   2427872.913 7 -11130122.378 7  21524701.058       -1888.501
 -10921407.873 7  -8693042.453 8  20480048.477        -404.501
  16108435.487 5  14566267.929 5  24292599.982        3577.955
  16468422.356 6  12863213.452 5  24272252.289        3455.196
 -11103365.755 8  -8902719.216 9  20895445.654        -550.443
 -14466537.310 7  -9842124.163 6  22530297.400        -320.338
 92 11 17 16 44 30.0000000  0  6 23  3 20 16 17 26                   0.000558500
   2371395.156 7 -11174131.004 7  21513954.209       -1876.661
 -10933331.877 7  -8702333.921 8  20477779.308        -390.761
  16215764.375 5  14649900.620 5  24313024.243        3577.190
  16572137.367 6  12944030.190 5  24291988.937        3459.172
 -11119774.112 8  -8915504.963 9  20892323.107        -543.546
 -14475886.169 7  -9849408.976 6  22528518.281        -303.080
 92 11 17 16 45  0.0000000  0  6 23  3 20 16 17 26                   0.000560890
   2315274.756 7 -11217861.179 7  21503274.512       -1864.639
 -10944843.684 7  -8711304.187 8  20475588.624        -376.836
  16323066.795 5  14733512.683 5  24333444.523        3576.358
  16675972.534 6  13024940.505 5  24311748.538        3463.152
 -11135981.858 8  -8928134.386 9  20889238.830        -537.113
 -14484724.334 6  -9856295.884 6  22526836.716        -286.211
 92 11 17 16 45 30.0000000  0  6 23  3 20 16 17 26                   0.000563300
   2259518.536 7 -11261307.573 7  21492664.699       -1852.341
 -10955937.636 7  -8719948.856 8  20473477.327        -362.893
  16430343.453 5  14817104.633 5  24353857.957        3575.417
  16779916.400 6  13105935.580 5  24331529.046        3466.280
 -11152000.236 8  -8940616.252 9  20886190.547        -530.749
 -14493065.254 6  -9862795.285 6  22525249.556        -269.984
 92 11 17 16 46  0.0000000  0  6 23  3 20 16 17 26                   0.000565730
   2204143.570 7 -11304456.883 7  21482127.494       -1839.188
 -10966611.683 7  -8728266.327 8  20471446.272        -348.826
  16537591.648 5  14900674.435 5  24374266.806        3574.450
  16883941.356 5  13186993.794 5  24351323.755        3468.586
 -11167823.277 8  -8952945.909 9  20883179.416        -523.878
 -14500923.263 6  -9868918.410 6  22523754.017        -253.865
 92 11 17 16 46 30.0000000  0  7 23  3 20 21 16 17 26                0.000568290
   2149173.823 7 -11347290.449 7  21471666.945       -1825.318
 -10976863.090 7  -8736254.443 8  20469495.572        -334.774
  16644809.018 5  14984220.248 5  24394670.032        3573.316
  -2347942.84515   -233838.66011  24619850.435       -3157.577
  16988017.306 6  13268091.740 5  24371128.224        3469.775
 -11183430.149 8  -8965107.112 9  20880209.493        -516.692
 -14508299.511 6  -9874666.115 6  22522350.760        -237.739
 92 11 17 16 47  0.0000000  0  7 23  3 20 21 16 17 26                0.000570700
   2094624.760 7 -11389796.220 7  21461286.620       -1811.420
 -10986689.865 7  -8743911.694 8  20467625.656        -320.579
  16751992.793 5  15067739.802 5  24415066.521        3572.221
  -2442610.564 5   -307602.782 1  24601836.826       -3153.660
  17092122.323 5  13349212.417 5  24390938.681        3470.312
 -11198823.343 8  -8977101.815 9  20877280.188        -509.513
 -14515179.447 7  -9880027.096 6  22521041.655        -220.854
 92 11 17 16 47 30.0000000  0  7 23  3 20 21 16 17 26                0.000573070
   2040492.380 7 -11431977.265 7  21450985.242       -1797.343
 -10996089.955 7  -8751236.453 8  20465837.155        -306.205
  16859140.175 5  15151231.090 5  24435456.334        3571.092
  -2537163.447 5   -381280.242 3  24583843.510       -3149.722
  17196242.960 5  13430345.193 5  24410751.063        3471.108
 -11213990.752 8  -8988920.590 9  20874394.036        -501.558
 -14521543.784 6  -9884986.306 6  22519830.658        -203.336
 92 11 17 16 48  0.0000000  0  7 23  3 20 21 16 17 26                0.000575420
   1986777.124 7 -11473833.296 7  21440763.549       -1783.772
 -11005058.262 7  -8758224.781 8  20464130.558        -291.861
  16966251.534 5  15234694.242 5  24455839.873        3569.666
  -2631588.512 5   -454858.112 4  24565875.727       -3145.289
  17300393.166 5  13511501.038 5  24430569.626        3472.295
 -11228920.763 8  -9000554.371 9  20871553.175        -493.771
 -14527372.539 6  -9889528.178 6  22518721.325        -185.160
 92 11 17 16 48 30.0000000  0  7 23  3 20 21 16 17 26                0.000577770
   1933461.214 7 -11515378.154 7  21430617.861       -1770.617
 -11013595.783 7  -8764877.398 8  20462505.833        -277.412
  17073321.109 5  15318124.866 5  24476214.590        3568.397
  -2725873.402 5   -528326.726 4  24547934.004       -3140.197
  17404587.902 6  13592691.606 5  24450399.544        3474.184
 -11243624.489 8  -9012011.829 9  20868755.160        -486.507
 -14532646.932 6  -9893638.096 6  22517717.349        -166.354
 92 11 17 16 49  0.0000000  0  7 23  3 20 21 16 17 26                0.000580120
   1880531.519 7 -11556622.052 7  21420545.793       -1758.072
 -11021699.322 7  -8771191.866 8  20460963.789        -263.094
  17180347.199 5  15401521.605 5  24496580.912        3566.751
  -2820009.553 5   -601679.476 5  24530020.357       -3135.592
  17508849.220 5  13673934.025 5  24470241.064        3476.512
 -11258113.581 8  -9023302.046 9  20865997.900        -479.415
 -14537352.529 6  -9897304.776 6  22516821.830        -147.392
 92 11 17 16 49 30.0000000  0  7 23  3 20 21 16 17 26                0.000582470
   1827986.259 7 -11597566.394 7  21410547.016       -1744.793
 -11029368.916 7  -8777168.184 8  20459504.659        -248.513
  17287325.047 5  15484880.750 5  24516937.255        3565.068
  -2914004.220 5   -674921.973 5  24512133.910       -3130.675
  17613176.558 5  13755227.882 5  24490094.655        3478.717
 -11272390.679 8  -9034427.068 9  20863281.019        -472.483
 -14541490.298 6  -9900529.011 6  22516034.404        -128.499
 92 11 17 16 50  0.0000000  0  7 23  3 20 21 16 17 26                0.000584820
   1775849.330 7 -11638192.547 7  21400625.696       -1731.026
 -11036599.560 7  -8782802.473 8  20458128.583        -233.779
  17394255.052 5  15568202.649 5  24537286.089        3563.495
  -3007832.751 5   -748034.976 5  24494278.772       -3124.694
  17717574.131 5  13836576.494 5  24509961.180        3480.952
 -11286458.255 8  -9045388.822 9  20860604.043        -465.563
 -14545062.321 7  -9903312.402 6  22515354.918        -109.811
 92 11 17 16 50 30.0000000  0  7 23  3 20 21 16 17 26                0.000587190
   1724130.573 7 -11678492.875 7  21390783.519       -1716.848
 -11043387.708 7  -8788091.958 8  20456836.777        -219.005
  17501136.039 5  15651486.279 5  24557624.664        3561.814
  -3101490.109 5   -821014.603 5  24476455.454       -3119.191
  17822038.458 5  13917977.066 5  24529839.946        3483.130
 -11300326.717 8  -9056195.434 9  20857964.980        -459.034
 -14548079.240 7  -9905663.250 6  22514781.001         -91.496
 92 11 17 16 51  0.0000000  0  7 23  3 20 21 16 17 26                0.000589560
   1672838.390 7 -11718460.791 7  21381023.037       -1702.600
 -11049733.127 7  -8793036.465 8  20455629.383        -204.226
  17607963.385 5  15734728.191 5  24577954.015        3560.042
  -3194983.668 5   -893866.639 5  24458664.750       -3113.747
  17926555.276 6  13999418.581 5  24549728.794        3484.615
 -11313996.097 8  -9066846.896 9  20855363.561        -452.174
 -14550555.693 6  -9907592.959 6  22514309.556         -73.706
 92 11 17 16 51 30.0000000  0  7 23  3 20 21 16 17 26                0.000591930
   1621978.139 7 -11758092.152 7  21371344.768       -1688.125
 -11055633.043 7  -8797633.808 8  20454506.560        -189.239
  17714735.111 5  15817926.662 5  24598272.845        3558.109
  -3288308.346 5   -966587.026 5  24440905.777       -3107.684
  18031114.946 5  14080893.530 5  24569624.880        3486.212
 -11327456.681 8  -9077335.677 9  20852802.244        -445.232
 -14552508.191 6  -9909114.378 6  22513938.095         -56.370
 92 11 17 16 52  0.0000000  0  7 23  3 20 21 16 17 26                0.000594300
   1571534.006 7 -11797399.246 7  21361745.460       -1674.889
 -11061085.911 7  -8801882.814 8  20453468.729        -174.366
  17821448.288 5  15901079.667 5  24618579.956        3556.109
  -3381452.311 5  -1039166.637 5  24423180.853       -3102.096
  18135726.764 5  14162409.035 5  24589531.805        3487.845
 -11340720.303 8  -9087670.982 9  20850278.414        -438.998
 -14553942.005 6  -9910231.652 6  22513665.264         -39.132
 92 11 17 16 52 30.0000000  0  7 23  3 20 21 16 17 26                0.000596680
   1521481.659 7 -11836401.070 7  21352220.813       -1662.074
 -11066090.345 7  -8805782.397 8  20452516.226        -159.424
  17928099.260 5  15984184.114 5  24638875.583        3553.964
  -3474445.199 5  -1111628.532 5  24405485.449       -3097.496
  18240381.212 5  14243957.825 5  24609445.924        3488.989
 -11353798.169 8  -9097861.529 9  20847789.687        -432.736
 -14554855.109 7  -9910943.162 6  22513491.636         -21.677
 92 11 17 16 53  0.0000000  0  7 23  3 20 21 16 17 26                0.000599050
   1471808.042 7 -11875107.760 7  21342768.300       -1649.689
 -11070644.752 7  -8809331.302 8  20451649.707        -144.402
  18034685.212 5  16067237.903 5  24659157.859        3551.662
  -3567296.646 5  -1183980.191 5  24387815.511       -3092.722
  18345064.629 5  14325529.155 5  24629365.925        3489.912
 -11366678.263 8  -9107897.985 9  20845338.371        -425.991
 -14555242.191 7  -9911244.799 6  22513417.823          -4.085
 92 11 17 16 53 30.0000000  0  7 23  3 20 21 16 17 26                0.000601410
   1422500.648 7 -11913529.087 7  21333384.874       -1637.594
 -11074745.909 7  -8812527.006 8  20450869.306        -129.235
  18141204.344 5  16150239.570 5  24679427.511        3549.555
  -3660000.745 5  -1256217.050 5  24370174.311       -3087.624
  18449778.556 5  14407124.235 5  24649291.911        3490.942
 -11379362.632 8  -9117781.923 9  20842924.544        -419.759
 -14555098.610 7  -9911132.931 6  22513445.056          13.775
 92 11 17 16 54  0.0000000  0  7 23  3 20 21 16 17 26                0.000603770
   1373551.611 7 -11951671.186 7  21324070.314       -1625.566
 -11078390.658 7  -8815367.119 8  20450176.067        -114.012
  18247655.637 5  16233188.520 5  24699684.586        3547.186
  -3752554.607 5  -1328336.823 5  24352561.171       -3082.844
  18554522.473 5  14488742.759 5  24669224.971        3491.780
 -11391860.351 8  -9127520.410 9  20840546.181        -413.293
 -14554411.330 6  -9910597.421 6  22513575.656          31.968
 92 11 17 16 54 30.0000000  0  7 23  3 20 21 16 17 26                0.000606120
   1324976.954 7 -11989521.543 7  21314826.751       -1612.785
 -11081577.045 7  -8817850.038 8  20449569.918         -98.677
  18354036.674 5  16316082.636 5  24719928.868        3544.783
  -3844965.823 5  -1400345.451 5  24334975.977       -3077.837
  18659285.899 5  14570376.457 5  24689160.529        3492.452
 -11404149.679 8  -9137096.526 9  20838207.428        -406.048
 -14553180.261 7  -9909638.169 6  22513809.934          50.088
 92 11 17 16 55  0.0000000  0  7 23  3 20 21 16 17 26                0.000608470
   1276787.946 7 -12027071.408 7  21305657.231       -1599.634
 -11084307.039 7  -8819977.327 8  20449050.466         -83.431
  18460340.690 5  16398916.699 5  24740156.697        3542.178
  -3937219.170 5  -1472231.088 5  24317420.940       -3072.349
  18764079.685 6  14652033.717 5  24709102.077        3493.864
 -11416221.015 8  -9146502.767 9  20835910.438        -398.640
 -14551405.748 7  -9908255.456 6  22514147.589          68.261
 92 11 17 16 55 30.0000000  0  7 23  3 20 21 16 17 26                0.000610830
   1229008.987 7 -12064301.744 8  21296565.184       -1585.514
 -11086575.809 7  -8821745.214 8  20448618.675         -67.950
  18566567.981 5  16481690.975 5  24760372.003        3539.609
  -4029305.270 5  -1543986.352 5  24299897.775       -3066.794
  18868923.473 5  14733730.137 5  24729054.023        3495.636
 -11428066.892 8  -9155733.319 9  20833656.400        -391.135
 -14549079.932 7  -9906443.149 6  22514590.385          86.717
 92 11 17 16 56  0.0000000  0  7 23  3 20 21 16 17 26                0.000613200
   1181665.117 7 -12101193.065 8  21287555.933       -1570.561
 -11088381.628 7  -8823152.376 8  20448275.101         -52.607
  18672715.748 5  16564403.376 5  24780570.471        3536.894
  -4121232.294 5  -1615617.707 5  24282405.444       -3061.644
  18973819.229 6  14815466.823 5  24749016.064        3497.251
 -11439678.298 8  -9164781.192 9  20831446.968        -382.926
 -14546197.896 6  -9904197.423 6  22515138.985         105.433
 92 11 17 16 56 30.0000000  0  7 23  3 20 21 16 17 26                0.000615560
   1134774.282 7 -12137731.348 8  21278632.730       -1555.605
 -11089723.795 7  -8824198.231 8  20448019.742         -37.162
  18778779.988 5  16647050.570 5  24800753.973        3534.041
  -4213006.745 5  -1687130.151 5  24264941.141       -3056.647
  19078760.273 5  14897238.901 5  24768986.021        3498.937
 -11451047.148 8  -9173640.053 9  20829283.588        -375.267
 -14542754.188 7  -9901514.033 6  22515794.421         124.081
 92 11 17 16 57  0.0000000  0  7 23  3 20 21 16 17 26                0.000617930
   1088330.189 7 -12173921.530 8  21269794.598       -1540.780
 -11090601.582 7  -8824882.235 8  20447852.687         -21.688
  18884757.412 5  16729630.266 5  24820922.613        3531.071
  -4304623.065 5  -1758519.430 5  24247506.842       -3051.282
  19183753.623 6  14979051.782 5  24788965.456        3500.437
 -11462193.640 8  -9182325.636 9  20827162.473        -368.100
 -14538752.851 6  -9898396.131 6  22516555.854         142.525
 92 11 17 16 57 30.0000000  0  7 23  3 20 21 16 17 26                0.000620300
   1042319.936 7 -12209773.666 8  21261039.189       -1526.800
 -11091012.840 7  -8825202.743 8  20447774.662          -6.106
  18990645.839 5  16812140.514 5  24841071.437        3528.069
  -4396078.185 5  -1829783.049 5  24230101.997       -3045.807
  19288784.521 5  15060893.842 5  24808953.700        3501.432
 -11473135.772 8  -9190851.987 9  20825080.185        -361.621
 -14534203.747 6  -9894851.375 6  22517421.045         160.572
 92 11 17 16 58  0.0000000  0  7 23  3 20 21 16 17 26                0.000622660
    996715.039 7 -12245309.926 8  21252360.726       -1513.718
 -11090957.581 7  -8825159.669 8  20447784.744           9.622
  19096440.299 5  16894577.557 5  24861203.522        3525.047
  -4487364.337 5  -1900915.041 5  24212730.803       -3039.924
  19393836.323 5  15142752.305 5  24828944.211        3502.162
 -11483890.026 8  -9199231.938 9  20823033.764        -355.386
 -14529111.083 7  -9890883.091 6  22518390.468         178.972
 92 11 17 16 58 30.0000000  0  7 23  3 20 21 16 17 26                0.000625030
    951481.488 7 -12280556.831 8  21243753.066       -1501.801
 -11090432.615 7  -8824750.636 8  20447884.755          25.315
  19202139.762 5  16976940.549 5  24881319.067        3521.775
  -4578472.366 5  -1971908.232 5  24195393.578       -3033.889
  19498907.472 5  15224625.761 5  24848939.428        3502.846
 -11494466.083 8  -9207473.037 9  20821021.285        -349.628
 -14523471.832 6  -9886488.884 6  22519463.879         197.126
 92 11 17 16 59  0.0000000  0  7 23  3 20 21 16 17 26                0.000627410
    906608.624 7 -12315522.689 8  21235214.029       -1489.633
 -11089434.158 7  -8823972.652 8  20448074.793          41.195
  19307743.633 5  17059229.104 5  24901414.144        3518.560
  -4669390.015 6  -2042753.060 5  24178093.284       -3027.456
  19603995.619 5  15306512.436 5  24868936.124        3502.929
 -11504862.579 8  -9215574.228 9  20819042.967        -343.401
 -14517287.521 7  -9881669.964 6  22520640.583         215.392
 92 11 17 16 59 30.0000000  0  6 23  3 20 21 17 26                   0.000629800
    862097.016 7 -12350207.047 8  21226743.772       -1477.585
 -11087961.309 7  -8822824.986 8  20448355.369          56.901
  19413248.032 5  17141440.065 5  24921490.888        3515.144
  -4760120.643 6  -2113452.177 5  24160828.178       -3021.263
 -11515071.550 8  -9223529.284 9  20817100.401        -337.013
 -14510544.661 6  -9876415.792 6  22521923.758         234.211
 92 11 17 17  0  0.0000000  0  6 23  3 20 21 17 26                   0.000632200
    817964.019 7 -12384596.393 8  21218345.595       -1464.581
 -11086013.910 7  -8821307.560 8  20448725.912          72.774
  19518649.159 5  17223570.691 5  24941548.236        3511.615
  -4850670.019 6  -2184010.062 5  24143597.490       -3015.632
 -11525079.922 8  -9231328.034 9  20815195.669        -330.092
 -14503236.768 6  -9870721.333 6  22523314.264         253.008
 92 11 17 17  0 30.0000000  0  5 23  3 21 17 26                      0.000634640
    774230.809 7 -12418674.205 8  21210023.437       -1450.736
 -11083591.157 7  -8819419.723 8  20449186.831          88.616
  -4941054.018 6  -2254439.097 5  24126398.024       -3010.025
 -11534873.918 8  -9238959.731 9  20813331.851        -322.796
 -14495372.007 6  -9864592.956 6  22524810.768         271.301
 92 11 17 17  1  0.0000000  0  5 23  3 21 17 26                      0.000637040
    730930.776 7 -12452414.483 8  21201783.343       -1436.081
 -11080688.438 7  -8817157.869 8  20449739.240         104.600
  -5031276.363 5  -2324742.144 5  24109229.073       -3004.880
 -11544446.786 8  -9246419.125 9  20811510.332        -315.444
 -14486962.193 6  -9858039.864 6  22526410.949         289.270
 92 11 17 17  1 30.0000000  0  5 23  3 21 17 26                      0.000639400
    688067.637 7 -12485814.334 8  21193626.796       -1421.521
 -11077302.886 7  -8814519.809 8  20450383.515         120.827
  -5121338.581 5  -2394920.474 5  24092090.512       -2999.325
 -11553793.351 8  -9253702.192 9  20809731.931        -307.693
 -14478010.887 6  -9851064.807 6  22528114.432         307.207
 92 11 17 17  2  0.0000000  0  5 23  3 21 17 26                      0.000641720
    645640.228 7 -12518874.636 8  21185553.436       -1407.326
 -11073435.811 7  -8811506.538 8  20451119.077         136.698
  -5211246.402 6  -2464978.454 5  24074981.176       -2994.548
 -11562911.946 8  -9260807.602 9  20807996.406        -300.325
 -14468532.488 6  -9843679.070 6  22529917.845         324.624
 92 11 17 17  2 30.0000000  0  5 23  3 21 17 26                      0.000644010
    603630.328 7 -12551609.628 8  21177559.173       -1393.177
 -11069088.255 7  -8808118.844 8  20451946.455         153.047
  -5300997.417 6  -2534914.223 5  24057901.838       -2988.563
 -11571808.274 8  -9267739.830 9  20806303.663        -292.744
 -14458523.977 6  -9835880.223 6  22531821.752         342.656
 92 11 17 17  3  0.0000000  0  5 23  3 21 17 26                      0.000646290
    562039.218 7 -12584018.274 8  21169644.510       -1379.444
 -11064252.593 7  -8804350.843 8  20452866.776         169.332
  -5390566.676 6  -2604708.414 5  24040857.379       -2982.367
 -11580482.130 8  -9274498.684 9  20804653.068        -285.274
 -14447969.952 6  -9827656.305 6  22533830.355         361.097
 92 11 17 17  3 30.0000000  0  5 23  3 21 17 26                      0.000648600
    520858.659 7 -12616107.005 8  21161808.085       -1365.937
 -11058926.678 7  -8800200.815 8  20453880.142         185.568
  -5479943.578 6  -2674352.688 5  24023849.648       -2976.013
 -11588933.943 8  -9281084.526 9  20803044.881        -278.232
 -14436855.437 6  -9818995.646 6  22535945.680         379.731
 92 11 17 17  4  0.0000000  0  5 23  3 21 17 26                      0.000650900
    480087.523 7 -12647876.711 8  21154049.445       -1352.218
 -11053109.949 7  -8795668.331 8  20454987.046         202.095
  -5569131.161 6  -2743849.458 5  24006877.385       -2969.574
 -11597180.319 8  -9287510.287 9  20801475.779        -271.539
 -14425185.794 6  -9809902.420 6  22538166.112         398.295
 92 11 17 17  4 30.0000000  0  5 23  3 21 17 26                      0.000653210
    439721.873 7 -12679330.455 8  21146368.045       -1338.611
 -11046799.060 7  -8790750.778 8  20456188.186         218.539
  -5658114.031 6  -2813186.709 5  23989944.182       -2962.629
 -11605233.552 8  -9293785.534 9  20799943.559        -265.286
 -14412967.696 6  -9800381.835 6  22540491.161         416.289
 92 11 17 17  5  0.0000000  0  5 23  3 21 17 26                      0.000655520
    399766.563 7 -12710464.445 8  21138765.087       -1325.083
 -11039994.096 7  -8785448.241 8  20457482.929         235.019
  -5746895.036 6  -2882366.650 5  23973049.516       -2956.109
 -11613102.357 8  -9299917.090 9  20798446.286        -259.312
 -14400207.518 7  -9790438.843 6  22542919.802         434.453
 92 11 17 17  5 30.0000000  0  5 23  3 21 17 26                      0.000657830
    360213.649 7 -12741284.891 8  21131238.088       -1311.828
 -11032691.343 7  -8779757.803 8  20458872.586         251.659
  -5835477.260 6  -2951391.714 5  23956193.303       -2949.459
 -11620787.284 8  -9305905.354 9  20796983.829        -253.013
 -14386900.400 7  -9780069.662 6  22545452.267         452.686
 92 11 17 17  6  0.0000000  0  5 23  3 21 17 26                      0.000660140
    321056.905 7 -12771796.616 8  21123787.116       -1298.571
 -11024889.384 7  -8773678.398 8  20460357.329         268.325
  -5923860.690 6  -3020261.864 5  23939374.495       -2942.675
 -11628276.147 8  -9311740.843 9  20795558.765        -246.186
 -14373041.821 7  -9769270.785 6  22548089.541         471.319
 92 11 17 17  6 30.0000000  0  5 23  3 21 17 26                      0.000662490
    282302.838 7 -12801994.565 8  21116412.672       -1284.914
 -11016586.008 7  -8767208.258 8  20461937.493         285.030
  -6012038.120 6  -3088971.507 5  23922595.478       -2935.951
 -11635553.144 8  -9317411.240 9  20794174.143        -238.828
 -14358610.478 7  -9758025.580 6  22550835.782         490.832
 92 11 17 17  7  0.0000000  0  5 23  3 21 17 26                      0.000664860
    243962.522 7 -12831870.145 8  21109116.712       -1271.020
 -11007781.461 7  -8760347.589 8  20463613.016         301.860
  -6100026.044 6  -3157533.482 5  23905851.458       -2929.698
 -11642602.709 8  -9322904.416 9  20792832.480        -230.920
 -14343583.842 7  -9746316.523 6  22553695.033         510.961
 92 11 17 17  7 30.0000000  0  5 23  3 21 17 26                      0.000667270
    206043.829 7 -12861417.158 8  21101900.998       -1256.714
 -10998471.493 7  -8753093.093 8  20465384.677         318.636
  -6187822.300 5  -3225946.101 5  23889144.475       -2923.401
 -11649405.721 8  -9328205.486 9  20791537.929        -222.549
 -14327966.033 7  -9734146.823 6  22556667.561         530.370
 92 11 17 17  8  0.0000000  0  5 23  3 21 17 26                      0.000669670
    168562.761 7 -12890623.163 8  21094768.545       -1241.941
 -10988655.943 7  -8745444.634 8  20467252.387         335.515
  -6275432.242 5  -3294213.559 5  23872472.053       -2917.240
 -11655961.395 8  -9333313.819 9  20790290.439        -214.687
 -14311768.223 7  -9721525.156 6  22559749.802         549.397
 92 11 17 17  8 30.0000000  0  5 23  3 21 17 26                      0.000672070
    131526.126 7 -12919482.889 8  21087720.625       -1227.123
 -10978332.473 7  -8737400.409 8  20469216.774         352.571
  -6362859.967 5  -3362338.996 5  23855835.886       -2911.205
 -11662286.339 8  -9338242.367 9  20789086.526        -206.938
 -14295004.266 7  -9708462.347 6  22562939.862         568.041
 92 11 17 17  9  0.0000000  0  5 23  3 21 17 26                      0.000674440
     94926.854 7 -12948001.785 8  21080756.174       -1212.964
 -10967499.462 7  -8728959.127 8  20471278.208         369.457
  -6450107.622 5  -3430324.129 5  23839232.982       -2905.145
 -11668387.340 8  -9342996.415 9  20787925.580        -199.838
 -14277698.238 7  -9694977.159 6  22566233.064         585.593
 92 11 17 17  9 30.0000000  0  5 23  3 21 17 26                      0.000676760
     58749.131 7 -12976192.211 8  21073871.853       -1198.944
 -10956154.040 7  -8720118.563 8  20473437.205         386.592
  -6537168.872 6  -3498164.021 5  23822665.109       -2898.990
 -11674279.012 8  -9347587.350 9  20786804.164        -193.111
 -14259874.089 7  -9681088.233 6  22569624.639         602.741
 92 11 17 17 10  0.0000000  0  5 23  3 21 17 26                      0.000679050
     22982.006 7 -13004062.683 8  21067065.234       -1185.491
 -10944299.723 7  -8710881.459 8  20475692.964         403.540
  -6624045.154 6  -3565859.790 5  23806133.576       -2892.630
 -11679984.053 8  -9352032.868 9  20785718.168        -187.049
 -14241534.033 7  -9666797.297 6  22573114.779         619.947
 92 11 17 17 10 30.0000000  0  5 23  3 21 17 26                      0.000681310
    -12382.091 7 -13031619.114 8  21060335.695       -1172.092
 -10931934.231 7  -8701246.040 8  20478046.094         420.644
  -6710723.508 6  -3633401.300 5  23789639.513       -2885.878
 -11685494.878 8  -9356327.030 9  20784669.502        -180.190
 -14222676.947 7  -9652103.498 6  22576703.261         637.249
 92 11 17 17 11  0.0000000  0  5 23  3 21 17 26                      0.000683570
    -47344.537 7 -13058862.575 8  21053682.699       -1158.785
 -10919055.099 7  -8691210.371 8  20480497.007         437.835
  -6797191.315 6  -3700778.755 5  23773185.897       -2878.650
 -11690793.749 8  -9360456.045 9  20783661.250        -173.099
 -14203294.381 7  -9637000.233 6  22580391.561         655.053
 92 11 17 17 11 30.0000000  0  5 23  3 21 17 26                      0.000685830
    -81899.912 7 -13085788.828 8  21047107.090       -1144.906
 -10905659.568 7  -8680772.328 8  20483046.130         454.990
  -6883440.027 6  -3767985.487 5  23756772.282       -2871.298
 -11695876.907 8  -9364416.968 9  20782694.021        -165.731
 -14183367.724 7  -9621472.999 6  22584183.523         673.498
 92 11 17 17 12  0.0000000  0  5 23  3 21 17 26                      0.000688130
   -116047.208 7 -13112397.107 8  21040608.900       -1131.509
 -10891749.709 7  -8669933.493 7  20485693.350         472.225
  -6969466.479 6  -3835019.017 5  23740401.911       -2863.779
 -11700734.252 8  -9368201.927 9  20781769.939        -157.888
 -14162880.480 7  -9605508.935 6  22588082.287         692.483
 92 11 17 17 12 30.0000000  0  5 23  3 21 17 26                      0.000690470
   -149790.274 7 -13138690.390 8  21034187.774       -1118.175
 -10877319.728 7  -8658689.365 7  20488439.289         489.472
  -7055271.008 6  -3901879.640 5  23724072.480       -2856.698
 -11705349.386 8  -9371798.149 9  20780891.789        -149.937
 -14141815.374 7  -9589094.591 6  22592090.830         711.834
 92 11 17 17 13  0.0000000  0  5 23  3 21 17 26                      0.000692850
   -183136.966 7 -13164674.832 8  21027841.747       -1104.968
 -10862372.567 7  -8647042.243 7  20491283.638         506.791
  -7140866.772 6  -3968577.569 5  23707784.974       -2849.791
 -11709731.818 8  -9375213.062 9  20780058.035        -142.314
 -14120170.319 7  -9572228.349 6  22596209.410         731.143
 92 11 17 17 13 30.0000000  0  5 23  3 21 17 26                      0.000695250
   -216083.274 7 -13190347.272 8  21021572.278       -1091.532
 -10846903.764 7  -8634988.640 7  20494227.192         524.308
  -7226259.851 6  -4035117.570 5  23691534.852       -2842.971
 -11713880.008 8  -9378445.423 9  20779268.811        -134.195
 -14097945.922 7  -9554910.671 6  22600438.811         750.457
 92 11 17 17 14  0.0000000  0  5 23  3 21 17 26                      0.000697680
   -248635.405 7 -13215712.555 8  21015377.907       -1078.663
 -10830910.704 7  -8622526.543 7  20497270.606         541.641
  -7311447.674 5  -4101497.628 5  23675323.905       -2836.227
 -11717785.052 8  -9381488.335 9  20778525.825        -126.376
 -14075149.639 7  -9537147.364 6  22604777.009         769.099
 92 11 17 17 14 30.0000000  0  5 23  3 21 17 26                      0.000700120
   -280788.276 7 -13240766.736 9  21009259.812       -1064.824
 -10814393.213 7  -8609655.788 7  20500413.708         559.287
  -7396421.788 5  -4167711.156 5  23659153.618       -2828.694
 -11721458.569 8  -9384350.838 9  20777827.150        -118.599
 -14051800.746 7  -9518953.449 6  22609219.951         787.254
 92 11 17 17 15  0.0000000  0  5 23  3 21 17 26                      0.000702570
   -312521.307 7 -13265493.777 9  21003221.411       -1050.677
 -10797349.393 7  -8596374.919 7  20503656.832         576.836
  -7481167.018 6  -4233746.321 5  23643027.061       -2820.866
 -11724906.203 8  -9387037.318 9  20777171.044        -111.212
 -14027916.410 7  -9500342.308 6  22613765.195         805.181
 92 11 17 17 15 30.0000000  0  5 23  3 21 17 26                      0.000705010
   -343830.673 7 -13289890.674 9  20997263.367       -1036.613
 -10779777.465 7  -8582682.537 7  20507000.876         594.406
  -7565673.496 6  -4299595.487 5  23626945.488       -2812.957
 -11728136.569 8  -9389554.499 9  20776556.381        -104.268
 -14003490.082 7  -9481308.835 6  22618413.370         823.299
 92 11 17 17 16  0.0000000  0  5 23  3 21 17 26                      0.000707460
   -374714.040 7 -13313955.647 9  20991386.345       -1022.270
 -10761678.248 7  -8568579.271 7  20510445.076         612.078
  -7649946.379 6  -4365262.616 5  23610909.529       -2805.251
 -11731170.777 8  -9391918.847 9  20775979.050         -98.218
 -13978519.143 7  -9461851.007 6  22623164.856         841.433
 92 11 17 17 16 30.0000000  0  5 23  3 21 17 26                      0.000709900
   -405158.722 7 -13337678.763 9  20985593.015       -1007.421
 -10743048.628 7  -8554062.705 7  20513990.272         629.732
  -7733987.849 6  -4430749.391 5  23594917.227       -2797.625
 -11734030.456 8  -9394147.195 9  20775434.984         -92.319
 -13953002.221 7  -9441967.704 6  22628021.188         859.756
 92 11 17 17 17  0.0000000  0  5 23  3 21 17 26                      0.000712320
   -435165.244 7 -13361060.469 9  20979882.879        -993.110
 -10723889.497 7  -8539133.553 7  20517635.967         647.384
  -7817817.393 6  -4496071.074 5  23578965.382       -2790.922
 -11736713.474 8  -9396237.875 9  20774923.970         -86.499
 -13926927.028 7  -9421649.400 6  22632983.320         878.585
 92 11 17 17 17 30.0000000  0  5 23  3 21 17 26                      0.000714720
   -464746.377 7 -13384110.701 9  20974253.336        -978.999
 -10704195.635 7  -8523787.727 7  20521383.451         665.176
  -7901448.675 6  -4561238.235 5  23563050.905       -2784.647
 -11739217.679 8  -9398189.227 9  20774447.450         -80.503
 -13900287.966 7  -9400891.709 6  22638052.532         897.045
 92 11 17 17 18  0.0000000  0  5 23  3 21 17 26                      0.000717090
   -493899.369 7 -13406827.306 9  20968705.136        -964.564
 -10683967.041 7  -8508025.214 7  20525232.989         683.187
  -7984886.264 6  -4626254.485 5  23547173.749       -2777.677
 -11741536.678 8  -9399996.273 9  20774006.223         -73.937
 -13873101.650 7  -9379707.590 6  22643225.543         915.391
 92 11 17 17 18 30.0000000  0  5 23  3 21 17 26                      0.000719440
   -522626.079 7 -13429211.751 9  20963238.792        -950.510
 -10663199.374 7  -8491842.635 7  20529185.030         701.156
  -8068112.608 6  -4691106.124 5  23531336.065       -2770.721
 -11743644.576 8  -9401638.810 9  20773604.952         -66.349
 -13845366.677 7  -9358095.950 6  22648502.888         933.741
 92 11 17 17 19  0.0000000  0  5 23  3 21 17 26                      0.000721800
   -550935.923 7 -13451271.370 9  20957851.761        -936.942
 -10641891.101 7  -8475238.819 7  20533239.964         719.084
  -8151129.945 6  -4755794.880 5  23515538.182       -2763.771
 -11745516.766 8  -9403097.685 9  20773248.548         -58.560
 -13817077.935 7  -9336052.792 6  22653885.831         951.992
 92 11 17 17 19 30.0000000  0  5 23  3 21 17 26                      0.000724150
   -578838.308 7 -13473013.489 9  20952542.287        -923.209
 -10620042.839 7  -8458214.227 7  20537397.536         737.157
  -8233932.317 6  -4820316.188 5  23499781.490       -2756.276
 -11747148.736 8  -9404369.378 9  20772938.125         -50.214
 -13788243.749 7  -9313584.601 6  22659372.532         970.288
 92 11 17 17 20  0.0000000  0  5 23  3 21 17 26                      0.000726530
   -606331.205 7 -13494436.509 9  20947310.818        -909.752
 -10597651.702 7  -8440766.598 7  20541658.188         755.376
  -8316498.539 6  -4884653.444 5  23484069.143       -2748.001
 -11748523.982 8  -9405441.013 9  20772676.286         -41.380
 -13758855.431 6  -9290684.637 6  22664965.092         988.993
 92 11 17 17 20 30.0000000  0  5 23  3 21 17 26                      0.000728950
   -633420.680 7 -13515545.198 9  20942155.895        -896.294
 -10574711.694 7  -8422891.282 7  20546023.513         773.720
  -8398820.529 6  -4948800.396 5  23468404.383       -2740.189
 -11749626.589 8  -9406300.196 9  20772466.382         -32.218
 -13728911.142 7  -9267351.417 6  22670663.545        1007.250
 92 11 17 17 21  0.0000000  0  5 23  3 21 17 26                      0.000731390
   -660112.247 7 -13536343.814 9  20937076.634        -883.045
 -10551226.072 7  -8404590.823 7  20550492.610         791.852
  -8480906.109 6  -5012763.157 5  23452784.215       -2732.149
 -11750464.010 8  -9406952.756 9  20772307.104         -23.587
 -13698420.936 6  -9243592.839 6  22676465.381        1025.359
 92 11 17 17 21 30.0000000  0  5 23  3 21 17 26                      0.000733840
   -686400.095 7 -13556827.827 9  20932074.087        -869.545
 -10527192.200 7  -8385863.141 7  20555066.145         810.239
  -8562745.090 6  -5076533.732 5  23437210.829       -2723.677
 -11751043.780 8  -9407404.535 9  20772196.948         -15.145
 -13667388.817 6  -9219411.990 6  22682371.130        1043.475
 92 11 17 17 22  0.0000000  0  6 23  3 21 28 17 26                   0.000736270
   -712281.803 7 -13576995.394 9  20927148.867        -855.698
 -10502606.944 7  -8366705.831 7  20559744.645         828.697
  -8644330.292 6  -5140106.566 5  23421685.656       -2715.334
   -765566.20616   -766484.39415  24887421.875       -3495.312
 -11751378.564 8  -9407665.424 9  20772132.952          -7.211
 -13635812.295 6  -9194806.921 6  22688380.360        1061.730
 92 11 17 17 22 30.0000000  0  6 23  3 21 28 17 26                   0.000738720
   -737740.483 7 -13596833.314 9  20922304.291        -841.480
 -10477469.391 7  -8347118.160 7  20564528.114         847.034
  -8725674.041 6  -5203491.267 5  23406206.210       -2707.541
   -870376.647 6   -848154.898 5  24867476.310       -3492.098
 -11751483.908 8  -9407747.548 9  20772113.125           0.135
 -13603685.602 6  -9169773.152 6  22694493.882        1080.342
 92 11 17 17 23  0.0000000  0  6 23  3 21 28 17 26                   0.000741180
   -762768.990 7 -13616336.051 9  20917541.567        -826.940
 -10451779.100 7  -8327099.784 7  20569416.717         865.534
  -8806787.341 6  -5266696.382 5  23390770.358       -2699.916
   -975105.049 5   -929761.480 5  24847547.740       -3489.743
 -11751379.565 8  -9407666.239 9  20772132.951           6.801
 -13570989.071 7  -9144295.363 6  22700715.591        1099.418
 92 11 17 17 23 30.0000000  0  6 23  3 21 28 17 26                   0.000743660
   -787352.826 7 -13635492.276 9  20912863.777        -812.003
 -10425530.867 7  -8306646.662 7  20574411.760         884.215
  -8887671.109 6  -5329722.641 5  23375378.681       -2692.300
  -1079762.827 5  -1011313.122 5  24827631.229       -3487.173
 -11751077.613 8  -9407430.954 9  20772190.193          13.373
 -13537720.005 7  -9118371.423 6  22707046.149        1118.621
 92 11 17 17 24  0.0000000  0  6 23  3 21 28 17 26                   0.000746170
   -811485.670 7 -13654297.092 9  20908271.266        -796.711
 -10398722.558 7  -8285757.101 7  20579513.378         902.819
  -8968327.954 6  -5392572.076 5  23360030.164       -2684.901
  -1184339.333 5  -1092801.190 5  24807731.536       -3484.540
 -11750572.305 8  -9407037.235 9  20772286.696          20.465
 -13503873.645 7  -9091997.662 6  22713486.912        1137.829
 92 11 17 17 24 30.0000000  0  6 23  3 21 28 17 26                   0.000748670
   -835158.983 7 -13672743.826 9  20903765.942        -781.759
 -10371353.545 7  -8264430.643 7  20584721.773         921.502
  -9048763.167 6  -5455248.811 5  23344723.665       -2677.482
  -1288825.965 5  -1174219.496 5  24787847.570       -3481.561
 -11749843.330 8  -9406469.208 9  20772425.370          28.132
 -13469453.832 7  -9065177.050 6  22720036.818        1156.648
 92 11 17 17 25  0.0000000  0  6 23  3 21 28 17 26                   0.000751170
   -858393.957 7 -13690848.980 9  20899344.425        -767.148
 -10343425.208 7  -8242668.335 7  20590036.165         940.133
  -9128968.368 6  -5517746.311 5  23329461.104       -2669.359
  -1393218.840 5  -1255564.538 5  24767983.232       -3477.956
 -11748883.993 8  -9405721.690 9  20772608.052          35.863
 -13434492.870 7  -9037934.803 6  22726689.688        1173.952
 92 11 17 17 25 30.0000000  0  6 23  3 21 28 17 26                   0.000753670
   -881189.551 7 -13708611.785 9  20895006.758        -752.696
 -10314935.682 7  -8220468.772 7  20595457.393         958.937
  -9208918.697 6  -5580045.202 5  23314246.653       -2660.703
  -1497493.384 5  -1336817.355 5  24748140.698       -3473.577
 -11747678.907 8  -9404782.681 9  20772837.394          44.436
 -13399012.177 7  -9010287.539 6  22733442.034        1191.361
 92 11 17 17 26  0.0000000  0  6 23  3 21 28 17 26                   0.000756160
   -903554.291 7 -13726038.837 9  20890751.003        -738.337
 -10285883.575 7  -8197830.812 7  20600985.723         977.733
  -9288602.569 6  -5642136.477 5  23299083.829       -2651.562
  -1601633.782 5  -1417965.738 5  24728323.026       -3469.094
 -11746214.211 8  -9403641.380 9  20773116.139          53.243
 -13363004.246 7  -8982229.478 6  22740293.902        1208.953
 92 11 17 17 26 30.0000000  0  6 23  3 21 28 17 26                   0.000758670
   -925500.791 7 -13743140.007 9  20886574.755        -724.754
 -10256269.417 7  -8174754.888 7  20606621.253         996.427
  -9368014.750 6  -5704016.024 5  23283972.013       -2642.458
  -1705634.790 5  -1499005.436 5  24708532.361       -3464.345
 -11744493.922 8  -9402300.913 9  20773443.394          61.490
 -13326479.179 7  -8953768.435 6  22747244.390        1226.148
 92 11 17 17 27  0.0000000  0  5 23  3 21 17 26                      0.000761080
   -947039.205 7 -13759923.193 9  20882476.234        -711.022
 -10226091.275 7  -8151239.501 7  20612364.116        1015.270
  -9447144.909 6  -5765675.833 5  23268913.724       -2632.983
 -11742527.151 8  -9400768.385 9  20773817.626          69.580
 -13289426.276 6  -8924896.090 6  22754295.688        1244.416
 92 11 17 17 27 30.0000000  0  5 23  3 21 17 26                      0.000763620
   -968160.841 7 -13776381.614 9  20878456.875        -697.171
 -10195347.283 7  -8127283.192 7  20618214.547        1034.151
  -9525999.364 6  -5827120.791 5  23253907.818       -2624.111
 -11740312.355 8  -9399042.594 9  20774239.163          78.022
 -13251799.814 6  -8895576.857 6  22761455.834        1264.085
 92 11 17 17 28  0.0000000  0  5 23  3 21 17 26                      0.000766210
   -988868.332 7 -13792517.329 9  20874516.552        -683.412
 -10164033.970 7  -8102883.258 7  20624173.483        1053.187
  -9604595.287 6  -5888364.299 5  23238951.338       -2615.606
 -11737845.957 8  -9397120.749 9  20774708.568          86.433
 -13213577.160 6  -8865793.045 6  22768728.697        1283.975
 92 11 17 17 28 30.0000000  0  6 23  3 21 28 17 26                   0.000768980
  -1009166.053 7 -13808333.731 9  20870653.687        -669.724
 -10132151.352 7  -8078039.708 7  20630240.749        1072.130
  -9682939.641 6  -5949411.788 5  23224042.392       -2607.304
    -72480.55315    -61859.79611  24629594.297       -3450.491
 -11735126.875 8  -9395002.008 9  20775226.151          94.727
 -13174764.025 6  -8835549.109 6  22776114.115        1303.692
 92 11 17 17 29  0.0000000  0  6 23  3 21 28 17 26                   0.000771630
  -1029049.265 7 -13823827.136 9  20866869.997        -655.767
 -10099699.895 7  -8052752.895 7  20636416.007        1091.065
  -9761036.138 6  -6010266.174 5  23209181.326       -2599.198
   -175950.833 5   -142485.907 2  24609902.660       -3447.451
 -11732162.484 8  -9392692.111 9  20775790.129         102.816
 -13135358.500 7  -8804843.571 6  22783612.711        1323.305
 92 11 17 17 29 30.0000000  0  6 23  3 21 28 17 26                   0.000774300
  -1048509.713 7 -13838991.136 9  20863166.530        -641.693
 -10066679.432 7  -8027022.717 7  20642699.546        1110.032
  -9838893.448 6  -6070934.133 5  23194365.638       -2591.373
   -279313.227 5   -223028.047 3  24590233.648       -3443.417
 -11728952.746 8  -9390191.035 9  20776401.160         111.102
 -13095379.886 7  -8773691.458 6  22791220.966        1341.602
 92 11 17 17 30  0.0000000  0  6 23  3 21 28 17 26                   0.000776960
  -1067551.207 7 -13853828.648 9  20859542.898        -627.767
 -10033089.952 7  -8000849.121 7  20649091.491        1129.023
  -9916512.744 6  -6131416.667 5  23179595.500       -2583.260
   -382548.434 5   -303471.023 4  24570589.224       -3439.076
 -11725494.622 8  -9387496.415 9  20777059.322         119.266
 -13054867.838 7  -8742123.720 6  22798930.888        1359.020
 92 11 17 17 30 30.0000000  0  6 23  3 21 28 17 26                   0.000779620
  -1086173.008 7 -13868339.155 9  20855999.342        -613.667
  -9998930.526 7  -7974231.428 7  20655591.891        1148.076
  -9993883.891 6  -6191705.822 5  23164871.716       -2574.709
   -485651.130 5   -383810.695 5  24550969.923       -3434.544
 -11721796.982 8  -9384615.159 9  20777762.943         127.239
 -13013842.962 7  -8710156.342 6  22806738.004        1376.050
 92 11 17 17 31  0.0000000  0  6 23  3 21 28 17 26                   0.000782270
  -1104371.940 7 -13882520.138 9  20852536.190        -599.684
  -9964199.922 7  -7947168.675 7  20662200.954        1167.078
 -10071002.670 6  -6251798.331 5  23150196.403       -2566.640
   -588612.622 5   -464040.417 5  24531376.685       -3429.673
 -11717854.286 8  -9381542.937 9  20778513.245         135.672
 -12972303.571 7  -8677788.035 6  22814642.701        1393.284
 92 11 17 17 31 30.0000000  0  6 23  3 21 28 17 26                   0.000784910
  -1122153.899 7 -13896376.206 9  20849152.582        -585.804
  -9928899.178 7  -7919661.643 7  20668918.534        1186.108
 -10147875.761 6  -6311699.401 5  23135568.800       -2558.228
   -691429.868 6   -544157.695 5  24511811.432       -3425.005
 -11713652.721 8  -9378268.995 9  20779313.013         144.387
 -12930239.751 7  -8645011.077 6  22822647.158        1410.986
 92 11 17 17 32  0.0000000  0  6 23  3 21 28 17 26                   0.000787570
  -1139524.742 7 -13909911.922 9  20845846.879        -572.235
  -9893026.339 7  -7891708.826 7  20675745.180        1205.230
 -10224490.621 6  -6371399.266 5  23120988.973       -2549.399
   -794114.422 5   -624171.630 5  24492271.691       -3420.708
 -11709194.427 8  -9374795.019 9  20780161.454         152.751
 -12887635.764 7  -8611813.230 6  22830754.458        1429.351
 92 11 17 17 32 30.0000000  0  6 23  3 21 28 17 26                   0.000790250
  -1156489.106 7 -13923130.904 9  20842618.956        -558.699
  -9856583.514 7  -7863311.866 7  20682679.738        1224.143
 -10300840.058 6  -6430892.287 5  23106460.500       -2540.624
   -896669.863 6   -704084.928 5  24472755.931       -3416.334
 -11704491.173 8  -9371130.156 9  20781056.444         160.841
 -12844476.499 7  -8578182.661 6  22838967.211        1447.955
 92 11 17 17 33  0.0000000  0  6 23  3 21 28 17 26                   0.000792950
  -1173041.302 7 -13936028.718 9  20839469.286        -544.833
  -9819569.712 7  -7834469.982 7  20689723.432        1243.261
 -10376932.636 6  -6490185.194 5  23091980.195       -2532.257
   -999086.023 6   -783889.740 5  24453267.266       -3411.446
 -11699540.001 8  -9367272.124 9  20781998.462         169.066
 -12800752.124 7  -8544111.763 6  22847287.660        1466.832
 92 11 17 17 33 30.0000000  0  6 23  3 21 28 17 26                   0.000795680
  -1189176.535 7 -13948601.616 9  20836399.060        -530.779
  -9781982.564 7  -7805181.337 7  20696876.091        1262.400
 -10452763.178 6  -6549273.919 5  23077550.174       -2523.142
  -1101365.303 6   -863587.876 5  24433803.419       -3407.089
 -11694352.878 8  -9363230.224 9  20782985.491         176.743
 -12756469.967 6  -8509606.239 6  22855714.711        1485.109
 92 11 17 17 34  0.0000000  0  6 23  3 21 28 17 26                   0.000798430
  -1204889.569 7 -13960845.542 9  20833408.783        -516.554
  -9743821.916 7  -7775445.801 7  20704137.894        1281.558
 -10528327.811 6  -6608155.401 5  23063171.028       -2514.319
  -1203510.622 6   -943181.569 5  24414366.315       -3402.357
 -11688940.439 8  -9359012.754 9  20784015.287         184.246
 -12711655.008 7  -8474685.530 6  22864242.493        1502.680
 92 11 17 17 34 30.0000000  0  6 23  3 21 28 17 26                   0.000801190
  -1220175.823 7 -13972756.909 9  20830499.795        -502.496
  -9705084.758 7  -7745261.038 7  20711509.402        1300.639
 -10603626.812 6  -6666829.922 5  23048842.410       -2505.719
  -1305508.081 6  -1022660.082 5  24394956.557       -3397.466
 -11683300.299 8  -9354617.873 9  20785088.382         191.810
 -12666318.057 7  -8439358.064 6  22872870.051        1519.619
 92 11 17 17 35  0.0000000  0  6 23  3 21 28 17 26                   0.000803940
  -1235035.049 8 -13984335.513 9  20827672.082        -488.271
  -9665775.704 7  -7714630.620 7  20718989.572        1319.671
 -10678668.036 6  -6725303.579 5  23034561.632       -2496.918
  -1407357.035 6  -1102022.854 5  24375574.892       -3392.589
 -11677427.694 8  -9350041.836 9  20786205.838         199.645
 -12620475.599 7  -8403636.707 6  22881593.712        1536.499
 92 11 17 17 35 30.0000000  0  6 23  3 21 28 17 26                   0.000806700
  -1249464.426 7 -13995579.187 9  20824926.493        -473.640
  -9625893.917 7  -7683553.941 7  20726578.849        1338.913
 -10753432.859 6  -6783561.823 5  23020333.945       -2487.525
  -1509058.087 6  -1181270.367 5  24356221.526       -3387.362
 -11671318.844 8  -9345281.730 9  20787368.484         207.679
 -12574122.982 7  -8367517.849 6  22890414.375        1553.750
 92 11 17 17 36  0.0000000  0  6 23  3 21 28 17 26                   0.000809460
  -1263459.537 7 -14006484.467 9  20822263.378        -459.488
  -9585437.411 7  -7652029.431 7  20734277.299        1357.965
 -10827927.218 6  -6841609.379 5  23006158.614       -2478.575
  -1610594.498 6  -1260389.572 5  24336900.735       -3381.756
 -11664968.830 8  -9340333.691 9  20788576.757         215.661
 -12527250.102 7  -8330993.566 6  22899333.592        1571.168
 92 11 17 17 36 30.0000000  0  6 23  3 21 28 17 26                   0.000812250
  -1277031.940 7 -14017060.374 9  20819680.795        -445.296
  -9544408.637 7  -7620059.000 7  20742084.883        1377.090
 -10902139.483 6  -6899437.041 5  22992037.255       -2469.042
  -1711954.877 6  -1339371.661 5  24317612.768       -3375.540
 -11658375.609 8  -9335196.141 9  20789831.528         223.982
 -12479844.897 7  -8294054.493 6  22908354.983        1589.265
 92 11 17 17 37  0.0000000  0  6 23  3 21 28 17 26                   0.000815070
  -1290180.341 7 -14027305.880 9  20817178.987        -431.340
  -9502806.810 7  -7587642.043 7  20750001.644        1396.149
 -10976072.601 6  -6957047.252 5  22977968.113       -2459.777
  -1813130.589 6  -1418209.779 5  24298359.307       -3369.545
 -11651534.372 8  -9329865.334 9  20791133.337         232.009
 -12431895.154 7  -8256691.112 6  22917479.132        1607.315
 92 11 17 17 37 30.0000000  0  6 23  3 21 28 17 26                   0.000817910
  -1302921.721 7 -14037234.244 9  20814754.196        -418.137
  -9460634.706 7  -7554780.716 7  20758026.687        1415.097
 -11049733.148 6  -7014445.057 5  22963950.968       -2451.034
  -1914121.266 5  -1496903.786 5  24279140.741       -3363.130
 -11644459.565 8  -9324352.534 9  20792479.755         239.667
 -12383412.060 7  -8218912.124 6  22926705.410        1624.849
 92 11 17 17 38  0.0000000  0  6 23  3 21 28 17 26                   0.000820790
  -1315272.450 7 -14046858.180 9  20812403.922        -405.320
  -9417888.572 7  -7521472.089 7  20766160.827        1434.360
 -11123130.172 6  -7071637.492 5  22949983.706       -2442.062
  -2014915.769 6  -1575444.806 5  24259959.744       -3356.539
 -11637144.754 8  -9318652.700 9  20793871.922         247.939
 -12334402.225 7  -8180722.709 6  22936031.968        1642.398
 92 11 17 17 38 30.0000000  0  6 23  3 21 28 17 26                   0.000823700
  -1327241.167 7 -14056184.450 9  20810126.181        -392.519
  -9374569.148 7  -7487716.753 7  20774403.960        1453.357
 -11196267.193 6  -7128627.343 5  22936066.401       -2434.007
  -2115517.413 5  -1653835.683 5  24240816.374       -3350.364
 -11629586.087 8  -9312762.862 9  20795310.406         255.958
 -12284870.570 7  -8142126.688 6  22945457.471        1659.599
 92 11 17 17 39  0.0000000  0  6 23  3 21 28 17 26                   0.000826600
  -1338820.031 7 -14065206.939 9  20807922.746        -379.472
  -9330679.963 7  -7453517.433 7  20782755.908        1472.421
 -11269174.443 6  -7185438.161 5  22922192.248       -2426.345
  -2215949.167 5  -1732094.110 5  24221704.246       -3345.188
 -11621786.920 8  -9306685.607 9  20796794.429         264.082
 -12234830.501 7  -8103134.474 6  22954979.259        1676.309
 92 11 17 17 39 30.0000000  0  6 23  3 21 28 17 26                   0.000829500
  -1350009.645 7 -14073926.129 9  20805793.429        -366.376
  -9286218.992 7  -7418872.581 7  20791216.620        1491.469
 -11341848.595 6  -7242067.327 5  22908363.308       -2418.546
  -2316230.729 6  -1810235.541 5  24202621.811       -3340.309
 -11613733.897 8  -9300410.558 9  20798327.228         272.850
 -12184285.336 7  -8063748.703 6  22964597.850        1693.525
 92 11 17 17 40  0.0000000  0  6 23  3 21 28 17 26                   0.000832360
  -1360795.616 7 -14082330.807 9  20803741.009        -352.608
  -9241186.903 7  -7383782.683 7  20799785.748        1510.520
 -11414281.436 6  -7298508.468 5  22894579.054       -2410.076
  -2416378.368 5  -1888272.606 5  24183563.976       -3336.198
 -11605415.717 8  -9293928.886 9  20799909.881         281.722
 -12133221.162 6  -8023958.497 6  22974315.074        1710.764
 92 11 17 17 40 30.0000000  0  6 23  3 21 28 17 26                   0.000835210
  -1371163.726 7 -14090409.856 9  20801767.925        -338.590
  -9195585.121 7  -7348248.889 7  20808463.521        1529.461
 -11486455.390 6  -7354747.868 5  22880845.012       -2401.296
  -2516408.778 6  -1966218.338 5  24164528.413       -3332.476
 -11596837.163 8  -9287244.319 9  20801542.409         290.366
 -12081644.934 7  -7983769.294 6  22984129.866        1727.660
 92 11 17 17 41  0.0000000  0  6 23  3 21 28 17 26                   0.000838030
  -1381109.445 7 -14098159.765 9  20799875.269        -324.562
  -9149411.344 7  -7312269.367 7  20817250.228        1548.675
 -11558347.723 6  -7410767.831 5  22867165.030       -2391.267
  -2616325.938 5  -2044075.823 5  24145515.270       -3328.354
 -11587987.652 8  -9280348.622 9  20803226.265         299.638
 -12029561.182 7  -7943184.623 6  22994041.055        1744.709
 92 11 17 17 41 30.0000000  0  6 23  3 21 28 17 26                   0.000840860
  -1390643.110 7 -14105588.612 9  20798061.022        -310.840
  -9102664.415 7  -7275843.233 7  20826146.038        1567.642
 -11629930.213 6  -7466546.362 5  22853543.089       -2380.821
  -2716102.424 6  -2121823.690 5  24126528.645       -3323.178
 -11578867.789 8  -9273242.259 9  20804961.467         308.299
 -11976962.055 6  -7902198.347 6  23004050.298        1761.965
 92 11 17 17 42  0.0000000  0  6 23  3 21 28 17 26                   0.000843700
  -1399754.115 8 -14112688.111 9  20796327.232        -296.593
  -9055345.879 7  -7238971.709 7  20835150.716        1586.764
 -11701197.382 6  -7522079.169 5  22839981.109       -2370.322
  -2815709.692 5  -2199439.677 5  24107573.225       -3317.062
 -11569493.738 8  -9265937.829 9  20806745.041         316.699
 -11923851.162 7  -7860813.310 6  23014156.830        1778.653
 92 11 17 17 42 30.0000000  0  6 23  3 21 28 17 26                   0.000846560
  -1408446.574 7 -14119461.462 9  20794673.068        -282.812
  -9007457.613 7  -7201656.215 7  20844263.616        1605.681
 -11772165.500 6  -7577378.961 5  22826476.393       -2360.991
  -2915120.485 6  -2276902.590 5  24088657.070       -3310.058
 -11559870.175 8  -9258438.971 9  20808576.222         325.012
 -11870247.982 6  -7819044.650 6  23024357.568        1795.026
 92 11 17 17 43  0.0000000  0  6 23  3 21 28 17 26                   0.000849420
  -1416725.177 7 -14125912.337 9  20793097.469        -269.229
  -8959000.677 7  -7163897.622 7  20853484.643        1624.629
 -11842859.857 6  -7632465.438 5  22813023.203       -2352.060
  -3014308.073 6  -2354191.550 5  24069782.153       -3302.323
 -11549997.896 8  -9250746.306 9  20810454.760         332.985
 -11816144.376 6  -7776886.075 6  23034653.153        1812.033
 92 11 17 17 43 30.0000000  0  6 23  3 21 28 17 26                   0.000852310
  -1424600.344 7 -14132048.835 9  20791598.615        -255.686
  -8909974.445 7  -7125695.414 7  20862814.045        1643.655
 -11913292.286 6  -7687347.811 5  22799620.150       -2343.534
  -3113258.961 5  -2431296.084 5  24050952.684       -3294.446
 -11539892.893 8  -9242872.295 9  20812378.040         340.712
 -11761527.907 6  -7734327.867 6  23045046.709        1829.025
 92 11 17 17 44  0.0000000  0  6 23  3 21 28 17 26                   0.000855200
  -1432071.398 7 -14137870.434 9  20790177.140        -242.681
  -8860379.477 7  -7087050.020 7  20872251.493        1662.497
 -11983479.091 6  -7742038.771 5  22786264.276       -2335.698
  -3211978.916 5  -2508220.690 5  24032165.737       -3286.925
 -11529553.560 8  -9234815.706 9  20814345.579         348.603
 -11706410.526 6  -7691379.308 6  23055534.866        1845.482
 92 11 17 17 44 30.0000000  0  6 23  3 21 28 17 26                   0.000858110
  -1439169.685 7 -14143401.586 9  20788826.315        -230.369
  -8810217.545 7  -7047962.853 7  20881797.152        1681.483
 -12053427.620 6  -7796544.059 5  22772953.592       -2327.393
  -3310478.692 5  -2584973.718 5  24013422.748       -3279.636
 -11518973.680 8  -9226571.664 9  20816358.954         356.734
 -11650791.715 6  -7648040.057 6  23066118.878        1862.735
 92 11 17 17 45  0.0000000  0  6 23  3 21 28 17 26                   0.000861070
  -1445898.366 7 -14148644.720 9  20787545.892        -218.144
  -8759484.630 7  -7008430.755 7  20891451.269        1700.531
 -12123109.703 6  -7850841.742 6  22759693.345       -2317.969
  -3408759.501 5  -2661556.095 5  23994720.585       -3272.457
 -11508151.914 8  -9218139.148 9  20818418.099         364.726
 -11594642.740 6  -7604287.697 6  23076803.781        1880.468
 92 11 17 17 45 30.0000000  0  6 23  3 21 28 17 26                   0.000864070
  -1452253.418 7 -14153596.711 9  20786336.619        -205.236
  -8708181.500 7  -6968454.337 7  20901213.920        1719.630
 -12192511.704 6  -7904921.185 6  22746486.648       -2308.587
  -3506824.458 6  -2737970.308 5  23976058.919       -3265.078
 -11497087.852 8  -9209517.818 9  20820523.661         373.039
 -11537974.048 6  -7560130.344 6  23087587.256        1897.511
 92 11 17 17 46  0.0000000  0  6 23  3 21 28 17 26                   0.000867090
  -1458217.099 7 -14158243.734 9  20785201.703        -192.336
  -8656305.513 7  -6928031.547 7  20911085.706        1738.647
 -12261629.141 6  -7958778.891 6  22733333.402       -2299.141
  -3604670.914 6  -2814214.219 5  23957438.733       -3257.881
 -11485773.191 8  -9200701.223 9  20822676.660         381.235
 -11480797.069 6  -7515576.960 6  23098467.573        1914.358
 92 11 17 17 46 30.0000000  0  6 23  3 21 28 17 26                   0.000870150
  -1463785.768 7 -14162582.958 9  20784142.329        -178.670
  -8603857.221 7  -6887162.806 7  20921066.046        1757.761
 -12330456.695 6  -8012410.704 6  22720235.959       -2289.274
  -3702298.609 6  -2890287.755 5  23938861.066       -3250.607
 -11474216.265 8  -9191695.844 9  20824875.748         389.123
 -11423112.980 6  -7470628.400 6  23109444.447        1931.197
 92 11 17 17 47  0.0000000  0  6 23  3 21 28 17 26                   0.000873230
  -1468936.889 7 -14166596.825 9  20783162.245        -164.836
  -8550834.105 7  -6845846.146 7  20931156.253        1776.865
 -12398993.926 6  -8065816.299 6  22707193.518       -2280.094
  -3799708.894 6  -2966191.799 5  23920324.081       -3243.473
 -11462425.030 8  -9182507.886 9  20827119.554         396.912
 -11364936.495 6  -7425296.157 6  23120515.530        1946.973
 92 11 17 17 47 30.0000000  0  6 23  3 21 28 17 26                   0.000876290
  -1473674.695 7 -14170288.614 9  20782260.899        -151.169
  -8497236.900 7  -6804082.150 7  20941355.512        1796.007
 -12467268.192 6  -8119016.982 6  22694202.029       -2271.490
  -3896909.626 6  -3041932.573 5  23901827.774       -3236.641
 -11450398.883 8  -9173136.869 9  20829408.190         404.850
 -11306297.300 6  -7379603.353 6  23131674.284        1962.214
 92 11 17 17 48  0.0000000  0  6 23  3 21 28 17 26                   0.000879340
  -1478021.501 7 -14173675.742 9  20781433.403        -138.453
  -8443069.564 7  -6761873.898 7  20951663.134        1815.053
 -12535281.098 6  -8172014.027 6  22681259.012       -2262.665
  -3993919.382 6  -3117524.548 5  23883366.959       -3230.546
 -11438137.174 8  -9163582.303 9  20831741.498         412.828
 -11247204.549 6  -7333557.138 6  23142919.257        1977.423
 92 11 17 17 48 30.0000000  0  6 23  3 21 28 17 26                   0.000882370
  -1481983.062 7 -14176762.683 9  20780679.666        -125.579
  -8388331.782 7  -6719221.140 7  20962079.515        1834.097
 -12603032.301 7  -8224807.134 6  22668366.715       -2253.914
  -4090744.595 6  -3192972.721 5  23864941.997       -3224.465
 -11425628.153 8  -9153835.016 9  20834121.698         421.380
 -11187655.770 6  -7287155.583 6  23154251.535        1992.680
 92 11 17 17 49  0.0000000  0  6 23  3 21 28 17 26                   0.000885370
  -1485566.063 7 -14179554.627 9  20779998.108        -113.320
  -8333022.408 7  -6676122.976 7  20972604.856        1852.980
 -12670521.260 7  -8277395.906 6  22655523.919       -2245.364
  -4187391.191 6  -3268281.699 5  23846550.410       -3218.571
 -11412853.438 8  -9143880.703 9  20836552.676         430.383
 -11127643.580 6  -7240392.918 6  23165671.124        2008.174
 92 11 17 17 49 30.0000000  0  6 23  3 21 28 17 26                   0.000888370
  -1488779.230 7 -14182058.420 9  20779386.490        -100.875
  -8277142.966 7  -6632580.620 7  20983238.196        1872.041
 -12737738.605 7  -8329773.043 6  22642733.312       -2235.667
  -4283853.984 6  -3343447.444 5  23828194.673       -3212.292
 -11399807.676 8  -9133715.190 9  20839035.135         439.416
 -11067157.850 6  -7193261.272 6  23177181.501        2024.212
 92 11 17 17 50  0.0000000  0  6 23  3 21 28 17 26                   0.000891370
  -1491614.728 7 -14184267.909 9  20778846.833         -88.095
  -8220693.971 7  -6588594.453 7  20993980.360        1890.988
 -12804666.845 7  -8381924.889 6  22629997.110       -2226.273
  -4380129.289 6  -3418467.109 5  23809874.555       -3205.937
 -11386491.686 8  -9123339.102 9  20841569.002         448.288
 -11006186.844 6  -7145751.491 6  23188783.908        2040.631
 92 11 17 17 50 30.0000000  0  6 23  3 21 28 17 26                   0.000894370
  -1494066.423 7 -14186178.320 9  20778380.556         -75.289
  -8163679.359 7  -6544167.535 7  21004829.798        1909.948
 -12871321.297 7  -8433863.377 6  22617313.397       -2217.135
  -4476201.775 6  -3493328.731 5  23791592.670       -3198.658
 -11372916.455 8  -9112761.019 9  20844152.172         456.763
 -10944722.970 6  -7097857.660 6  23200480.042        2057.077
 92 11 17 17 51  0.0000000  0  6 23  3 21 28 17 26                   0.000897400
  -1496132.340 7 -14187788.138 9  20777987.128         -62.479
  -8106092.514 7  -6499294.724 7  21015788.593        1928.958
 -12937690.146 7  -8485579.342 6  22604683.772       -2207.472
  -4572039.257 6  -3568007.208 5  23773354.856       -3190.390
 -11359090.609 8  -9101987.661 9  20846783.230         464.898
 -10882764.929 6  -7049578.759 6  23212270.209        2073.383
 92 11 17 17 51 30.0000000  0  6 23  3 21 28 17 26                   0.000900460
  -1497813.074 7 -14189097.805 9  20777667.230         -49.571
  -8047936.903 7  -6453978.727 7  21026855.191        1947.952
 -13003767.327 7  -8537068.020 6  22592109.778       -2197.722
  -4667626.238 6  -3642490.501 5  23755164.900       -3181.951
 -11345027.008 8  -9091029.026 9  20849459.618         472.774
 -10820321.394 6  -7000921.542 6  23224152.833        2089.649
 92 11 17 17 52  0.0000000  0  6 23  3 21 28 17 26                   0.000903560
  -1499104.346 7 -14190103.993 9  20777421.653         -36.682
  -7989210.947 7  -6408218.270 7  21038030.163        1966.855
 -13069559.149 7  -8588334.343 6  22579590.714       -2188.456
  -4762954.042 6  -3716771.829 5  23737025.050       -3173.062
 -11330720.023 8  -9079880.754 9  20852182.165         481.021
 -10757383.700 6  -6951879.298 6  23236129.695        2106.133
 92 11 17 17 52 30.0000000  0  6 23  3 21 28 17 26                   0.000906680
  -1500014.002 7 -14190812.834 9  20777248.400         -23.974
  -7929918.246 7  -6362016.206 7  21049313.423        1985.702
 -13135070.062 7  -8639381.792 6  22567124.047       -2178.909
  -4858005.157 6  -3790837.521 5  23718937.472       -3163.837
 -11316158.835 8  -9068534.406 9  20854953.216         489.732
 -10693960.758 6  -6902458.922 6  23248198.687        2121.856
 92 11 17 17 53  0.0000000  0  6 23  3 21 28 17 26                   0.000909820
  -1500539.852 7 -14191222.584 9  20777148.450         -11.133
  -7870061.880 7  -6315374.924 7  21060703.697        2004.388
 -13200293.909 7  -8690205.543 6  22554711.990       -2169.527
  -4952787.337 6  -3864693.683 5  23700901.255       -3155.153
 -11301324.836 8  -9056975.473 9  20857776.331         499.216
 -10630066.610 6  -6852671.354 6  23260357.778        2137.768
 92 11 17 17 53 30.0000000  0  6 23  3 21 28 17 26                   0.000912950
  -1500677.781 7 -14191330.071 9  20777122.209           1.850
  -7809640.070 7  -6268293.019 7  21072201.700        2023.327
 -13265242.135 6  -8740814.508 6  22542352.496       -2160.533
  -5047314.948 6  -3938351.488 5  23682913.249       -3146.753
 -11286198.084 8  -9045188.416 9  20860654.909         509.079
 -10565687.044 6  -6802505.559 6  23272608.780        2154.097
 92 11 17 17 54  0.0000000  0  6 23  3 21 28 17 26                   0.000916070
  -1500433.384 7 -14191139.644 9  20777168.365          14.475
  -7748656.195 7  -6220773.160 7  21083806.635        2042.067
 -13329923.099 7  -8791215.242 6  22530043.545       -2151.581
  -5141590.245 6  -4011812.667 5  23664972.574       -3138.192
 -11270776.763 8  -9033171.821 9  20863589.609         518.979
 -10500829.072 6  -6751966.970 6  23284950.724        2169.524
 92 11 17 17 54 30.0000000  0  6 23  3 21 28 17 26                   0.000919180
  -1499807.773 7 -14190652.147 9  20777287.554          27.234
  -7687108.103 7  -6172813.649 7  21095518.655        2060.889
 -13394333.515 7  -8841405.143 6  22517786.801       -2142.500
  -5235609.305 6  -4085074.186 5  23647080.477       -3129.922
 -11255061.548 8  -9020926.222 9  20866580.059         528.472
 -10435514.563 6  -6701072.655 6  23297379.592        2184.753
 92 11 17 17 55  0.0000000  0  6 23  3 21 28 17 26                   0.000922270
  -1498805.082 7 -14189870.821 9  20777478.361          39.637
  -7625001.453 7  -6124418.881 7  21107337.145        2079.463
 -13458477.637 7  -8891387.539 6  22505580.380       -2133.746
  -5329395.558 6  -4158154.317 5  23629234.251       -3122.231
 -11239080.943 8  -9008473.827 9  20869621.142         536.832
 -10369743.601 6  -6649822.642 6  23309895.046        2200.181
 92 11 17 17 55 30.0000000  0  6 23  3 21 28 17 26                   0.000925380
  -1497429.511 7 -14188798.960 9  20777740.371          52.121
  -7562336.519 7  -6075589.115 7  21119261.879        2098.027
 -13522349.453 7  -8941157.742 6  22493425.896       -2124.289
  -5422940.128 6  -4231046.153 5  23611433.252       -3114.002
 -11222863.273 8  -8995836.719 9  20872707.525         544.358
 -10303509.562 6  -6598211.800 6  23322498.960        2215.310
 92 11 17 17 56  0.0000000  0  6 23  3 21 28 17 26                   0.000928500
  -1495676.856 7 -14187433.255 9  20778073.959          64.603
  -7499114.123 7  -6026324.948 7  21131292.460        2116.585
 -13585931.487 7  -8990702.159 6  22481326.742       -2114.715
  -5516232.741 6  -4303741.642 5  23593680.415       -3105.698
 -11206423.994 8  -8983026.916 9  20875835.849         551.488
 -10236827.919 6  -6546252.175 6  23335188.336        2230.050
 92 11 17 17 56 30.0000000  0  6 23  3 21 28 17 26                   0.000931660
  -1493550.424 7 -14185776.302 9  20778478.559          77.201
  -7435335.265 7  -5976627.190 7  21143429.147        2135.136
 -13649227.995 7  -9040024.081 6  22469282.292       -2104.994
  -5609276.409 6  -4376243.147 5  23575975.020       -3097.227
 -11189772.221 8  -8970051.532 9  20879004.447         558.600
 -10169692.996 6  -6493939.350 6  23347963.910        2245.744
 92 11 17 17 57  0.0000000  0  6 23  3 21 28 17 26                   0.000934840
  -1491049.556 7 -14183827.585 9  20778954.458          89.527
  -7371001.457 7  -5926496.991 6  21155671.523        2153.642
 -13712229.535 7  -9089116.158 6  22457293.241       -2095.113
  -5702065.259 6  -4448546.119 5  23558317.677       -3088.507
 -11172901.698 8  -8956905.697 9  20882214.953         566.203
 -10102088.182 6  -6441260.368 5  23360828.754        2261.210
 92 11 17 17 57 30.0000000  0  6 23  3 21 28 17 26                   0.000938050
  -1488181.131 8 -14181592.443 9  20779500.259         101.717
  -7306111.211 7  -5875933.227 6  21168019.865        2172.248
 -13774932.802 7  -9137975.810 6  22445361.650       -2085.086
  -5794581.915 6  -4520636.957 5  23540711.865       -3079.243
 -11155794.924 8  -8943575.769 9  20885470.319         574.532
 -10034027.486 6  -6388226.144 5  23373780.550        2276.042
 92 11 17 17 58  0.0000000  0  6 23  3 21 28 17 26                   0.000941280
  -1484954.867 8 -14179078.481 9  20780114.536         113.465
  -7240662.950 7  -5824934.630 6  21180474.323        2190.885
 -13837341.681 7  -9186606.063 6  22433485.011       -2075.462
  -5886819.770 6  -4592510.552 5  23523159.523       -3069.757
 -11138424.937 8  -8930040.729 9  20888775.823         583.567
  -9965523.261 6  -6334846.327 5  23386816.042        2290.976
 92 11 17 17 58 30.0000000  0  6 23  3 21 28 17 26                   0.000944530
  -1481375.917 8 -14176289.702 9  20780795.596         125.289
  -7174658.839 7  -5773502.916 6  21193034.538        2209.324
 -13899466.481 7  -9235014.975 6  22421663.184       -2066.029
  -5978774.190 6  -4664163.304 5  23505661.751       -3060.345
 -11120779.319 8  -8916290.932 9  20892133.287         592.998
  -9896572.749 6  -6281118.740 5  23399937.030        2305.611
 92 11 17 17 59  0.0000000  0  6 23  3 21 28 17 26                   0.000947770
  -1477436.876 8 -14173220.327 9  20781545.265         137.237
  -7108100.630 7  -5721639.446 6  21205700.208        2227.655
 -13961303.521 7  -9283199.662 6  22409895.900       -2056.583
  -6070442.582 6  -4735593.184 5  23488217.975       -3050.973
 -11102844.795 8  -8902316.000 9  20895546.085         602.530
  -9827202.020 6  -6227063.732 5  23413138.251        2319.069
 92 11 17 17 59 30.0000000  0  6 23  3 21 28 17 26                   0.000951000
  -1473134.036 8 -14169867.468 9  20782364.039         149.640
  -7040989.262 7  -5669344.922 6  21218471.527        2246.199
 -14022860.480 7  -9331166.082 6  22398182.042       -2047.240
  -6161825.292 6  -4806800.409 5  23470828.136       -3041.283
 -11084627.143 8  -8888120.439 9  20899012.924         612.038
  -9757418.481 6  -6172687.044 5  23426417.420        2333.161
 92 11 17 18  0  0.0000000  0  6 23  3 21 28 17 26                   0.000954200
  -1468455.780 8 -14166222.091 9  20783254.591         162.285
  -6973323.409 7  -5616618.343 6  21231347.934        2264.667
 -14084138.104 6  -9378914.833 6  22386521.056       -2038.068
  -6252919.831 6  -4877783.138 5  23453492.892       -3031.670
 -11066127.292 8  -8873704.991 9  20902533.487         621.087
  -9687205.414 6  -6117975.643 5  23439778.461        2347.753
 92 11 17 18  0 30.0000000  0  6 23  3 21 28 17 26                   0.000957400
  -1463392.561 7 -14162276.739 9  20784217.956         175.149
  -6905103.139 7  -5563459.753 6  21244329.785        2283.151
 -14145145.463 6  -9426452.993 6  22374911.251       -2029.009
  -6343724.130 6  -4948539.673 5  23436212.598       -3021.866
 -11047358.610 8  -8859080.051 9  20906104.727         630.138
  -9616555.831 6  -6062924.087 5  23453222.915        2362.271
 92 11 17 18  1  0.0000000  0  6 23  3 21 28 17 26                   0.000960610
  -1457950.680 7 -14158036.312 9  20785253.268         187.493
  -6836328.449 7  -5509869.148 6  21257417.395        2301.627
 -14205872.371 7  -9473772.607 6  22363355.870       -2019.612
  -6434232.444 6  -5019065.577 5  23418989.501       -3011.900
 -11028328.462 8  -8844251.386 9  20909726.229         638.445
  -9545463.377 6  -6007527.466 5  23466751.406        2377.451
 92 11 17 18  1 30.0000000  0  6 23  3 21 28 17 26                   0.000963850
  -1452146.293 8 -14153513.431 9  20786357.624         199.465
  -6767002.047 7  -5455848.622 6  21270609.731        2319.983
 -14266328.461 7  -9520881.222 6  22351851.074       -2010.614
  -6524433.662 6  -5089352.156 5  23401825.132       -3001.495
 -11009053.042 8  -8829231.586 9  20913394.208         646.779
  -9473901.664 6  -5951765.183 5  23480369.427        2393.254
 92 11 17 18  2  0.0000000  0  6 23  3 21 28 17 26                   0.000967120
  -1445985.793 7 -14148713.030 9  20787529.802         211.296
  -6697124.498 7  -5401398.644 6  21283907.068        2338.321
 -14326512.175 7  -9567777.587 6  22340399.150       -2001.595
  -6614327.442 6  -5159399.196 5  23384719.339       -2991.422
 -10989523.757 8  -8814013.960 9  20917110.254         655.214
  -9401873.618 6  -5895639.493 5  23494076.080        2408.644
 92 11 17 18  2 30.0000000  0  6 23  3 21 28 17 26                   0.000970410
  -1439467.966 7 -14143634.216 9  20788769.872         223.160
  -6626695.748 7  -5346519.158 6  21297309.051        2356.667
 -14386417.543 7  -9614457.078 6  22328999.056       -1992.050
  -6703927.430 6  -5229217.274 5  23367668.319       -2981.840
 -10969736.979 8  -8798595.715 9  20920875.610         663.817
  -9329385.586 6  -5839155.385 5  23507870.380        2423.877
 92 11 17 18  3  0.0000000  0  6 23  3 21 28 17 26                   0.000973730
  -1432592.598 8 -14138276.793 9  20790077.958         235.322
  -6555719.973 7  -5291213.406 6  21310815.399        2375.010
 -14446031.261 7  -9660909.281 6  22317654.878       -1982.136
  -6793243.442 6  -5298814.095 5  23350671.768       -2972.508
 -10949698.523 8  -8782981.340 9  20924688.719         672.218
  -9256446.812 6  -5782320.053 5  23521750.692        2438.698
 92 11 17 18  3 30.0000000  0  6 23  3 21 28 17 26                   0.000977050
  -1425354.390 8 -14132636.637 9  20791455.573         247.324
  -6484194.153 7  -5235479.055 6  21324426.477        2393.152
 -14505356.722 7  -9707136.887 6  22306365.525       -1972.665
  -6882292.048 6  -5368202.522 5  23333726.285       -2964.165
 -10929400.654 8  -8767164.835 9  20928550.885         681.061
  -9183076.249 6  -5725148.247 5  23535712.479        2452.510
 92 11 17 18  4  0.0000000  0  6 23  3 21 28 17 26                   0.000980350
  -1417747.503 8 -14126709.212 9  20792903.272         259.556
  -6412119.760 7  -5179317.248 6  21338141.701        2411.414
 -14564384.250 7  -9753132.326 6  22295132.779       -1962.704
  -6971087.224 6  -5437393.486 5  23316829.075       -2955.635
 -10908835.546 8  -8751140.094 9  20932464.587         689.668
  -9109296.560 6  -5667657.701 5  23549751.806        2465.922
 92 11 17 18  4 30.0000000  0  6 23  3 21 28 17 26                   0.000983630
  -1409783.484 8 -14120503.484 9  20794418.860         271.281
  -6339499.816 7  -5122730.308 6  21351960.894        2429.648
 -14623113.456 7  -9798895.299 6  22283957.249       -1952.646
  -7059623.860 6  -5506383.018 5  23299981.246       -2946.663
 -10888016.449 8  -8734917.419 9  20936426.504         698.278
  -9035121.295 6  -5609858.853 5  23563866.612        2478.928
 92 11 17 18  5  0.0000000  0  6 23  3 21 28 17 26                   0.000986910
  -1401473.258 8 -14114027.978 9  20796000.237         282.665
  -6266336.049 7  -5065719.626 6  21365883.767        2447.767
 -14681541.896 7  -9844423.922 6  22272838.922       -1942.567
  -7147881.221 6  -5575154.913 5  23283186.725       -2937.135
 -10866932.296 8  -8718488.221 9  20940438.955         707.471
  -8960564.668 6  -5551762.865 5  23578054.392        2491.574
 92 11 17 18  5 30.0000000  0  6 23  3 21 28 17 26                   0.000990170
  -1392822.110 8 -14107286.852 9  20797646.831         294.121
  -6192627.889 7  -5008284.745 6  21379909.955        2465.812
 -14739673.177 7  -9889721.013 6  22261776.893       -1932.858
  -7235846.338 6  -5643699.114 5  23266447.911       -2926.998
 -10845564.457 8  -8701837.970 9  20944504.850         717.021
  -8885619.459 6  -5493364.090 5  23592316.128        2504.791
 92 11 17 18  6  0.0000000  0  6 23  3 21 28 17 26                   0.000993440
  -1383818.928 7 -14100271.380 9  20799359.802         306.000
  -6118377.837 7  -4950427.598 6  21394039.385        2483.895
 -14797507.902 7  -9934786.982 6  22250771.013       -1922.982
  -7323485.728 6  -5711989.466 5  23249770.621       -2915.695
 -10823915.173 8  -8684968.414 9  20948624.497         726.124
  -8810274.872 6  -5434654.112 5  23606653.953        2518.229
 92 11 17 18  6 30.0000000  0  6 23  3 21 28 17 26                   0.000996710
  -1374458.465 8 -14092977.519 9  20801140.850         318.123
  -6043587.923 7  -4892149.796 6  21408271.513        2501.906
 -14855049.661 7  -9979624.690 6  22239821.212       -1913.150
  -7410783.550 6  -5780013.695 5  23233157.920       -2904.114
 -10801990.195 8  -8667884.033 9  20952796.571         735.631
  -8734520.988 6  -5375625.223 5  23621069.564        2532.009
 92 11 17 18  7  0.0000000  0  6 23  3 21 28 17 26                   0.000999980
  -1364730.001 7 -14085396.898 9  20802991.975         330.424
  -5968260.295 7  -4833452.978 6  21422605.789        2519.729
 -14912306.749 7 -10024240.569 6  22228925.742       -1904.038
  -7497734.585 6  -5847767.661 5  23216612.392       -2892.540
 -10779786.447 8  -8650582.424 9  20957021.774         744.520
  -8658352.320 6  -5316273.109 5  23635564.306        2545.929
 92 11 17 18  7 30.0010000  0  6 23  3 21 28 17 26                   0.001003260
  -1354629.478 7 -14077526.364 9  20804913.947         342.858
  -5892395.292 7  -4774337.429 6  21437042.475        2537.568
 -14969296.727 7 -10068648.307 6  22218081.042       -1895.146
  -7584334.998 6  -5915248.452 5  23200132.902       -2880.498
 -10757326.628 8  -8633081.281 9  20961296.038         752.645
  -8581764.416 6  -5256594.327 5  23650138.362        2559.771
 92 11 17 18  8  0.0010000  0  6 23  3 21 28 17 26                   0.001006560
  -1344166.867 7 -14069373.677 9  20806905.099         354.504
  -5815998.519 7  -4714807.526 6  21451580.080        2555.406
 -15026018.539 7 -10112847.075 6  22207287.523       -1886.255
  -7670570.248 6  -5982444.678 5  23183722.471       -2868.676
 -10734629.179 8  -8615394.971 9  20965615.156         760.684
  -8504766.416 6  -5196595.985 5  23664791.017        2573.543
 92 11 17 18  8 30.0010000  0  6 23  3 21 28 17 26                   0.001009870
  -1333373.715 7 -14060963.434 9  20808959.067         365.103
  -5739068.834 7  -4654862.379 6  21466219.425        2573.097
 -15082481.902 7 -10156844.470 6  22196542.775       -1877.908
  -7756464.720 6  -6049375.349 5  23167376.972       -2857.483
 -10711689.914 8  -8597520.226 9  20969980.423         768.784
  -8427363.600 6  -5136282.205 5  23679520.159        2586.676
 92 11 17 18  9  0.0010000  0  6 23  3 21 28 17 26                   0.001013210
  -1322266.049 7 -14052308.109 9  20811072.973         375.488
  -5661609.116 7  -4594504.199 6  21480959.988        2590.802
 -15138697.434 7 -10200648.754 6  22185844.779       -1869.564
  -7842025.674 6  -6116046.148 5  23151094.660       -2846.536
 -10688508.524 8  -8579456.817 9  20974391.911         776.787
  -8349570.926 6  -5075664.639 5  23694323.518        2599.690
 92 11 17 18  9 30.0010000  0  6 23  3 21 28 17 26                   0.001016560
  -1310846.802 7 -14043409.991 9  20813245.779         385.776
  -5583617.887 7  -4533731.857 6  21495801.235        2608.509
 -15194653.328 7 -10244250.688 6  22175197.141       -1860.757
  -7927260.567 6  -6182462.879 5  23134875.490       -2835.826
 -10665078.282 8  -8561199.490 9  20978850.504         785.335
  -8271385.774 6  -5014741.287 5  23709201.751        2612.761
 92 11 17 18 10  0.0010000  0  6 23  3 21 28 17 26                   0.001019930
  -1299122.740 8 -14034274.349 9  20815477.025         395.952
  -5505094.931 7  -4472545.204 6  21510743.570        2626.113
 -15250339.809 7 -10287642.709 6  22164599.877       -1851.624
  -8012186.576 6  -6248638.933 5  23118714.503       -2826.027
 -10641378.878 8  -8542732.442 9  20983360.400         794.674
  -8192809.372 6  -4953512.996 5  23724154.814        2625.504
 92 11 17 18 10 30.0010000  0  6 23  3 21 28 17 26                   0.001023280
  -1287077.362 7 -14024888.353 9  20817769.189         407.402
  -5426044.434 7  -4410947.451 6  21525786.456        2643.883
 -15305743.888 7 -10330814.699 6  22154057.096       -1841.702
  -8096815.622 6  -6314583.577 5  23102610.197       -2815.683
 -10617397.985 8  -8524046.032 9  20987924.243         804.162
  -8113853.709 6  -4891989.265 5  23739178.929        2638.325
 92 11 17 18 11  0.0010000  0  6 23  3 21 28 17 26                   0.001026620
  -1274681.560 8 -14015229.285 9  20820128.225         419.179
  -5346463.720 7  -4348936.560 6  21540930.144        2661.385
 -15360840.029 7 -10373746.718 6  22143572.412       -1831.191
  -8181132.163 6  -6380284.735 5  23086564.948       -2805.390
 -10593129.393 8  -8505135.459 9  20992542.494         813.864
  -8034506.815 6  -4830160.631 5  23754278.085        2651.455
 92 11 17 18 11 30.0010000  0  6 23  3 21 28 17 26                   0.001029960
  -1261932.646 7 -14005295.068 9  20822554.077         430.810
  -5266357.836 7  -4286516.433 6  21556173.795        2678.846
 -15415618.823 7 -10416431.456 6  22133148.029       -1820.597
  -8265132.113 6  -6445739.144 5  23070579.672       -2794.397
 -10568562.901 8  -8485992.754 9  20997217.310         823.825
  -7954766.766 6  -4768025.636 5  23769452.489        2664.519
 92 11 17 18 12  0.0010000  0  6 23  3 21 28 17 26                   0.001033290
  -1248829.769 8 -13995085.031 9  20825047.419         442.758
  -5185726.462 7  -4223686.824 6  21571517.537        2696.323
 -15470072.729 7 -10458863.029 6  22122785.526       -1809.707
  -8348789.429 6  -6510926.595 5  23054660.655       -2782.554
 -10543699.492 8  -8466618.679 9  21001948.313         833.707
  -7874635.036 6  -4705585.461 5  23784701.894        2677.526
 92 11 17 18 12 30.0010000  0  6 23  3 21 28 17 26                   0.001036630
  -1235368.933 8 -13984596.089 9  20827608.915         454.422
  -5104569.389 7  -4160447.600 6  21586961.437        2713.858
 -15524202.202 7 -10501041.810 6  22112484.996       -1799.108
  -8432075.832 6  -6575825.009 5  23038812.122       -2769.950
 -10518544.931 8  -8447017.750 9  21006734.860         843.174
  -7794112.200 6  -4642840.523 5  23800024.351        2690.510
 92 11 17 18 13  0.0010000  0  6 23  3 21 28 17 26                   0.001039980
  -1221569.988 8 -13973843.677 9  20830234.668         465.440
  -5022890.711 7  -4096801.911 6  21602504.248        2731.184
 -15578024.015 7 -10542980.852 6  22102243.286       -1789.100
  -8514985.385 6  -6640429.780 5  23023034.756       -2757.294
 -10493103.270 8  -8427193.078 9  21011575.990         852.909
  -7713204.446 6  -4579795.637 5  23815420.499        2703.183
 92 11 17 18 13 30.0010000  0  6 23  3 21 28 17 26                   0.001043350
  -1207440.769 8 -13962833.901 9  20832923.256         476.334
  -4940690.536 7  -4032749.883 6  21618146.559        2748.539
 -15631547.674 7 -10584687.570 6  22092057.947       -1779.300
  -8597508.428 6  -6704733.368 5  23007330.923       -2744.281
 -10467376.749 8  -8407146.464 9  21016471.698         861.979
  -7631916.417 6  -4516454.449 5  23830889.029        2715.870
 92 11 17 18 14  0.0010000  0  6 23  3 21 28 17 26                   0.001046740
  -1192983.011 8 -13951568.130 9  20835674.541         487.522
  -4857969.334 7  -3968291.854 6  21633887.621        2766.027
 -15684781.477 7 -10626168.418 6  22081927.839       -1769.794
  -8679646.645 6  -6768737.107 5  22991700.436       -2731.759
 -10441379.237 8  -8386888.681 9  21021419.005         871.302
  -7550251.691 6  -4452819.750 5  23846429.272        2728.477
 92 11 17 18 14 30.0010000  0  6 23  3 21 28 17 26                   0.001050140
  -1178192.619 8 -13940043.158 9  20838489.155         498.450
  -4774726.979 7  -3903427.744 6  21649728.374        2783.209
 -15737738.068 7 -10667433.267 6  22071850.327       -1760.628
  -8761421.372 6  -6832457.581 5  22976138.892       -2720.078
 -10415104.738 8  -8366415.054 9  21026418.582         880.188
  -7468206.623 6  -4388888.642 5  23862041.451        2741.215
 92 11 17 18 15  0.0010000  0  6 23  3 21 28 17 26                   0.001053540
  -1163072.217 8 -13928261.041 9  20841366.303         509.468
  -4690969.352 7  -3838162.102 6  21665666.772        2800.335
 -15790421.516 7 -10708485.259 6  22061824.967       -1751.769
  -8842847.604 6  -6895906.558 5  22960644.026       -2708.339
 -10388565.871 8  -8345735.440 9  21031468.587         888.881
  -7385769.954 6  -4324652.432 5  23877728.944        2754.424
 92 11 17 18 15 30.0010000  0  6 23  3 21 28 17 26                   0.001056960
  -1147620.103 8 -13916220.453 9  20844306.926         520.497
  -4606696.792 7  -3772495.213 6  21681703.200        2817.536
 -15842834.761 7 -10749326.721 6  22051851.191       -1742.480
  -8923915.864 6  -6959076.566 5  22945216.978       -2696.304
 -10361770.527 8  -8324855.965 9  21036567.567         897.409
  -7302939.194 6  -4260109.097 5  23893492.140        2767.402
 92 11 17 18 16  0.0010000  0  6 23  3 21 28 17 26                   0.001060400
  -1131849.975 8 -13903932.056 9  20847307.971         530.809
  -4521912.385 7  -3706429.490 6  21697836.990        2834.572
 -15894971.740 7 -10789952.893 6  22041930.110       -1733.318
  -9004627.080 6  -7021968.371 5  22929858.588       -2684.436
 -10334714.481 8  -8303773.349 9  21041716.451         906.340
  -7219728.957 6  -4195270.118 5  23909326.381        2779.913
 92 11 17 18 16 30.0010000  0  6 23  3 21 28 17 26                   0.001063860
  -1115774.638 8 -13891405.828 9  20850366.901         540.785
  -4436616.481 7  -3639965.228 6  21714068.453        2851.627
 -15946825.771 7 -10830358.581 6  22032062.541       -1723.493
  -9084970.201 6  -7084573.346 5  22914570.295       -2671.707
 -10307397.898 8  -8282487.708 9  21046914.855         914.740
  -7136142.829 6  -4130138.225 5  23925232.914        2792.393
 92 11 17 18 17  0.0010000  0  6 23  3 21 28 17 26                   0.001067360
  -1099400.335 8 -13878646.639 9  20853482.936         550.716
  -4350808.467 7  -3573101.877 6  21730397.208        2868.596
 -15998384.763 7 -10870534.369 6  22022251.162       -1713.771
  -9164921.322 7  -7146872.861 5  22899355.665       -2658.399
 -10279823.553 8  -8261001.240 9  21052162.003         923.618
  -7052193.384 6  -4064723.213 5  23941208.283        2803.947
 92 11 17 18 17 30.0010000  0  6 23  3 21 28 17 26                   0.001070880
  -1082728.617 8 -13865655.702 9  20856655.369         560.792
  -4264490.189 7  -3505840.942 6  21746822.997        2885.694
 -16049641.768 7 -10910474.861 6  22012497.106       -1703.333
  -9244475.278 6  -7208862.914 5  22884217.228       -2645.334
 -10251976.212 8  -8239302.027 9  21057461.122         932.779
  -6967906.111 6  -3999044.955 5  23957247.521        2815.114
 92 11 17 18 18  0.0010000  0  6 23  3 21 28 17 26                   0.001074420
  -1065747.369 8 -13852423.565 9  20859886.582         571.635
  -4177662.157 7  -3438182.787 6  21763345.981        2902.620
 -16100593.013 7 -10950177.097 6  22002801.007       -1693.575
  -9323641.603 6  -7270550.889 5  22869151.986       -2632.429
 -10223858.536 8  -8217392.167 9  21062811.749         941.715
  -6883284.827 6  -3933106.433 5  23973350.379        2826.482
 92 11 17 18 18 30.0010000  0  6 23  3 21 28 17 26                   0.001077940
  -1048419.788 8 -13838921.562 9  20863183.688         583.684
  -4090328.338 7  -3370130.507 6  21779965.093        2919.443
 -16151256.821 7 -10989655.342 6  21993160.321       -1683.875
  -9402423.776 6  -7331939.542 5  22854160.563       -2619.745
 -10195472.670 7  -8195273.343 8  21068213.088         950.763
  -6798321.772 6  -3866901.576 5  23989518.315        2837.777
 92 11 17 18 19  0.0010000  0  6 23  3 21 28 17 26                   0.001081420
  -1030720.584 8 -13825129.985 9  20866551.695         596.215
  -4002491.830 7  -3301686.522 6  21796679.894        2936.141
 -16201631.752 7 -11028908.479 6  21983574.569       -1674.527
  -9480832.650 6  -7393037.292 5  22839239.576       -2607.395
 -10166805.897 7  -8172935.621 8  21073668.393         960.383
  -6713024.297 6  -3800436.181 5  24005749.846        2848.685
 92 11 17 18 19 30.0010000  0  6 23  3 21 28 17 26                   0.001084860
  -1012652.199 8 -13811050.720 9  20869990.316         608.271
  -3914153.230 7  -3232851.326 6  21813490.305        2952.820
 -16251726.468 7 -11067943.295 6  21974041.748       -1665.208
  -9558871.917 6  -7453847.043 5  22824388.435       -2595.234
 -10137855.491 7  -8150376.881 8  21079177.839         969.454
  -6627393.094 6  -3733710.688 5  24022044.855        2860.107
 92 11 17 18 20  0.0010000  0  6 23  3 21 28 17 26                   0.001088260
   -994220.498 8 -13796688.361 9  20873497.948         620.309
  -3825313.461 7  -3163625.561 6  21830396.031        2969.611
 -16301545.018 7 -11106762.903 6  21964561.752       -1656.050
  -9636537.996 6  -7514365.996 6  22809609.156       -2582.416
 -10108625.663 7  -8127600.403 8  21084739.849         979.338
  -6541415.751 6  -3666715.500 5  24038405.930        2871.807
 92 11 17 18 20 30.0010000  0  6 23  3 21 28 17 26                   0.001091640
   -975453.552 8 -13782064.775 9  20877069.365         630.452
  -3735974.018 7  -3094010.476 6  21847397.031        2986.160
 -16351086.709 7 -11145366.779 6  21955133.778       -1646.663
  -9713822.145 6  -7574587.342 6  22794902.578       -2569.688
 -10079098.474 8  -8104592.231 8  21090358.788         989.110
  -6455086.223 6  -3599445.868 5  24054833.697        2883.364
 92 11 17 18 21  0.0010000  0  6 23  3 21 28 17 26                   0.001095050
   -956404.673 8 -13767221.487 9  20880694.395         639.331
  -3646135.555 7  -3024006.547 6  21864492.596        3002.793
 -16400347.104 7 -11183751.465 6  21945759.955       -1637.615
  -9790713.223 7  -7634502.376 6  22780270.746       -2556.280
 -10049278.537 8  -8081355.927 8  21096033.460         998.883
  -6368410.566 6  -3531906.541 5  24071327.502        2895.036
 92 11 17 18 21 30.0010000  0  6 23  3 21 28 17 26                   0.001098490
   -937097.220 8 -13752176.716 9  20884368.453         647.968
  -3555798.433 7  -2953614.036 6  21881683.116        3019.476
 -16449334.386 7 -11221923.328 6  21936438.278       -1628.101
  -9867197.078 6  -7694100.116 6  22765715.945       -2542.606
 -10019162.904 8  -8057889.210 8  21101764.382        1008.887
  -6281376.180 6  -3464087.669 5  24087889.558        2907.425
 92 11 17 18 22  0.0010000  0  6 23  3 21 28 17 26                   0.001101980
   -917527.970 8 -13736927.947 9  20888092.614         656.745
  -3464965.438 7  -2882835.148 6  21898967.961        3035.952
 -16498037.647 7 -11259873.886 6  21927170.057       -1618.683
  -9943274.576 7  -7753381.186 6  22751239.174       -2529.062
  -9988746.754 8  -8034188.338 8  21107552.355        1018.963
  -6193977.389 6  -3395984.852 5  24104521.196        2919.129
 92 11 17 18 22 30.0010000  0  6 23  3 21 28 17 26                   0.001105500
   -897689.266 8 -13721469.217 9  20891867.830         665.916
  -3373636.487 7  -2811669.789 6  21916347.400        3052.374
 -16546451.659 7 -11297599.044 6  21917956.774       -1608.952
 -10018943.475 7  -7812343.892 6  22736839.823       -2515.377
  -9958033.141 8  -8010255.669 8  21113396.930        1028.557
  -6106227.142 6  -3327608.177 5  24121219.200        2930.655
 92 11 17 18 23  0.0010000  0  6 23  3 21 28 17 26                   0.001109050
   -877561.410 8 -13705785.176 9  20895698.171         676.240
  -3281817.232 7  -2740122.388 6  21933819.851        3068.724
 -16594572.493 7 -11335095.758 6  21908799.712       -1598.965
 -10094201.655 7  -7870986.545 6  22722519.116       -2501.788
  -9927038.376 8  -7986103.926 8  21119295.217        1037.953
  -6018138.587 6  -3258967.911 5  24137982.594        2942.013
 92 11 17 18 23 30.0010000  0  6 23  3 21 28 17 26                   0.001112600
   -857114.336 8 -13689852.388 9  20899589.045         686.987
  -3189511.440 7  -2668195.862 6  21951385.132        3084.854
 -16642383.825 7 -11372351.304 6  21899701.922       -1588.310
 -10169057.025 7  -7929315.322 6  22708274.570       -2488.557
  -9895764.801 8  -7961734.930 8  21125246.157        1046.880
  -5929716.061 6  -3190067.381 5  24154808.935        2952.866
 92 11 17 18 24  0.0010000  0  6 23  3 21 28 17 26                   0.001116150
   -836330.826 8 -13673657.447 9  20903543.698         698.499
  -3096716.834 7  -2595888.454 6  21969043.321        3101.162
 -16689872.805 7 -11409355.648 6  21890664.928       -1577.790
 -10243505.269 7  -7987326.866 6  22694107.826       -2474.714
  -9864224.773 8  -7937158.293 8  21131248.140        1055.698
  -5840969.594 6  -3120914.437 5  24171696.732        2963.385
 92 11 17 18 24 30.0010000  0  6 23  3 21 28 17 26                   0.001119690
   -815206.530 7 -13657196.960 9  20907562.957         709.893
  -3003437.607 7  -2523203.394 6  21986793.979        3117.292
 -16737049.558 7 -11446116.713 6  21881687.653       -1567.274
 -10317533.220 7  -8045010.891 6  22680020.864       -2460.341
  -9832417.168 8  -7912373.151 8  21137300.832        1064.920
  -5751908.974 6  -3051516.672 5  24188644.531        2974.155
 92 11 17 18 25  0.0010000  0  6 23  3 21 28 17 26                   0.001123230
   -793741.669 8 -13640471.091 9  20911647.888         721.145
  -2909676.845 7  -2450143.134 6  22004635.928        3133.268
 -16783907.251 7 -11482629.143 6  21872770.565       -1556.531
 -10391131.530 7  -8102360.154 6  22666015.104       -2446.146
  -9800329.976 8  -7887370.151 8  21143406.595        1074.371
  -5662526.476 6  -2981868.152 5  24205653.451        2984.847
 92 11 17 18 25 30.0010000  0  6 23  3 21 28 17 26                   0.001126770
   -771948.460 7 -13623489.381 9  20915795.075         731.625
  -2815436.566 7  -2376709.212 6  22022569.442        3149.169
 -16830451.887 7 -11518897.646 7  21863913.887       -1546.503
 -10464301.019 7  -8159375.241 6  22652090.661       -2431.723
  -9767956.068 8  -7862143.747 8  21149566.969        1083.844
  -5572824.523 6  -2911970.689 5  24222723.309        2995.327
 92 11 17 18 26  0.0010000  0  6 23  3 21 28 17 26                   0.001130310
   -749843.825 7 -13606264.986 9  20920001.664         741.845
  -2720720.261 7  -2302904.363 6  22040593.425        3165.040
 -16876704.254 7 -11554938.387 7  21855112.221       -1537.025
 -10537032.401 7  -8216048.979 6  22638250.013       -2417.038
  -9735293.515 8  -7836692.421 8  21155782.537        1093.730
  -5482802.089 6  -2841823.465 5  24239853.889        3005.944
 92 11 17 18 26 30.0010000  0  6 23  3 21 28 17 26                   0.001133860
   -727448.724 7 -13588814.266 9  20924263.284         751.061
  -2625530.243 7  -2228730.382 6  22058707.483        3180.705
 -16922676.897 7 -11590761.185 7  21846364.006       -1527.874
 -10609325.228 6  -8272380.993 6  22624493.590       -2402.652
  -9702333.984 8  -7811009.675 8  21162054.813        1103.454
  -5392459.055 6  -2771426.467 5  24257046.016        3016.807
 92 11 17 18 27  0.0010000  0  6 23  3 21 28 17 26                   0.001137420
   -704783.515 7 -13571153.061 9  20928576.129         759.939
  -2529869.674 7  -2154189.749 6  22076911.201        3196.491
 -16968379.177 7 -11626373.298 7  21837666.790       -1519.010
 -10681194.927 7  -8328383.274 6  22610817.055       -2388.675
  -9669089.979 7  -7785105.267 8  21168381.004        1112.767
  -5301803.944 6  -2700786.252 5  24274297.715        3026.991
 92 11 17 18 27 30.0010000  0  6 23  3 21 28 17 26                   0.001141000
   -681854.649 7 -13553286.425 9  20932939.078         768.704
  -2433738.221 7  -2079282.196 5  22095204.778        3212.106
 -17013828.881 7 -11661788.616 7  21829017.415       -1510.805
 -10752639.558 6  -8384054.357 6  22597221.270       -2374.207
  -9635566.945 7  -7758983.430 8  21174760.330        1122.047
  -5210838.965 6  -2629904.606 5  24291608.069        3037.353
 92 11 17 18 28  0.0010000  0  6 23  3 21 28 17 26                   0.001144590
   -658657.966 7 -13535211.094 9  20937353.190         777.783
  -2337136.183 7  -2004007.953 5  22113587.522        3227.825
 -17059023.441 7 -11697005.093 7  21820417.548       -1502.137
 -10823648.388 6  -8439385.832 6  22583708.564       -2359.848
  -9601761.053 7  -7732641.196 8  21181193.185        1131.691
  -5119574.893 6  -2558789.854 5  24308975.715        3046.844
 92 11 17 18 28 30.0010000  0  6 23  3 21 28 17 26                   0.001148170
   -635193.071 8 -13516926.772 9  20941818.711         786.868
  -2240069.001 7  -1928371.279 5  22132058.995        3243.226
 -17103958.839 7 -11732019.638 7  21811866.539       -1493.408
 -10894233.031 6  -8494386.807 6  22570276.781       -2345.670
  -9567674.450 8  -7706080.214 8  21187679.825        1140.774
  -5028030.431 6  -2487456.617 5  24326395.974        3056.191
 92 11 17 18 29  0.0010000  0  6 23  3 21 28 17 26                   0.001151760
   -611443.299 8 -13498420.450 9  20946338.243         796.403
  -2142535.142 7  -1852370.944 5  22150618.606        3258.750
 -17148616.621 7 -11766817.860 7  21803368.923       -1483.880
 -10964381.617 7  -8549047.973 6  22556927.753       -2330.790
  -9533313.558 8  -7679305.499 8  21194218.468        1149.914
  -4936202.468 5  -2415902.510 5  24343869.572        3065.601
 92 11 17 18 29 30.0010000  0  6 23  3 21 28 17 26                   0.001155350
   -587404.051 8 -13479688.583 9  20950912.734         806.101
  -2044536.177 7  -1776008.174 5  22169267.247        3274.236
 -17192991.124 7 -11801395.356 7  21794924.340       -1474.417
 -11034078.259 7  -8603357.002 6  22543665.160       -2315.703
  -9498673.364 7  -7652313.166 8  21200810.395        1159.366
  -4844088.579 6  -2344125.614 5  24361398.241        3075.165
 92 11 17 18 30  0.0010000  0  6 23  3 21 28 17 26                   0.001158930
   -563075.020 8 -13460730.897 9  20955542.271         815.797
  -1946077.103 7  -1699286.892 5  22188003.205        3289.489
 -17237077.131 7 -11835748.044 7  21786534.905       -1464.825
 -11103334.931 7  -8657323.193 6  22530485.930       -2301.347
  -9463758.471 7  -7625106.781 8  21207454.484        1168.337
  -4751696.639 6  -2272132.017 5  24378979.609        3084.637
 92 11 17 18 30 30.0010000  0  6 23  3 21 28 17 26                   0.001162540
   -538451.361 8 -13441543.626 9  20960227.986         825.952
  -1847159.393 7  -1622208.224 5  22206827.195        3304.853
 -17280879.130 7 -11869879.432 7  21778199.306       -1455.217
 -11172147.855 7  -8710943.598 6  22517391.675       -2286.028
  -9428573.893 7  -7597690.241 8  21214149.789        1177.417
  -4658999.190 6  -2199900.376 5  24396620.044        3095.296
 92 11 17 18 31  0.0010000  0  6 23  3 21 28 17 26                   0.001166160
   -513523.725 8 -13422119.500 9  20964971.451         836.017
  -1747784.147 7  -1544773.042 5  22225738.041        3320.113
 -17324392.660 8 -11903786.032 7  21769919.168       -1445.601
 -11240500.370 7  -8764205.242 6  22504385.119       -2270.694
  -9393105.898 7  -7570052.857 8  21220899.107        1187.337
  -4565985.715 6  -2127422.521 5  24414320.270        3105.694
 92 11 17 18 31 30.0010000  0  6 23  3 21 28 17 26                   0.001169770
   -488287.751 8 -13402455.129 9  20969773.877         846.358
  -1647949.914 7  -1466980.213 5  22244735.920        3335.321
 -17367620.414 8 -11937469.971 7  21761693.412       -1436.084
 -11308397.309 7  -8817111.886 6  22491464.256       -2255.771
  -9357330.093 7  -7542175.633 8  21227706.474        1197.647
  -4472656.730 6  -2054698.765 5  24432080.587        3116.232
 92 11 17 18 32  0.0010000  0  6 23  3 21 28 17 26                   0.001173390
   -462745.009 8 -13382551.710 9  20974634.534         856.518
  -1547661.823 7  -1388833.714 5  22263820.129        3350.451
 -17410552.584 7 -11970923.589 7  21753523.521       -1425.958
 -11375848.448 7  -8869671.142 6  22478628.399       -2240.778
  -9321251.776 7  -7514062.686 8  21234571.802        1207.822
  -4379015.556 6  -1981731.791 5  24449900.126        3126.641
 92 11 17 18 32 30.0010000  0  6 23  3 21 28 17 26                   0.001177010
   -436902.238 8 -13362414.484 9  20979552.358         866.253
  -1446921.452 7  -1310334.798 5  22282990.328        3365.380
 -17453177.819 7 -12004138.014 7  21745411.804       -1415.629
 -11442842.543 7  -8921874.271 6  22465879.743       -2225.647
  -9284855.661 7  -7485702.094 8  21241497.838        1218.544
  -4285067.613 6  -1908525.751 5  24467777.601        3136.356
 92 11 17 18 33  0.0010000  0  6 23  3 21 28 17 26                   0.001180620
   -410778.960 8 -13342058.693 9  20984523.475         875.068
  -1345733.454 7  -1231487.076 5  22302245.956        3380.266
 -17495487.666 7 -12037106.697 7  21737360.618       -1405.102
 -11509393.397 7  -8973732.015 6  22453215.359       -2211.113
  -9248143.328 7  -7457095.107 8  21248484.154        1228.783
  -4190840.093 6  -1835101.853 5  24485708.567        3145.367
 92 11 17 18 33 30.0010000  0  6 23  3 21 28 17 26                   0.001184240
   -384395.689 8 -13321500.318 9  20989544.141         883.737
  -1244100.164 6  -1152292.405 5  22321585.949        3395.051
 -17537481.003 7 -12069828.759 7  21729369.390       -1394.500
 -11575503.897 7  -9025246.602 6  22440634.950       -2196.175
  -9211133.180 7  -7428256.066 8  21255527.064        1238.482
  -4096339.823 6  -1761465.506 5  24503691.925        3154.600
 92 11 17 18 34  0.0010000  0  6 23  3 21 28 17 26                   0.001187870
   -357752.970 8 -13300739.754 9  20994614.320         892.470
  -1142023.889 7  -1072752.535 5  22341010.512        3409.880
 -17579158.751 7 -12102304.877 7  21721438.429       -1384.156
 -11641156.769 7  -9076404.625 6  22428142.102       -2180.562
  -9173831.838 7  -7399190.101 8  21262625.461        1248.350
  -4001562.327 6  -1687613.086 5  24521727.260        3163.795
 92 11 17 18 34 30.0010000  0  6 23  3 21 28 17 26                   0.001191520
   -330849.694 8 -13279776.183 9  20999733.777         901.158
  -1039505.906 6   -992868.476 5  22360518.855        3424.456
 -17620539.628 7 -12134549.690 7  21713563.564       -1374.685
 -11706333.128 7  -9127191.318 6  22415738.968       -2164.590
  -9136239.782 7  -7369897.632 8  21269779.018        1257.629
  -3906515.908 6  -1613551.100 5  24539814.387        3172.603
 92 11 17 18 35  0.0010000  0  6 23  3 21 28 17 26                   0.001195190
   -303673.601 8 -13258600.006 9  21004905.207         910.530
   -936546.938 6   -912640.794 5  22380111.741        3439.170
 -17661634.614 7 -12166571.707 7  21705743.475       -1365.228
 -11771022.518 7  -9177598.556 6  22403428.939       -2148.017
  -9098372.146 7  -7340390.389 8  21276985.201        1266.819
  -3811199.545 6  -1539278.803 5  24557952.694        3181.690
 92 11 17 18 35 30.0010000  0  6 23  3 21 28 17 26                   0.001198870
   -276203.375 8 -13237194.659 9  21010132.728         920.770
   -833146.973 6   -832069.486 5  22399787.839        3453.913
 -17702453.718 8 -12198378.786 7  21697975.843       -1356.204
 -11835203.036 7  -9227609.296 6  22391216.124       -2130.787
  -9060217.657 7  -7310659.642 8  21284245.941        1276.791
  -3715610.150 6  -1464793.725 5  24576143.420        3190.945
 92 11 17 18 36  0.0010000  0  6 23  3 21 28 17 26                   0.001202550
   -248435.204 8 -13215557.111 9  21015416.871         930.531
   -729311.951 6   -751159.165 5  22419547.311        3468.287
 -17743010.293 7 -12229981.279 7  21690258.517       -1347.484
 -11898881.641 7  -9277228.919 6  22379098.529       -2114.342
  -9021769.879 7  -7280700.347 8  21291562.657        1286.386
  -3619753.328 6  -1390100.310 5  24594384.164        3199.431
 92 11 17 18 36 30.0010000  0  6 23  3 21 28 17 26                   0.001206220
   -220372.014 8 -13193689.697 9  21020757.024         940.371
   -625044.106 6   -669911.614 5  22439388.772        3482.808
 -17783295.610 7 -12261372.386 7  21682592.961       -1338.014
 -11962068.238 7  -9326465.155 6  22367074.098       -2098.052
  -8983035.280 7  -7250517.575 8  21298933.696        1296.028
  -3523638.798 6  -1315206.055 5  24612674.426        3208.323
 92 11 17 18 37  0.0010000  0  6 23  3 21 28 17 26                   0.001209890
   -192021.051 8 -13171598.045 9  21026151.649         949.689
   -520345.207 6   -588328.149 5  22459312.562        3497.036
 -17823292.959 7 -12292539.110 7  21674981.661       -1328.470
 -12024777.107 7  -9375329.129 6  22355140.267       -2082.520
  -8944012.886 8  -7220110.537 8  21306359.264        1305.514
  -3427261.388 6  -1240106.948 5  24631014.744        3216.851
 92 11 17 18 37 30.0010000  0  6 23  3 21 28 17 26                   0.001213570
   -163396.978 8 -13149293.571 9  21031598.737         958.530
   -415219.765 6   -506412.316 5  22479317.383        3511.165
 -17863000.576 8 -12323480.081 7  21667425.843       -1318.763
 -12087018.535 7  -9423828.883 6  22343296.369       -2066.984
  -8904703.900 8  -7189480.169 8  21313839.515        1314.918
  -3330624.931 6  -1164805.970 5  24649403.861        3225.559
 92 11 17 18 38  0.0010000  0  6 23  3 21 28 17 26                   0.001217250
   -134508.987 8 -13126783.464 9  21037095.962         967.281
   -309666.530 6   -424163.148 5  22499403.168        3525.393
 -17902408.891 7 -12354187.833 7  21659926.394       -1308.649
 -12148799.995 7  -9471970.195 6  22331539.797       -2051.781
  -8865120.623 7  -7158636.084 8  21321371.752        1323.793
  -3233732.289 6  -1089305.435 5  24667841.690        3233.713
 92 11 17 18 38 30.0010000  0  6 23  3 21 28 17 26                   0.001220930
   -105357.911 8 -13104068.327 9  21042642.952         976.085
   -203689.717 6   -341583.897 5  22519569.958        3539.538
 -17941517.916 7 -12384662.348 7  21652483.798       -1298.720
 -12210116.943 7  -9519749.591 6  22319871.825       -2035.949
  -8825266.188 7  -7127580.709 8  21328955.582        1333.182
  -3136594.136 6  -1013613.556 5  24686326.522        3242.113
 92 11 17 18 39  0.0010000  0  6 23  3 21 28 17 26                   0.001224630
    -75955.617 8 -13081157.462 9  21048237.997         984.246
    -97291.942 6   -258676.663 5  22539816.688        3553.492
 -17980345.188 7 -12414917.317 7  21645095.422       -1289.679
 -12270956.139 7  -9567156.690 6  22308294.318       -2019.893
  -8785129.604 8  -7096305.469 8  21336593.133        1342.794
  -3039214.532 6   -937733.539 5  24704857.916        3249.957
 92 11 17 18 39 30.0010000  0  6 23  3 21 28 17 26                   0.001228320
    -46303.788 8 -13058052.146 9  21053881.022         992.482
      9523.196 6   -175444.194 5  22560143.019        3567.332
 -18018900.975 7 -12444960.748 7  21637758.020       -1280.675
 -12331304.317 7  -9614181.186 6  22296810.718       -2003.376
  -8744697.082 8  -7064799.632 8  21344287.389        1352.810
  -2941597.226 6   -861668.347 5  24723434.190        3257.789
 92 11 17 18 40  0.0010000  0  6 23  3 21 28 17 26                   0.001232010
    -16405.939 8 -13034755.125 9  21059570.403        1000.738
    116751.997 6    -91889.398 5  22580548.161        3581.162
 -18057186.858 7 -12474793.866 7  21630472.926       -1271.554
 -12391159.092 7  -9660821.202 6  22285420.513       -1986.618
  -8703952.735 7  -7033050.810 8  21352040.849        1363.666
  -2843746.422 5   -785421.157 5  24742055.321        3265.822
 92 11 17 18 40 30.0010000  0  6 23  3 21 28 17 26                   0.001235710
     13733.167 8 -13011270.128 9  21065305.692        1008.573
    224395.364 6     -8011.560 5  22601031.991        3594.815
 -18095201.490 7 -12504415.614 7  21623238.676       -1262.768
 -12450499.169 7  -9707060.185 6  22274128.681       -1969.414
  -8662875.259 8  -7001042.415 8  21359857.248        1374.767
  -2745644.098 5   -708978.008 5  24760722.501        3274.307
 92 11 17 18 41  0.0010000  0  6 23  3 21 28 17 26                   0.001239420
     44111.749 8 -12987598.507 9  21071086.113        1016.809
    332446.567 6     76184.059 5  22621593.688        3608.449
 -18132949.128 7 -12533829.338 7  21616055.407       -1253.620
 -12509327.801 7  -9752900.625 6  22262933.739       -1952.437
  -8621467.637 8  -6968776.768 8  21367737.272        1385.715
  -2647289.243 5   -632338.141 5  24779438.927        3282.751
 92 11 17 18 41 30.0010000  0  6 23  3 21 28 17 26                   0.001243130
     74749.112 8 -12963725.249 9  21076916.525        1025.641
    440908.709 6    160699.894 5  22642233.367        3622.163
 -18170413.535 7 -12563022.345 7  21608925.992       -1244.141
 -12567648.433 7  -9798345.215 6  22251836.415       -1935.686
  -8579740.690 8  -6936262.280 8  21375677.865        1395.982
  -2548679.032 5   -555499.215 5  24798203.696        3291.158
 92 11 17 18 42  0.0010000  0  6 23  3 21 28 17 26                   0.001246850
    105647.465 8 -12939648.628 9  21082796.264        1034.243
    549776.596 6    245531.894 5  22662949.615        3635.550
 -18207599.631 7 -12591998.473 7  21601849.852       -1234.959
 -12625470.008 7  -9843400.935 6  22240832.478       -1918.989
  -8537713.551 7  -6903513.882 7  21383675.270        1405.599
  -2449818.040 5   -478464.945 5  24817015.875        3299.578
 92 11 17 18 42 30.0010000  0  6 23  3 21 28 17 26                   0.001250580
    136811.120 8 -12915365.272 9  21088726.469        1043.401
    659048.583 6    330678.764 5  22683743.492        3649.038
 -18244508.358 8 -12620758.488 7  21594826.082       -1225.552
 -12682787.473 7  -9888063.854 6  22229925.050       -1902.255
  -8495407.017 7  -6870547.784 7  21391725.916        1414.786
  -2350707.451 5   -401236.158 5  24835875.843        3307.708
 92 11 17 18 43  0.0010000  0  6 23  3 21 28 17 26                   0.001254330
    168245.154 8 -12890871.224 9  21094707.888        1052.168
    768724.835 6    416140.651 5  22704614.770        3662.529
 -18281128.311 8 -12649293.498 7  21587857.798       -1215.733
 -12739605.912 7  -9932337.928 6  22219112.878       -1885.637
  -8452834.479 7  -6837374.399 7  21399827.485        1423.389
  -2251357.359 5   -323820.732 5  24854781.678        3315.638
 92 11 17 18 43 30.0010000  0  6 23  3 21 28 17 26                   0.001258100
    199936.752 8 -12866176.480 9  21100738.761        1060.606
    878801.547 6    501914.583 5  22725561.781        3675.859
 -18317454.097 8 -12677599.262 7  21580945.234       -1205.793
 -12795922.964 7  -9976221.291 6  22208396.304       -1868.584
  -8409999.041 7  -6803996.160 7  21407978.795        1432.489
  -2151772.326 5   -246222.263 5  24873732.384        3323.494
 92 11 17 18 44  0.0010000  0  6 23  3 21 28 17 26                   0.001261890
    231867.536 8 -12841295.367 9  21106815.304        1068.212
    989277.010 6    587999.224 5  22746584.895        3689.032
 -18353478.045 8 -12705669.821 8  21574090.119       -1195.706
 -12851719.080 7 -10019698.745 6  22197778.523       -1851.050
  -8366884.696 7  -6770400.593 7  21416183.206        1441.865
  -2051949.508 5   -168438.507 5  24892728.825        3331.342
 92 11 17 18 44 30.0010000  0  6 23  3 21 28 17 26                   0.001265710
    264030.152 8 -12816233.594 9  21112935.739        1075.991
   1100146.323 6    674390.756 5  22767682.731        3702.137
 -18389197.778 8 -12733503.354 7  21567292.575       -1185.424
 -12906984.875 7 -10062762.955 6  22187261.797       -1833.174
  -8323484.496 7  -6736582.293 7  21424441.778        1451.664
  -1951898.336 5    -90476.770 5  24911769.259        3338.815
 92 11 17 18 45  0.0010000  0  6 23  3 21 28 17 26                   0.001269560
    296427.056 8 -12790989.280 9  21119100.701        1083.844
   1211408.008 6    761088.037 5  22788855.324        3715.090
 -18424605.773 8 -12761093.973 7  21560554.828       -1175.260
 -12961710.763 7 -10105406.452 6  22176847.199       -1815.217
  -8279782.956 7  -6702529.181 7  21432757.690        1461.846
  -1851624.628 5    -12341.686 5  24930851.221        3346.192
 92 11 17 18 45 30.0010000  0  6 23  3 21 28 17 26                   0.001273410
    329070.120 8 -12765553.132 9  21125312.350        1092.359
   1323058.990 6    848088.676 5  22810102.105        3728.137
 -18459719.260 8 -12788455.114 7  21553873.004       -1165.659
 -13015893.826 7 -10147626.985 6  22166536.228       -1796.981
  -8235763.728 7  -6668228.486 7  21441133.992        1472.691
  -1751131.524 5     65964.424 5  24949974.255        3353.344
 92 11 17 18 46  0.0010000  0  6 23  3 21 28 17 26                   0.001277250
    361970.317 8 -12739916.636 9  21131573.058        1101.031
   1435097.198 6    935391.002 5  22831422.514        3740.849
 -18494552.214 8 -12815597.648 7  21547244.214       -1156.675
 -13069536.018 7 -10189426.043 6  22156328.133       -1779.419
  -8191421.003 7  -6633675.747 7  21449572.179        1483.460
  -1650424.955 5    144436.817 5  24969137.714        3360.324
 92 11 17 18 46 30.0010000  0  6 23  3 21 28 17 26                   0.001281070
    395140.828 8 -12714069.507 9  21137884.898        1110.261
   1547517.744 6   1022991.306 5  22852815.596        3753.591
 -18529115.806 8 -12842530.295 8  21540666.796       -1147.567
 -13122658.116 7 -10230819.854 6  22146219.851       -1762.119
  -8146758.460 7  -6598873.802 7  21458071.396        1494.011
  -1549514.617 5    223067.989 5  24988340.811        3366.940
 92 11 17 18 47  0.0010000  0  6 23  3 21 28 17 26                   0.001284870
    428590.206 8 -12688005.063 9  21144249.941        1119.763
   1660320.384 6   1110889.319 5  22874280.756        3766.384
 -18563408.131 8 -12869251.579 8  21534141.174       -1138.710
 -13175267.531 7 -10271814.161 6  22136208.551       -1745.123
  -8101775.483 7  -6563822.152 7  21466631.560        1504.847
  -1448404.448 5    301854.881 5  25007581.335        3373.743
 92 11 17 18 47 30.0010000  0  6 23  3 21 28 17 26                   0.001288630
    462323.522 8 -12661719.385 9  21150669.297        1128.980
   1773503.175 6   1199083.533 5  22895818.463        3778.915
 -18597439.760 8 -12895769.727 8  21527665.026       -1129.903
 -13227366.269 7 -10312410.543 6  22126294.235       -1728.099
  -8056467.872 7  -6528517.556 7  21475253.623        1515.551
  -1347095.061 5    380797.041 5  25026860.772        3380.088
 92 11 17 18 48  0.0010000  0  6 23  3 21 28 17 26                   0.001292370
    496326.260 8 -12635223.765 9  21157139.958        1137.768
   1887061.424 6   1287570.319 5  22917427.944        3791.407
 -18631199.965 8 -12922076.373 8  21521240.827       -1120.666
 -13278953.802 7 -10352608.586 6  22116477.728       -1710.993
  -8010846.657 7  -6492968.608 7  21483934.882        1525.805
  -1245592.792 5    459889.468 5  25046177.050        3386.754
 92 11 17 18 48 30.0010000  0  6 23  3 21 28 17 26                   0.001296090
    530587.154 8 -12608526.989 9  21163659.593        1146.214
   2000993.123 6   1376348.122 5  22939108.877        3803.797
 -18664677.222 8 -12948162.530 8  21514870.516       -1111.198
 -13330023.024 7 -10392402.765 6  22106759.808       -1693.505
  -7964928.071 7  -6457187.915 7  21492673.213        1535.477
  -1143898.167 5    539131.724 5  25065528.069        3393.016
 92 11 17 18 49  0.0010000  0  6 23  3 21 28 17 26                   0.001299820
    565099.917 8 -12581633.950 9  21170227.047        1154.446
   2115297.469 6   1465416.313 5  22960860.066        3816.266
 -18697875.980 8 -12974031.678 8  21508553.218       -1102.071
 -13380559.172 7 -10431781.533 6  22097143.669       -1675.509
  -7918707.646 7  -6421172.043 7  21501468.502        1545.825
  -1042006.678 5    618527.534 5  25084917.595        3399.829
 92 11 17 18 49 30.0010000  0  6 23  3 21 28 17 26                   0.001303560
    599842.389 8 -12554561.898 9  21176838.808        1161.631
   2229972.776 6   1554773.539 5  22982682.798        3828.516
 -18730801.009 8 -12999687.543 8  21502287.756       -1092.916
 -13430555.005 7 -10470739.293 6  22087629.284       -1657.630
  -7872184.412 7  -6384920.215 7  21510321.784        1555.607
   -939907.098 5    698085.355 5  25104346.124        3406.686
 92 11 17 18 50  0.0010000  0  6 23  3 21 28 17 26                   0.001307320
    634792.253 8 -12527328.277 9  21183489.754        1168.345
   2345014.633 6   1644416.402 5  23004574.844        3840.734
 -18763451.495 8 -13025129.486 8  21496074.368       -1083.881
 -13480010.682 7 -10509276.163 6  22078218.417       -1639.286
  -7825369.588 7  -6348441.166 7  21519230.127        1565.361
   -837602.051 5    777803.343 5  25123814.660        3413.528
 92 11 17 18 50 30.0010000  0  6 23  3 21 28 17 26                   0.001311110
    669944.206 8 -12499937.146 9  21190178.974        1175.247
   2460421.632 6   1734343.765 5  23026536.132        3852.907
 -18795830.483 8 -13050359.861 8  21489913.122       -1074.756
 -13528911.580 7 -10547380.727 6  22068912.910       -1620.744
  -7778259.144 7  -6311731.773 7  21528194.650        1575.576
   -735101.762 5    857673.421 5  25143320.544        3419.902
 92 11 17 18 51  0.0010000  0  6 23  3 21 28 17 26                   0.001314930
    705303.976 8 -12472384.096 9  21196907.717        1182.048
   2576192.111 6   1824554.386 5  23048566.697        3864.882
 -18827935.549 8 -13075376.783 8  21483803.615       -1065.528
 -13577251.787 7 -10585048.386 6  22059713.620       -1601.987
  -7730837.402 7  -6274779.798 7  21537218.703        1585.739
   -632402.395 5    937698.625 5  25162863.821        3426.500
 92 11 17 18 51 30.0010000  0  6 23  3 21 28 17 26                   0.001318760
    740871.615 8 -12444669.076 9  21203675.873        1189.386
   2692323.017 6   1915045.856 5  23070666.186        3876.984
 -18859759.040 8 -13100174.299 8  21477747.664       -1055.896
 -13625034.773 7 -10622281.846 6  22050620.643       -1583.427
  -7683122.551 7  -6237599.440 7  21546298.727        1595.279
   -529517.370 5   1017868.639 5  25182441.576        3432.374
 92 11 17 18 52  0.0010000  0  6 23  3 21 28 17 26                   0.001322600
    776665.439 8 -12416777.800 9  21210487.105        1196.998
   2808811.548 6   2005815.972 5  23092833.195        3888.773
 -18891294.475 8 -13124747.361 8  21471746.968       -1046.429
 -13672256.557 7 -10659078.020 6  22041634.804       -1564.605
  -7635126.773 7  -6200200.180 7  21555431.866        1604.558
   -426460.379 5   1098172.456 5  25202053.068        3438.195
 92 11 17 18 52 30.0010000  0  6 23  3 21 28 17 26                   0.001326460
    812696.270 8 -12388701.850 9  21217343.658        1205.104
   2925654.183 6   2096862.029 5  23115068.092        3900.478
 -18922538.275 8 -13149093.160 8  21465801.537       -1036.642
 -13718921.420 7 -10695440.195 6  22032754.322       -1546.512
  -7586849.013 7  -6162581.174 7  21564618.745        1613.961
   -323223.890 5   1178616.253 5  25221699.256        3444.442
 92 11 17 18 53  0.0010000  0  6 23  3 21 28 17 26                   0.001330330
    848965.152 8 -12360440.389 9  21224245.541        1212.876
   3042844.041 6   2188178.666 5  23137368.373        3912.022
 -18953497.723 8 -13173217.387 8  21459910.091       -1027.291
 -13765047.216 7 -10731382.356 7  22023977.410       -1528.479
  -7538297.075 7  -6124748.526 7  21573857.958        1622.837
   -219795.454 5   1259209.585 5  25241380.493        3450.686
 92 11 17 18 53 30.0010000  0  6 23  3 21 28 17 26                   0.001334210
    885473.633 8 -12331992.242 9  21231192.741        1221.016
   3160381.271 6   2279765.958 5  23159735.131        3923.576
 -18984176.025 8 -13197122.548 8  21454071.984       -1017.973
 -13810631.412 7 -10766902.461 7  22015302.985       -1510.324
  -7489467.112 7  -6086699.249 7  21583150.165        1632.582
   -116177.962 5   1339950.270 5  25261099.080        3457.183
 92 11 17 18 54  0.0010000  0  6 23  3 21 28 17 26                   0.001338090
    922222.985 8 -12303356.411 9  21238185.970        1228.760
   3278264.055 6   2371622.522 5  23182167.280        3935.003
 -19014578.495 8 -13220812.781 7  21448286.789       -1008.964
 -13855662.672 7 -10801991.749 7  22006733.606       -1491.799
  -7440331.121 7  -6048411.504 7  21592500.922        1643.213
    -12359.307 5   1420847.715 5  25280855.091        3463.924
 92 11 17 18 54 30.0010000  0  6 23  3 21 28 17 26                   0.001341980
    959199.289 8 -12274543.717 9  21245222.409        1236.329
   3396486.698 6   2463743.893 5  23204663.856        3946.252
 -19044710.525 8 -13244292.273 7  21442552.859        -999.855
 -13900147.215 7 -10836655.016 7  21998268.243       -1473.739
  -7390870.333 7  -6009870.660 6  21601913.117        1654.151
     91656.226 5   1501898.597 5  25300648.526        3470.160
 92 11 17 18 55  0.0010000  0  6 23  3 21 28 17 26                   0.001345860
    996407.754 8 -12245550.141 9  21252302.907        1244.146
   3515047.968 6   2556129.142 5  23227225.765        3957.577
 -19074566.188 8 -13267556.408 7  21436871.325        -990.571
 -13944079.914 7 -10870888.274 7  21989908.405       -1455.144
  -7341076.417 7  -5971070.248 6  21611388.498        1665.468
    195849.688 5   1583088.086 5  25320475.477        3475.756
 92 11 17 18 55 30.0010000  0  5 23  3 21 28 17                      0.001349760
   1033849.925 8 -12216374.443 9  21259428.123        1251.936
   3633945.417 6   2648776.334 5  23249851.354        3968.696
 -19104148.716 8 -13290607.712 7  21431241.750        -981.539
 -13987456.167 7 -10904687.938 7  21981653.877       -1436.630
  -7290937.865 7  -5932001.266 6  21620929.304        1676.977
 92 11 17 18 56  0.0010000  0  5 23  3 21 28 17                      0.001353590
   1071517.282 8 -12187023.281 9  21266595.492        1259.196
   3753174.607 6   2741682.048 5  23272540.364        3979.718
 -19133460.014 8 -13313447.664 8  21425663.772        -972.459
 -14030277.957 7 -10938055.560 7  21973505.148       -1418.116
  -7240463.898 7  -5892670.924 6  21630533.894        1687.841
 92 11 17 18 56 30.0010000  0  5 23  3 21 28 17                      0.001357410
   1109404.314 8 -12157500.952 9  21273805.092        1266.655
   3872731.618 6   2834843.151 5  23295291.196        3990.537
 -19162492.085 8 -13336070.051 8  21420139.354        -962.908
 -14072540.441 7 -10970987.358 7  21965463.146       -1399.313
  -7189675.235 7  -5853095.382 6  21640198.893        1697.923
 92 11 17 18 57  0.0010000  0  5 23  3 21 28 17                      0.001361200
   1147519.353 8 -12127800.951 9  21281058.240        1274.244
   3992613.596 6   2928257.514 5  23318104.162        4001.287
 -19191234.394 8 -13358466.639 8  21414669.995        -953.402
 -14114232.035 7 -11003474.299 7  21957529.487       -1380.083
  -7138587.721 7  -5813286.945 6  21649920.811        1707.692
 92 11 17 18 57 30.0010000  0  5 23  3 21 28 17                      0.001365010
   1185854.954 8 -12097929.080 9  21288353.399        1281.427
   4112819.015 6   3021923.938 5  23340978.263        4012.049
 -19219690.398 8 -13380640.143 8  21409255.303        -943.502
 -14155335.179 7 -11035502.703 7  21949707.511       -1360.256
  -7087213.310 7  -5773254.962 6  21659696.884        1717.071
 92 11 17 18 58  0.0010000  0  5 23  3 21 28 17                      0.001368820
   1224400.596 8 -12067893.552 9  21295688.292        1288.396
   4233344.246 6   3115839.518 5  23363913.621        4022.733
 -19247841.986 8 -13402576.437 8  21403898.070        -933.187
 -14195838.703 7 -11067063.887 7  21941999.919       -1339.864
  -7035562.817 7  -5733007.859 6  21669525.749        1726.467
 92 11 17 18 58 30.0010000  0  5 23  3 21 28 17                      0.001372630
   1263163.535 8 -12037688.693 9  21303064.963        1295.672
   4354189.640 6   3210004.571 5  23386910.111        4033.346
 -19275678.153 8 -13424266.954 8  21398600.857        -922.807
 -14235731.046 7 -11098148.809 7  21934408.862       -1319.759
  -6983621.970 7  -5692534.490 6  21679409.984        1736.159
 92 11 17 18 59  0.0010000  0  5 23  3 21 28 17                      0.001376450
   1302142.786 8 -12007315.287 9  21310482.748        1302.916
   4475350.287 6   3304415.298 5  23409966.916        4043.775
 -19303220.694 8 -13445728.667 8  21393359.732        -913.580
 -14275025.260 7 -11128767.667 7  21926931.532       -1299.886
  -6931384.519 7  -5651830.020 6  21689350.087        1746.381
 92 11 17 18 59 30.0010000  0  6 23  3 21 11 28 17                   0.001380740
   1341328.610 8 -11976780.902 9  21317939.427        1309.442
   4596824.529 6   3399070.387 5  23433082.813        4054.217
 -19330497.543 8 -13466983.342 8  21388169.549        -904.965
   1961309.29915    -22041.04711  25427388.483       -3565.093
 -14313724.163 7 -11158922.656 7  21919567.450       -1280.290
  -6878838.693 7  -5610885.247 6  21699349.522        1756.629
 92 11 17 19  0  0.0010000  0  6 23  3 21 11 28 17                   0.001384620
   1380712.762 8 -11946091.985 9  21325433.781        1316.113
   4718606.681 6   3493965.371 5  23456257.862        4064.440
 -19357523.240 8 -13488042.313 8  21383026.688        -896.896
   1854376.180 5   -105375.614 1  25407039.333       -3563.741
 -14351844.531 7 -11188626.823 7  21912313.480       -1261.187
  -6825982.124 7  -5569698.347 6  21709407.601        1767.171
 92 11 17 19  0 30.0010000  0  6 23  3 21 11 28 17                   0.001388520
   1420298.910 8 -11915245.670 9  21332966.775        1322.767
   4840694.814 6   3589098.828 5  23479490.626        4074.532
 -19384313.890 8 -13508918.143 8  21377928.427        -889.351
   1747483.942 5   -188680.752 2  25386697.601       -3562.365
 -14389403.210 7 -11217893.335 7  21905166.980       -1242.852
  -6772813.202 7  -5528268.060 6  21719525.435        1777.206
 92 11 17 19  1  0.0010000  0  6 23  3 21 11 28 17                   0.001392430
   1460079.879 8 -11884247.543 9  21340536.734        1329.256
   4963085.136 6   3684467.718 5  23502780.564        4084.636
 -19410886.268 8 -13529623.896 8  21372872.117        -881.928
   1640634.381 5   -271940.013 3  25366365.469       -3560.934
 -14426416.196 7 -11246734.633 7  21898123.206       -1224.677
  -6719347.093 7  -5486606.172 6  21729699.712        1787.218
 92 11 17 19  1 30.0010000  0  6 23  3 21 11 28 17                   0.001396350
   1500055.269 8 -11853097.929 9  21348143.618        1335.815
   5085776.581 6   3780071.273 5  23526127.980        4094.633
 -19437218.619 8 -13550142.614 8  21367861.078        -873.384
   1533831.826 5   -355162.597 4  25346041.433       -3559.229
 -14462884.649 7 -11275151.596 7  21891183.023       -1206.571
  -6665586.373 7  -5444714.730 6  21739929.500        1796.864
 92 11 17 19  2  0.0010000  0  6 23  3 21 11 28 17                   0.001400280
   1540234.629 8 -11821789.374 9  21355789.903        1342.859
   5208764.891 6   3875906.110 5  23549532.067        4104.448
 -19463285.054 8 -13570454.123 8  21362900.673        -864.291
   1427077.756 5   -438347.407 5  25325726.023       -3557.599
 -14498812.562 7 -11303147.365 7  21884346.032       -1188.338
  -6611529.552 7  -5402592.577 6  21750216.148        1807.065
 92 11 17 19  2 30.0010000  0  6 23  3 21 11 28 17                   0.001404210
   1580631.546 8 -11790311.284 9  21363477.083        1350.323
   5332050.108 6   3971972.316 5  23572992.307        4114.428
 -19489078.027 8 -13590552.547 8  21357992.220        -855.293
   1320377.546 5   -521490.214 5  25305421.999       -3555.627
 -14534180.535 8 -11330706.828 7  21877615.880       -1169.288
  -6557158.376 7  -5360225.450 6  21760562.686        1817.739
 92 11 17 19  3  0.0010000  0  6 23  3 21 11 28 17                   0.001408150
   1621249.696 8 -11758660.804 9  21371206.124        1357.742
   5455629.844 6   4068268.033 5  23596509.398        4124.151
 -19514600.651 8 -13610440.318 8  21353135.273        -846.039
   1213734.592 5   -604588.490 5  25285128.328       -3553.764
 -14568966.935 7 -11357813.111 7  21870995.874       -1149.524
  -6502464.306 7  -5317606.753 6  21770970.910        1828.772
 92 11 17 19  3 30.0010000  0  6 23  3 21 11 28 17                   0.001412080
   1662094.310 8 -11726833.875 9  21378978.521        1365.093
   5579500.572 6   4164790.479 5  23620081.250        4133.667
 -19539838.255 8 -13630105.993 8  21348332.818        -836.542
   1107150.792 5   -687640.539 5  25264845.712       -3551.747
 -14603144.378 7 -11384444.887 7  21864492.247       -1128.902
  -6447434.741 7  -5274726.611 6  21781443.139        1839.911
 92 11 17 19  4  0.0010000  0  6 23  3 21 11 28 17                   0.001416020
   1703151.119 8 -11694841.599 9  21386791.611        1371.874
   5703657.942 6   4261536.292 5  23643707.969        4143.155
 -19564799.602 8 -13649556.395 8  21343582.756        -827.646
   1000627.765 5   -770645.412 5  25244575.885       -3549.667
 -14636699.183 7 -11410591.486 7  21858106.559       -1108.034
  -6392071.501 7  -5231586.432 6  21791978.548        1850.834
 92 11 17 19  4 30.0010000  0  6 23  3 21 11 28 17                   0.001419960
   1744405.528 8 -11662695.334 9  21394641.988        1378.364
   5828101.638 6   4358505.207 5  23667388.751        4152.694
 -19589495.208 8 -13668799.747 8  21338883.439        -818.764
    894170.377 6   -853598.980 5  25224317.554       -3547.453
 -14669627.630 7 -11436250.022 7  21851840.747       -1087.434
  -6336393.219 7  -5188200.801 6  21802573.652        1860.848
 92 11 17 19  5  0.0010000  0  6 23  3 21 11 28 17                   0.001423910
   1785847.493 7 -11630402.943 9  21402528.008        1384.360
   5952824.973 6   4455691.993 5  23691122.916        4161.920
 -19613914.984 8 -13687828.154 8  21334236.474        -809.231
    787777.698 5   -936502.233 5  25204072.109       -3545.282
 -14701949.467 7 -11461435.857 7  21845690.540       -1067.453
  -6280425.659 7  -5144589.741 6  21813223.999        1870.368
 92 11 17 19  5 30.0010000  0  6 23  3 21 11 28 17                   0.001427860
   1827466.559 7 -11597972.526 9  21410448.045        1390.104
   6077826.046 6   4553095.228 5  23714909.991        4171.294
 -19638052.013 8 -13706636.245 8  21329643.174        -799.921
    681453.497 5  -1019352.106 5  25183839.288       -3542.975
 -14733677.843 7 -11486159.275 7  21839652.742       -1047.816
  -6224176.507 7  -5100759.299 6  21823927.871        1879.601
 92 11 17 19  6  0.0010000  0  6 23  3 21 11 28 17                   0.001431810
   1869253.239 7 -11565411.513 9  21418400.050        1395.834
   6203105.239 6   4650715.208 5  23738750.167        4180.522
 -19661910.589 8 -13725227.345 8  21325103.018        -790.592
    575203.924 5  -1102143.810 5  25163620.189       -3540.400
 -14764821.327 7 -11510426.908 7  21833726.665       -1028.434
  -6167650.051 7  -5056712.750 6  21834684.312        1888.843
 92 11 17 19  6 30.0010000  0  6 23  3 21 11 28 17                   0.001435770
   1911227.034 7 -11532704.704 9  21426387.122        1402.474
   6328659.204 6   4748549.276 5  23762641.937        4189.600
 -19685485.627 8 -13743597.518 8  21320616.614        -781.093
    469031.353 6  -1184875.480 5  25143414.995       -3537.799
 -14795383.168 7 -11534241.343 7  21827911.156       -1008.920
  -6110840.182 7  -5012445.363 6  21845494.958        1898.636
 92 11 17 19  7  0.0010000  0  6 23  3 21 11 28 17                   0.001439730
   1953396.573 8 -11499845.359 9  21434412.024        1408.753
   6454483.053 6   4846593.649 5  23786585.187        4198.495
 -19708777.352 8 -13761746.928 8  21316184.273        -771.864
    362936.697 5  -1267546.491 5  25123226.752       -3535.197
 -14825346.791 7 -11557589.616 7  21822208.997        -988.609
  -6053723.751 7  -4967939.100 6  21856363.834        1909.174
 92 11 17 19  7 30.0010000  0  6 23  3 21 11 28 17                   0.001443690
   1995760.401 7 -11466834.621 9  21442473.297        1415.536
   6580574.918 6   4944846.851 5  23810579.440        4207.426
 -19731797.499 8 -13779684.708 8  21311803.824        -762.790
    256923.522 6  -1350153.981 5  25103052.456       -3532.366
 -14854694.090 7 -11580457.644 7  21816623.887        -967.789
  -5996283.288 7  -4923180.375 6  21867294.609        1920.182
 92 11 17 19  8  0.0010000  0  6 23  3 21 11 28 17                   0.001447650
   2038335.832 7 -11433659.002 9  21450574.817        1423.013
   6706931.444 6   5043306.302 5  23834624.733        4216.123
 -19754547.559 8 -13797412.043 8  21307475.022        -753.885
    150994.355 5  -1432696.060 5  25082895.231       -3529.517
 -14883415.572 7 -11602838.017 7  21811158.190        -946.998
  -5938508.823 7  -4878161.366 6  21878289.005        1931.437
 92 11 17 19  8 30.0010000  0  6 23  3 21 11 28 17                   0.001451620
   2081144.755 7 -11400301.440 9  21458721.346        1430.639
   6833549.271 6   5141969.329 5  23858719.065        4224.728
 -19777034.760 8 -13814934.518 8  21303195.835        -745.533
     45151.594 6  -1515170.712 5  25062754.106       -3526.682
 -14911514.171 7 -11624733.036 7  21805811.539        -926.364
  -5880393.906 7  -4832877.068 6  21889347.970        1942.853
 92 11 17 19  9  0.0010000  0  6 23  3 21 11 28 17                   0.001455590
   2124169.378 7 -11366775.798 9  21466908.827        1437.679
   6960424.887 6   5240833.257 5  23882863.116        4233.341
 -19799277.148 8 -13832266.257 8  21298962.832        -737.433
    -60602.470 5  -1597576.321 5  25042629.419       -3523.594
 -14938997.325 7 -11646148.473 7  21800581.341        -906.019
  -5821939.599 7  -4787328.320 6  21900471.518        1953.775
 92 11 17 19  9 30.0010000  0  6 23  3 21 11 28 17                   0.001459560
   2167412.124 7 -11333080.181 9  21475137.581        1445.038
   7087558.690 6   5339898.341 5  23907055.502        4241.961
 -19821275.679 8 -13849407.972 8  21294776.803        -729.128
   -166261.794 6  -1679908.007 5  25022522.756       -3520.376
 -14965883.947 7 -11667099.080 7  21795464.923        -886.392
  -5763172.454 7  -4741535.800 6  21911654.158        1963.927
 92 11 17 19 10  0.0010000  0  6 23  3 21 11 28 17                   0.001463550
   2210867.448 7 -11299218.938 9  21483406.866        1451.806
   7214949.378 6   5439163.596 5  23931297.738        4250.559
 -19843022.369 8 -13866353.455 8  21290638.507        -720.533
   -271821.785 5  -1762162.324 5  25002434.921       -3516.963
 -14992177.157 7 -11687587.301 7  21790461.429        -866.485
  -5704106.472 7  -4695510.416 6  21922893.877        1973.732
 92 11 17 19 10 30.0010000  0  6 23  3 21 11 28 17                   0.001467540
   2254509.879 7 -11265211.895 8  21491712.095        1457.553
   7342594.053 5   5538626.792 5  23955587.630        4258.930
 -19864507.395 8 -13883095.034 8  21286550.167        -711.711
   -377279.550 6  -1844336.999 5  24982367.797       -3513.476
 -15017875.509 7 -11707611.988 7  21785571.403        -846.593
  -5644753.404 7  -4649261.332 6  21934188.349        1983.141
 92 11 17 19 11  0.0010000  0  6 23  3 21 11 28 17                   0.001471540
   2298316.263 7 -11231077.085 8  21500048.166        1462.925
   7470487.643 6   5638283.918 5  23979926.143        4267.064
 -19885719.626 8 -13899624.037 8  21282513.685        -702.378
   -482634.268 6  -1926431.342 5  24962318.978       -3510.190
 -15042968.965 7 -11727165.331 7  21780796.681        -826.350
  -5585128.687 7  -4602800.571 6  21945534.772        1991.627
 92 11 17 19 11 30.0010000  0  6 23  3 21 11 28 17                   0.001475540
   2342286.038 7 -11196814.958 8  21508415.173        1468.158
   7598622.029 6   5738128.689 5  24004309.837        4275.003
 -19906643.297 8 -13915928.197 8  21278532.080        -692.545
   -587888.218 6  -2008447.248 5  24942288.886       -3506.657
 -15067452.730 7 -11746243.581 7  21776137.475        -805.782
  -5525246.578 7  -4556139.248 6  21956929.785        2000.709
 92 11 17 19 12  0.0010000  0  6 23  3 21 11 28 17                   0.001479540
   2386408.171 7 -11162434.122 8  21516811.632        1473.532
   7726998.317 6   5838161.950 5  24028738.897        4283.255
 -19927269.645 8 -13932000.678 8  21274607.005        -682.563
   -693034.407 6  -2090379.075 5  24922280.581       -3502.916
 -15091308.193 7 -11764832.254 7  21771597.746        -784.591
  -5465073.145 7  -4509250.929 6  21968380.387        2010.973
 92 11 17 19 12 30.0010000  0  6 23  3 21 11 28 17                   0.001483540
   2430696.525 7 -11127923.744 8  21525239.448        1479.034
   7855615.969 6   5938383.307 5  24053213.465        4291.128
 -19947609.155 8 -13947849.645 8  21270736.526        -673.565
   -798067.429 6  -2172222.801 5  24902293.420       -3499.263
 -15114538.483 7 -11782933.770 7  21767177.168        -763.979
  -5404588.671 7  -4462120.236 6  21979890.648        2021.475
 92 11 17 19 13  0.0010000  0  6 23  3 21 11 28 17                   0.001487560
   2475152.655 8 -11093282.652 8  21533699.260        1484.830
   7984470.696 5   6038789.384 5  24077733.722        4298.996
 -19967683.495 8 -13963491.987 8  21266916.532        -664.748
   -902985.969 6  -2253977.271 5  24882328.509       -3495.254
 -15137146.541 7 -11800550.439 7  21762874.523        -743.215
  -5343780.087 7  -4414736.981 6  21991461.858        2032.478
 92 11 17 19 13 30.0010000  0  6 23  3 21 11 28 17                   0.001491570
   2519780.081 7 -11058508.066 8  21542191.580        1490.263
   8113559.240 5   6139377.635 5  24102298.669        4306.766
 -19987504.657 8 -13978937.056 8  21263144.630        -656.613
  -1007787.191 6  -2335640.331 5  24862384.445       -3491.378
 -15159138.514 7 -11817687.046 7  21758689.014        -722.832
  -5282633.148 7  -4367090.081 6  22003098.023        2044.092
 92 11 17 19 14  0.0010000  0  6 23  3 21 11 28 17                   0.001495600
   2564583.169 8 -11023596.602 8  21550717.528        1496.797
   8242878.539 6   6240145.720 5  24126907.410        4314.405
 -20007079.788 8 -13994190.408 8  21259419.659        -648.291
  -1112468.424 6  -2417209.928 5  24842464.030       -3487.235
 -15180517.303 7 -11834345.854 7  21754620.809        -702.340
  -5221139.827 7  -4319173.254 6  22014799.812        2055.302
 92 11 17 19 14 30.0010000  0  6 23  3 21 11 28 17                   0.001499640
   2609580.376 8 -10988533.889 8  21559280.230        1503.001
   8372427.255 5   6341092.548 5  24151560.085        4321.955
 -20026409.359 8 -14009252.413 8  21255741.447        -640.212
  -1217025.026 6  -2498682.359 5  24822567.722       -3483.107
 -15201282.876 7 -11850526.828 7  21750669.425        -681.967
  -5159325.479 7  -4271006.302 6  22026562.888        2065.638
 92 11 17 19 15  0.0010000  0  6 23  3 21 11 28 17                   0.001503680
   2654771.075 8 -10953320.388 8  21567879.768        1509.817
   8502202.144 5   6442215.612 5  24176254.949        4329.458
 -20045479.233 8 -14024112.052 8  21252112.479        -631.082
  -1321454.282 6  -2580055.631 5  24802694.824       -3478.845
 -15221433.898 7 -11866228.919 7  21746835.207        -661.561
  -5097205.715 7  -4222601.342 6  22038383.566        2075.505
 92 11 17 19 15 30.0010000  0  6 23  3 21 11 28 17                   0.001507730
   2700165.889 8 -10917947.848 8  21576517.837        1516.456
   8632199.030 5   6543511.661 5  24200993.014        4336.730
 -20064274.537 8 -14038757.750 8  21248535.945        -621.818
  -1425754.374 6  -2661328.220 5  24782847.274       -3474.439
 -15240977.563 7 -11881457.759 7  21743115.964        -641.288
  -5034794.343 7  -4173969.160 6  22050259.803        2085.188
 92 11 17 19 16  0.0010000  0  6 23  3 21 11 28 17                   0.001511780
   2745766.598 8 -10882414.863 8  21585195.470        1523.368
   8762416.326 5   6644979.421 5  24225772.792        4344.020
 -20082785.457 8 -14053181.845 8  21245013.383        -612.554
  -1529920.791 6  -2742496.644 5  24763025.114       -3470.100
 -15259903.103 7 -11896204.935 7  21739514.677        -620.555
  -4972093.556 7  -4125111.472 6  22062191.782        2094.715
 92 11 17 19 16 30.0010000  0  6 23  3 21 11 28 17                   0.001515820
   2791561.434 8 -10846730.620 8  21593910.177        1529.655
   8892846.805 5   6746613.390 5  24250593.951        4351.190
 -20101030.271 8 -14067398.590 8  21241540.898        -603.776
  -1633954.821 6  -2823561.931 5  24743226.830       -3465.498
 -15278209.345 7 -11910469.557 7  21736031.427        -599.789
  -4909100.338 7  -4076025.917 6  22074179.532        2105.126
 92 11 17 19 17  0.0010000  0  6 23  3 21 11 28 17                   0.001519870
   2837547.277 7 -10810897.533 8  21602660.839        1535.918
   9023488.139 5   6848411.578 5  24275453.463        4358.001
 -20119014.810 8 -14081412.523 8  21238118.536        -595.378
  -1737852.978 5  -2904521.353 5  24723455.763       -3460.994
 -15295887.969 8 -11924245.117 7  21732667.748        -578.758
  -4845781.614 7  -4026686.705 6  22086229.141        2116.096
 92 11 17 19 17 30.0010000  0  6 23  3 21 11 28 17                   0.001523920
   2883712.547 8 -10774924.640 8  21611445.845        1541.649
   9154336.264 5   6950370.890 5  24300352.653        4364.961
 -20136757.943 8 -14095238.347 8  21234742.516        -587.518
  -1841613.461 6  -2985373.450 5  24703711.318       -3456.315
 -15312930.574 8 -11937525.068 7  21729424.611        -557.322
  -4782128.253 7  -3977086.741 6  22098341.856        2127.437
 92 11 17 19 18  0.0010000  0  6 23  3 21 11 28 17                   0.001527990
   2930048.633 8 -10738818.648 8  21620263.483        1547.485
   9285388.243 5   7052489.126 5  24325291.788        4371.644
 -20154271.837 8 -14108885.553 8  21231409.620        -580.161
  -1945232.781 6  -3066115.622 5  24683993.005       -3451.594
 -15329330.241 8 -11950304.044 7  21726304.163        -536.050
  -4718139.332 7  -3927225.312 6  22110518.258        2138.608
 92 11 17 19 18 30.0010000  0  6 23  3 21 11 28 17                   0.001532060
   2976553.681 7 -10702580.988 8  21629112.918        1552.818
   9416643.140 5   7154765.421 5  24350269.535        4378.382
 -20171560.135 8 -14122356.957 9  21228119.819        -572.353
  -2048706.162 6  -3146744.067 5  24664302.406       -3446.637
 -15345094.658 7 -11962587.999 7  21723304.698        -514.899
  -4653810.276 7  -3877098.838 6  22122759.542        2149.948
 92 11 17 19 19  0.0010000  0  6 23  3 21 11 28 17                   0.001536150
   3023219.959 7 -10666217.700 8  21637993.130        1558.066
   9548100.307 5   7257199.345 5  24375284.919        4385.164
 -20188607.608 8 -14135640.710 9  21224875.952        -564.045
  -2152028.360 6  -3227254.706 5  24644640.429       -3441.527
 -15360225.877 7 -11974378.573 7  21720425.203        -493.939
  -4589150.249 7  -3826714.454 6  22135063.932        2160.449
 92 11 17 19 19 30.0010000  0  6 23  3 21 11 28 17                   0.001540240
   3070027.689 8 -10629744.194 8  21646900.301        1562.768
   9679753.886 5   7359786.312 5  24400338.115        4391.714
 -20205396.674 8 -14148723.119 9  21221680.756        -554.963
  -2255198.808 6  -3307647.104 5  24625007.932       -3436.288
 -15374739.198 7 -11985687.674 7  21717663.255        -473.422
  -4524190.065 7  -3776096.174 6  22147425.067        2170.451
 92 11 17 19 20  0.0010000  0  6 23  3 21 11 28 17                   0.001544340
   3116982.330 7 -10593156.192 8  21655835.496        1567.610
   9811601.785 5   7462524.690 5  24425428.629        4398.029
 -20221908.501 8 -14161589.479 9  21218538.561        -545.759
  -2358213.654 6  -3387918.257 5  24605404.862       -3431.072
 -15388634.595 7 -11996515.251 7  21715018.895        -452.877
  -4458927.816 7  -3725242.546 6  22159844.360        2180.587
 92 11 17 19 20 30.0010000  0  6 23  3 21 11 28 17                   0.001548440
   3164083.973 7 -10556453.653 8  21664798.661        1572.475
   9943643.671 5   7565414.236 5  24450555.262        4404.414
 -20238141.159 8 -14174238.319 9  21215449.948        -536.434
  -2461067.129 6  -3468063.656 5  24585832.344       -3425.728
 -15401902.417 7 -12006853.829 7  21712493.953        -431.706
  -4393355.991 7  -3674147.678 6  22172322.261        2190.737
 92 11 17 19 21  0.0010000  0  6 23  3 21 11 28 17                   0.001552530
   3211342.453 7 -10519628.912 8  21673791.814        1578.218
  10075874.262 5   7668450.826 5  24475717.973        4410.756
 -20254093.619 8 -14186668.823 9  21212414.492        -526.932
  -2563758.771 5  -3548083.004 5  24566289.705       -3420.259
 -15414538.056 7 -12016699.799 7  21710089.590        -410.620
  -4327484.146 7  -3622819.034 6  22184857.412        2200.754
 92 11 17 19 21 30.0010000  0  6 23  3 21 11 28 17                   0.001556630
   3258775.913 7 -10482667.806 8  21682818.076        1584.260
  10208290.776 6   7771632.286 5  24500916.654        4416.938
 -20269766.165 8 -14198881.200 9  21209432.175        -517.955
  -2666284.939 6  -3627973.318 5  24546779.077       -3414.597
 -15426540.038 7 -12026051.993 7  21707805.530        -389.326
  -4261308.384 7  -3571253.568 6  22197450.515        2211.223
 92 11 17 19 22  0.0010000  0  6 23  3 21 11 28 17                   0.001560740
   3306397.266 7 -10445560.289 8  21691879.965        1590.439
  10340891.931 6   7874957.591 5  24526149.750        4423.012
 -20285177.699 8 -14210890.200 9  21206499.896        -509.555
  -2768640.888 6  -3707731.069 5  24527301.205       -3408.987
 -15437895.379 7 -12034900.338 7  21705644.274        -367.652
  -4194816.526 7  -3519441.803 6  22210103.384        2221.519
 92 11 17 19 22 30.0010000  0  6 23  3 21 11 28 17                   0.001564840
   3354205.695 7 -10408307.021 8  21700977.845        1596.858
  10473675.637 5   7978425.239 5  24551417.016        4429.107
 -20300334.885 8 -14222701.004 9  21203615.514        -500.793
  -2870822.843 6  -3787353.197 5  24507856.656       -3403.024
 -15448605.208 7 -12043245.673 7  21703606.417        -346.336
  -4128019.490 7  -3467392.230 6  22222814.476        2231.579
 92 11 17 19 23  0.0010000  0  6 23  3 21 11 28 17                   0.001568950
   3402201.211 7 -10370907.952 8  21710111.284        1602.847
  10606636.637 5   8082030.937 5  24576717.906        4434.906
 -20315229.179 8 -14234306.953 9  21200780.886        -492.130
  -2972829.561 6  -3866838.834 5  24488445.615       -3397.293
 -15458687.854 8 -12051102.271 7  21701687.632        -325.778
  -4060926.383 7  -3415111.950 6  22235581.679        2241.383
 92 11 17 19 23 30.0010000  0  6 23  3 21 11 28 17                   0.001573070
   3450360.848 7 -10333380.999 8  21719275.967        1607.861
  10739769.861 5   8185770.921 5  24602052.431        4440.507
 -20329872.352 8 -14245717.234 9  21197994.301        -484.022
  -3074660.396 6  -3946187.371 5  24469067.786       -3391.428
 -15468158.317 8 -12058481.853 7  21699885.551        -305.478
  -3993545.257 7  -3362607.242 6  22248403.830        2250.721
 92 11 17 19 24  0.0010000  0  6 23  3 21 11 28 17                   0.001577190
   3498678.251 7 -10295731.133 8  21728470.403        1613.149
  10873075.130 5   8289644.921 5  24627418.992        4446.234
 -20344257.023 8 -14256926.086 9  21195257.172        -475.022
  -3176309.283 6  -4025394.160 5  24449724.734       -3385.212
 -15477008.095 7 -12065377.797 7  21698201.388        -284.757
  -3925880.770 7  -3309881.753 6  22261279.927        2260.193
 92 11 17 19 24 30.0010000  0  6 23  3 21 11 28 17                   0.001581320
   3547150.913 8 -10257960.260 8  21737694.297        1618.330
  11006547.216 5   8393648.872 5  24652818.030        4451.680
 -20358375.838 8 -14267927.767 9  21192570.360        -466.142
  -3277775.008 6  -4104458.251 5  24430417.005       -3379.221
 -15485250.014 7 -12071800.078 7  21696633.012        -264.690
  -3857932.510 7  -3256935.117 6  22274210.293        2269.699
 92 11 17 19 25  0.0010000  0  6 23  3 21 11 28 17                   0.001585450
   3595778.152 8 -10220068.946 8  21746947.731        1623.514
  11140179.055 5   8497777.307 5  24678248.201        4456.927
 -20372226.030 8 -14278720.138 9  21189934.544        -457.287
  -3379058.947 6  -4183380.604 5  24411143.199       -3373.063
 -15492881.161 7 -12077746.442 7  21695180.638        -243.975
  -3789696.035 7  -3203763.905 6  22287195.544        2279.442
 92 11 17 19 25 30.0010000  0  6 23  3 21 11 28 17                   0.001589580
   3644562.744 8 -10182055.033 8  21756231.185        1628.889
  11273966.970 5   8602027.408 5  24703707.418        4462.096
 -20385815.964 8 -14289309.715 9  21187348.406        -448.531
  -3480158.209 6  -4262159.113 5  24391903.746       -3366.731
 -15499881.231 7 -12083201.061 7  21693848.630        -222.494
  -3721163.612 7  -3150362.100 6  22300236.987        2289.508
 92 11 17 19 26  0.0010000  0  6 23  3 21 11 28 17                   0.001593700
   3693516.487 7 -10143909.307 8  21765546.587        1634.693
  11407910.273 5   8706398.560 5  24729196.561        4467.332
 -20399134.946 8 -14299688.150 9  21184813.938        -439.522
  -3581067.673 6  -4340789.712 5  24372701.343       -3360.308
 -15506226.546 7 -12088145.476 7  21692641.357        -200.468
  -3652324.178 7  -3096721.038 6  22313336.590        2299.865
 92 11 17 19 26 30.0010000  0  6 23  3 21 11 28 17                   0.001597830
   3742639.552 7 -10105631.628 8  21774894.384        1640.314
  11542007.008 5   8810889.325 4  24754714.729        4472.371
 -20412197.796 8 -14309866.998 9  21182328.179        -431.198
  -3681783.229 6  -4419269.214 5  24353535.439       -3353.752
 -15511913.004 7 -12092576.518 7  21691559.147        -178.359
  -3583177.445 7  -3042840.531 6  22326494.470        2310.063
 92 11 17 19 27  0.0010000  0  6 23  3 21 11 28 17                   0.001601960
   3791926.390 7 -10067226.348 8  21784273.822        1645.497
  11676254.742 5   8915497.722 4  24780262.520        4477.383
 -20425013.974 8 -14319853.644 9  21179889.455        -423.307
  -3782300.629 6  -4497594.347 5  24334407.714       -3347.237
 -15516931.123 7 -12096486.749 7  21690604.148        -156.257
  -3513720.980 7  -2988718.680 6  22339711.591        2320.391
 92 11 17 19 27 30.0010000  0  6 23  3 21 11 28 17                   0.001606090
   3841362.862 7 -10028704.466 8  21793681.290        1650.193
  11810651.696 5   9020222.344 4  24805837.401        4482.318
 -20437594.506 8 -14329656.652 9  21177495.665        -415.296
  -3882615.840 6  -4575761.921 5  24315318.729       -3340.361
 -15521290.714 8 -12099883.845 7  21689774.719        -134.356
  -3443952.657 7  -2934353.826 6  22352988.109        2330.798
 92 11 17 19 28  0.0010000  0  6 23  3 21 11 28 17                   0.001610220
   3890937.880 7  -9990074.626 8  21803114.868        1654.688
  11945195.450 5   9125061.436 4  24831439.486        4487.141
 -20449932.776 8 -14339270.891 9  21175148.068        -407.475
  -3982724.848 6  -4653768.790 5  24296268.971       -3333.562
 -15524999.403 8 -12102773.763 8  21689069.272        -112.986
  -3373873.980 7  -2879747.138 6  22366324.137        2341.071
 92 11 17 19 28 30.0010000  0  6 23  3 21 11 28 17                   0.001614370
   3940645.275 7  -9951341.638 8  21812573.860        1659.210
  12079881.909 5   9230011.667 4  24857068.992        4491.857
 -20462042.205 8 -14348706.828 9  21172843.696        -399.703
  -4082625.928 6  -4731613.664 5  24277258.003       -3326.456
 -15528076.458 8 -12105171.494 8  21688483.484         -92.172
  -3303485.580 7  -2824899.123 6  22379718.783        2351.740
 92 11 17 19 29  0.0010000  0  6 23  3 21 11 28 17                   0.001618520
   3990490.004 7  -9912501.638 8  21822059.191        1663.775
  12214707.495 5   9335070.240 4  24882725.088        4496.304
 -20473916.692 8 -14357959.671 9  21170583.880        -392.016
  -4182316.115 6  -4809294.208 5  24258287.478       -3319.504
 -15530529.523 7 -12107082.993 7  21688016.798         -71.337
  -3232771.504 7  -2769797.331 6  22393175.666        2362.254
 92 11 17 19 29 30.0010000  0  6 23  3 21 11 28 17                   0.001622690
   4040475.150 7  -9873552.218 7  21831570.877        1668.526
  12349668.525 5   9440234.495 4  24908407.540        4500.846
 -20485557.229 8 -14367030.220 9  21168368.735        -384.119
  -4281792.871 6  -4886808.455 5  24239357.481       -3312.217
 -15532351.125 7 -12108502.445 7  21687669.848         -50.046
  -3161752.260 7  -2714457.723 6  22406690.119        2372.291
 92 11 17 19 30  0.0010000  0  6 23  3 21 11 28 17                   0.001626860
   4090608.581 7  -9834487.247 7  21841111.285        1673.770
  12484765.748 5   9545504.775 4  24934115.829        4505.422
 -20496965.754 8 -14375919.978 9  21166197.816        -376.435
  -4381049.430 6  -4964151.111 5  24220469.824       -3304.790
 -15533530.288 7 -12109421.283 7  21687445.284         -28.506
  -3090437.042 7  -2658887.494 6  22420260.928        2382.160
 92 11 17 19 30 30.0010000  0  6 23  3 21 11 28 17                   0.001631040
   4140902.408 7  -9795297.304 7  21850681.678        1679.183
  12619994.975 5   9650877.934 4  24959849.063        4509.657
 -20508142.964 8 -14384629.506 9  21164070.866        -368.521
  -4480083.697 6  -5041320.509 5  24201623.886       -3297.428
 -15534062.259 7 -12109835.830 7  21687343.905          -6.843
  -3018822.851 7  -2603084.321 5  22433888.412        2392.265
 92 11 17 19 31  0.0010000  0  6 23  3 21 11 28 17                   0.001635230
   4191354.959 7  -9755983.673 7  21860282.561        1684.091
  12755354.502 5   9756352.647 3  24985607.226        4513.989
 -20519075.172 8 -14393148.114 9  21161990.810        -360.393
  -4578891.250 6  -5118313.305 5  24182821.702       -3289.817
 -15533936.541 7 -12109737.874 7  21687367.607          15.080
  -2946905.147 7  -2547044.641 5  22447573.628        2402.035
 92 11 17 19 31 30.0010000  0  6 23  3 21 11 28 17                   0.001639430
   4241944.267 7  -9716563.474 7  21869909.078        1688.598
  12890838.521 5   9861924.341 3  25011389.629        4518.090
 -20529762.113 8 -14401475.602 9  21159956.698        -351.994
  -4677471.713 6  -5195129.139 5  24164062.317       -3282.176
 -15533165.542 7 -12109137.112 7  21687514.177          36.232
  -2874690.567 7  -2490773.615 5  22461315.395        2412.466
 92 11 17 19 32  0.0010000  0  6 23  3 21 11 28 17                   0.001643610
   4292677.507 7  -9677031.128 7  21879563.272        1693.712
  13026441.852 5   9967588.998 3  25037192.742        4522.004
 -20540192.155 8 -14409602.916 9  21157971.752        -343.182
  -4775823.754 6  -5271766.973 5  24145346.113       -3274.480
 -15531761.621 7 -12108043.167 7  21687781.449          57.356
  -2802156.101 7  -2434253.329 5  22475118.769        2423.372
 92 11 17 19 32 30.0010000  0  6 23  3 21 11 28 17                   0.001647800
   4343558.310 7  -9637383.782 7  21889245.791        1698.355
  13162158.317 5  10073341.746 3  25063018.554        4525.666
 -20550361.340 8 -14417526.962 9  21156036.479        -334.738
  -4873947.583 6  -5348226.993 5  24126673.637       -3266.924
 -15529737.443 7 -12106465.906 7  21688166.874          77.628
  -2729293.152 6  -2377477.074 5  22488984.211        2434.155
 92 11 17 19 33  0.0010000  0  5 23 21 11 28 17                      0.001652040
   4394578.026 7  -9597628.201 7  21898954.389        1703.088
 -20560274.672 8 -14425251.632 9  21154150.169        -326.230
  -4971839.270 6  -5424506.104 5  24108045.635       -3259.114
 -15527104.632 7 -12104414.379 7  21688667.997          97.953
  -2656114.055 6  -2320454.510 5  22502909.711        2444.278
 92 11 17 19 33 30.0010000  0  5 23 21 11 28 17                      0.001656270
   4445746.749 7  -9557756.508 7  21908691.740        1708.261
 -20569929.871 8 -14432775.180 9  21152312.849        -317.437
  -5069494.095 6  -5500600.694 5  24089462.673       -3251.144
 -15523854.379 8 -12101881.723 7  21689286.799         118.743
  -2582638.493 6  -2263200.907 5  22516891.192        2454.092
 92 11 17 19 34  0.0010000  0  5 23 21 11 28 17                      0.001660470
   4497068.603 7  -9517765.492 7  21918458.037        1713.168
 -20579323.683 8 -14440095.034 9  21150525.827        -308.819
  -5166910.136 6  -5576509.186 5  24070924.425       -3243.062
 -15519980.051 8 -12098862.793 7  21690023.949         139.559
  -2508876.863 6  -2205724.394 5  22530927.645        2463.371
 92 11 17 19 34 30.0010000  0  5 23 21 11 28 17                      0.001664650
   4548528.331 7  -9477667.060 7  21928250.020        1717.484
 -20588462.718 8 -14447216.367 9  21148786.717        -300.335
  -5264082.482 6  -5652227.777 5  24052433.423       -3234.924
 -15515488.451 8 -12095362.853 7  21690879.027         160.034
  -2434847.175 6  -2148039.014 5  22545015.042        2471.952
 92 11 17 19 35  0.0010000  0  5 23 21 11 28 17                      0.001668780
   4600117.459 7  -9437467.780 7  21938067.333        1721.746
 -20597341.481 8 -14454134.880 9  21147097.010        -291.591
  -5361010.622 6  -5727756.066 5  24033988.724       -3226.803
 -15510371.172 8 -12091375.378 7  21691853.003         181.192
  -2360559.493 6  -2090152.611 5  22559151.513        2480.560
 92 11 17 19 35 30.0010000  0  5 23 21 11 28 17                      0.001672900
   4651832.868 7  -9397170.104 7  21947908.579        1725.857
 -20605963.014 8 -14460852.985 9  21145456.386        -283.255
  -5457689.727 6  -5803090.357 5  24015591.921       -3218.471
 -15504616.179 8 -12086890.974 7  21692948.144         202.294
  -2286003.867 6  -2032057.400 5  22573339.171        2489.910
 92 11 17 19 36  0.0010000  0  5 23 21 11 28 17                      0.001677010
   4703677.245 7  -9356771.940 7  21957774.571        1730.450
 -20614341.016 8 -14467381.289 9  21143862.249        -275.459
  -5554114.321 6  -5878226.293 5  23997241.888       -3209.855
 -15498227.859 8 -12081913.091 7  21694164.233         223.639
  -2211156.988 6  -1973735.258 5  22587582.302        2499.818
 92 11 17 19 36 30.0010000  0  5 23 21 11 28 17                      0.001681140
   4755665.799 7  -9316261.409 7  21967667.440        1735.353
 -20622486.429 8 -14473728.390 9  21142312.231        -267.575
  -5650282.403 6  -5953162.320 5  23978942.331       -3201.297
 -15491189.229 7 -12076428.448 7  21695503.518         245.704
  -2136011.757 6  -1915180.627 5  22601882.250        2509.872
 92 11 17 19 37  0.0010000  0  5 23 21 11 28 17                      0.001685280
   4807804.743 7  -9275633.721 7  21977589.285        1740.403
 -20630398.196 8 -14479893.413 9  21140806.612        -260.108
  -5746189.272 6  -6027894.860 5  23960690.957       -3192.531
 -15483473.708 8 -12070416.386 7  21696971.390         268.441
  -2060552.028 6  -1856380.934 5  22616241.809        2520.582
 92 11 17 19 37 30.0010000  0  5 23 21 11 28 17                      0.001689470
   4860092.696 7  -9234889.920 7  21987539.473        1745.481
 -20638089.365 8 -14485886.532 9  21139342.679        -252.601
  -5841831.224 6  -6102420.944 5  23942490.251       -3183.531
 -15475086.056 8 -12063880.566 7  21698567.562         290.704
  -1984765.729 6  -1797326.780 5  22630663.329        2531.829
 92 11 17 19 38  0.0010000  0  5 23 21 11 28 17                      0.001693700
   4912535.248 7  -9194025.655 7  21997518.833        1750.755
 -20645555.788 8 -14491704.543 9  21137921.801        -244.876
  -5937206.698 6  -6176739.373 5  23924341.113       -3174.616
 -15466037.010 8 -12056829.364 7  21700289.251         312.668
  -1908653.505 6  -1738018.648 5  22645146.981        2542.407
 92 11 17 19 38 30.0010000  0  5 23 21 11 28 17                      0.001697930
   4965123.649 7  -9153047.738 7  22007526.106        1755.113
 -20652779.431 8 -14497333.362 9  21136546.782        -236.733
  -6032312.699 6  -6250847.854 5  23906242.875       -3165.688
 -15456334.214 8 -12049268.771 7  21702135.785         334.022
  -1832228.506 6  -1678466.795 5  22659690.222        2552.643
 92 11 17 19 39  0.0010000  0  5 23 21 11 28 17                      0.001702180
   5017845.306 7  -9111965.967 7  22017558.692        1759.751
 -20659761.903 8 -14502774.262 9  21135218.066        -228.669
  -6127144.696 6  -6324742.804 5  23888196.785       -3156.393
 -15446002.855 8 -12041218.371 7  21704101.511         354.536
  -1755493.042 6  -1618673.026 5  22674292.866        2562.973
 92 11 17 19 39 30.0010000  0  5 23 21 11 28 17                      0.001706430
   5070709.954 7  -9070772.798 7  22027618.720        1764.666
 -20666494.944 8 -14508020.805 9  21133936.749        -220.181
  -6221696.855 6  -6398419.692 5  23870203.610       -3147.065
 -15435071.512 7 -12032700.464 7  21706182.212         374.231
  -1678455.392 6  -1558643.775 5  22688952.914        2572.759
 92 11 17 19 40  0.0010000  0  5 23 21 11 28 17                      0.001710640
   5123721.794 7  -9029464.938 7  22037706.445        1769.431
 -20672976.176 8 -14513071.128 9  21132703.344        -211.853
  -6315969.314 6  -6471878.661 5  23852263.959       -3137.704
 -15423547.130 7 -12023720.455 7  21708375.423         394.083
  -1601138.772 6  -1498397.181 5  22703665.877        2581.743
 92 11 17 19 40 30.0010000  0  5 23 21 11 28 17                      0.001714830
   5176872.842 7  -8988048.597 7  22047821.030        1773.846
 -20679206.408 8 -14517925.861 9  21131517.915        -203.752
  -6409957.564 6  -6545116.149 5  23834379.431       -3128.208
 -15411421.500 7 -12014271.918 7  21710682.956         414.169
  -1523545.674 6  -1437935.092 5  22718431.288        2590.981
 92 11 17 19 41  0.0010000  0  5 23 21 11 28 17                      0.001719010
   5230155.199 7  -8946529.942 7  22057960.081        1778.235
 -20685199.163 8 -14522595.555 9  21130377.505        -195.687
  -6503659.327 6  -6618130.397 5  23816548.778       -3118.509
 -15398691.894 7 -12004352.767 7  21713105.389         434.510
  -1445677.082 6  -1377258.366 5  22733249.079        2600.269
 92 11 17 19 41 30.0010000  0  5 23 21 11 28 17                      0.001723170
   5283563.819 7  -8904912.883 7  22068123.766        1782.237
 -20690951.213 8 -14527077.673 9  21129283.230        -187.829
  -6597071.851 6  -6690919.288 5  23798772.544       -3108.898
 -15385348.530 7 -11993955.361 7  21715644.612         455.263
  -1367528.312 6  -1316363.309 5  22748120.575        2609.732
 92 11 17 19 42  0.0010000  0  5 23 21 11 28 17                      0.001727350
   5337083.724 7  -8863209.128 7  22078308.435        1785.736
 -20696466.898 8 -14531375.627 9  21128233.768        -179.803
  -6690192.468 6  -6763480.705 5  23781051.778       -3098.995
 -15371369.582 7 -11983062.701 7  21718304.740         476.784
  -1289090.279 6  -1255242.868 5  22763047.300        2619.762
 92 11 17 19 42 30.0010000  0  5 23 21 11 28 17                      0.001731550
   5390703.874 7  -8821427.265 7  22088512.202        1788.932
 -20701744.777 8 -14535488.268 9  21127229.263        -172.150
  -6783015.844 6  -6835810.499 5  23763388.255       -3089.116
 -15356744.365 7 -11971666.449 7  21721087.832         498.208
  -1210341.954 6  -1193880.630 5  22778032.668        2630.189
 92 11 17 19 43  0.0010000  0  5 23 21 11 28 17                      0.001735800
   5444423.417 7  -8779567.943 7  22098734.825        1792.489
 -20706791.977 8 -14539421.158 9  21126268.788        -164.199
  -6875539.904 6  -6907907.081 5  23745781.297       -3079.067
 -15341474.412 8 -11959767.813 7  21723994.072         519.861
  -1131276.515 6  -1132271.287 5  22793078.709        2640.888
 92 11 17 19 43 30.0010000  0  5 23 21 11 28 17                      0.001740070
   5498260.198 7  -8737617.255 7  22108979.321        1796.715
 -20711595.924 8 -14543164.502 9  21125354.791        -156.137
  -6967757.667 6  -6979764.976 5  23728232.955       -3068.782
 -15325551.232 7 -11947360.154 7  21727024.514         541.645
  -1051890.610 6  -1070412.240 5  22808185.233        2651.386
 92 11 17 19 44  0.0010000  0  5 23 21 11 28 17                      0.001744350
   5552226.645 7  -8695565.554 7  22119249.294        1800.990
 -20716165.849 8 -14546725.479 9  21124485.052        -148.658
  -7059666.474 6  -7051382.145 5  23710743.585       -3058.471
 -15308976.299 7 -11934444.653 7  21730178.522         563.186
   -972203.150 6  -1008318.216 5  22823348.983        2661.041
 92 11 17 19 44 30.0010000  0  6 23 21 11 28 17 12                   0.001748610
   5606328.383 7  -8653408.417 7  22129544.366        1805.692
 -20720522.938 8 -14550120.623 9  21123655.948        -141.774
  -7151264.913 6  -7122757.466 5  23693312.400       -3048.052
 -15291760.331 7 -11921029.628 7  21733454.345         584.423
   -892234.017 6   -946004.700 5  22838566.639        2670.053
   -126214.31615    -93339.12211  24877224.558       -1814.752
 92 11 17 19 45  0.0010000  0  6 23 21 11 28 17 12                   0.001752880
   5660577.449 7  -8611136.472 7  22139867.866        1810.814
 -20724663.320 8 -14553346.901 9  21122868.124        -134.319
  -7242547.607 6  -7193886.741 5  23675942.346       -3037.503
 -15273910.274 7 -11907120.512 7  21736851.241         605.341
   -812001.880 6   -883486.239 5  22853834.652        2678.572
   -180454.476 5   -135604.368 1  24866902.412       -1801.478
 92 11 17 19 45 30.0010000  0  6 23 21 11 28 17 12                   0.001757140
   5714983.203 7  -8568742.457 7  22150220.871        1816.005
 -20728583.214 8 -14556401.371 9  21122122.167        -127.178
  -7333512.486 6  -7264768.379 5  23658632.136       -3026.844
 -15255441.001 7 -11892728.895 7  21740365.778         625.824
   -731521.475 6   -820774.324 5  22869149.537        2686.791
   -234295.737 5   -177558.539 1  24856656.316       -1788.095
 92 11 17 19 46  0.0010000  0  6 23 21 11 28 17 12                   0.001761400
   5769531.027 7  -8526237.700 7  22160600.925        1820.293
 -20732285.271 8 -14559286.094 9  21121417.907        -119.515
  -7424155.546 7  -7335399.236 5  23641383.637       -3016.035
 -15236356.282 7 -11877857.705 7  21743996.933         646.405
   -650780.961 6   -757859.724 5  22884514.091        2695.989
   -287734.204 5   -219198.687 2  24846487.666       -1774.598
 92 11 17 19 46 30.0010000  0  6 23 21 11 28 17 12                   0.001765650
   5824194.270 7  -8483643.025 7  22171003.033        1823.948
 -20735747.552 8 -14561983.993 9  21120759.262        -111.009
  -7514476.005 6  -7405778.735 5  23624195.632       -3005.240
 -15216658.134 7 -11862508.529 7  21747745.341         666.860
   -569760.765 6   -694727.204 5  22899931.857        2705.425
   -340769.124 5   -260524.438 2  24836395.130       -1761.121
 92 11 17 19 47  0.0010000  0  6 23 21 11 28 17 12                   0.001769900
   5878965.107 7  -8440964.513 7  22181425.779        1827.397
 -20738937.931 8 -14564470.022 9  21120152.112        -101.843
  -7604469.929 6  -7475903.778 5  23607070.054       -2994.333
 -15196344.791 7 -11846679.977 7  21751610.654         687.280
   -488447.111 6   -631366.016 5  22915405.066        2715.495
   -393396.470 5   -301532.672 3  24826379.957       -1747.508
 92 11 17 19 47 30.0010000  0  6 23 21 11 28 17 12                   0.001774150
   5933831.884 7  -8398211.242 7  22191866.591        1830.256
 -20741857.203 8 -14566744.777 9  21119596.680         -92.827
  -7694135.562 6  -7545773.019 5  23590007.313       -2983.293
 -15175415.870 7 -11830371.757 7  21755593.055         708.063
   -406822.241 6   -567762.324 5  22930937.554        2726.151
   -445614.476 5   -342221.865 3  24816443.927       -1733.861
 92 11 17 19 48  0.0010000  0  6 23 21 11 28 17 12                   0.001778410
   5988780.979 7  -8355393.836 7  22202323.041        1833.141
 -20744506.915 8 -14568809.503 9  21119092.558         -83.861
  -7783467.717 7  -7615382.387 5  23573008.335       -2972.079
 -15153855.592 7 -11813571.534 7  21759695.827         729.349
   -324881.363 6   -503912.378 5  22946530.067        2736.429
   -497418.068 5   -382588.149 3  24806585.667       -1719.868
 92 11 17 19 48 30.0010000  0  6 23 21 11 28 17 12                   0.001782680
   6043831.418 7  -8312497.458 7  22212798.829        1837.147
 -20746897.251 8 -14570672.116 9  21118637.512         -75.500
  -7872461.071 6  -7684727.777 5  23556072.930       -2960.666
 -15131652.602 7 -11796270.545 7  21763921.160         750.918
   -242647.904 6   -439834.463 5  22962178.745        2745.825
   -548802.075 5   -422627.500 3  24796807.459       -1705.784
 92 11 17 19 49  0.0010000  0  6 23 21 11 28 17 12                   0.001786950
   6099008.491 7  -8269502.401 7  22223298.633        1841.510
 -20749045.594 8 -14572346.168 9  21118228.904         -67.786
  -7961111.857 6  -7753806.213 5  23539203.121       -2949.254
 -15108809.884 7 -11778471.038 7  21768267.962         772.019
   -160133.710 6   -375537.797 5  22977880.882        2755.094
   -599762.747 5   -462336.937 3  24787109.573       -1691.565
 92 11 17 19 49 30.0010000  0  6 23 21 11 28 17 12                   0.001791220
   6154321.736 7  -8226401.237 7  22233824.214        1846.053
 -20750966.453 8 -14573842.954 9  21117863.198         -60.316
  -8049416.286 7  -7822614.784 5  23522399.780       -2937.764
 -15085332.064 7 -11760176.655 7  21772735.541         793.236
    -77342.955 6   -311025.607 5  22993635.717        2764.057
   -650296.370 5   -501713.667 3  24777492.476       -1677.371
 92 11 17 19 50  0.0010000  0  6 23 21 11 28 17 12                   0.001795510
   6209779.631 7  -8183187.361 7  22244377.638        1851.155
 -20752672.485 8 -14575172.344 9  21117538.615         -53.244
  -8137375.342 6  -7891154.234 5  23505661.980       -2926.154
 -15061215.198 7 -11741384.331 7  21777325.022         814.413
      5707.894 6   -246310.755 5  23009439.616        2772.762
   -700403.993 5   -540758.410 3  24767958.026       -1663.153
 92 11 17 19 50 30.0010000  0  6 23 21 11 28 17 12                   0.001799770
   6265389.543 7  -8139855.037 7  22254959.782        1856.141
 -20754159.356 8 -14576330.966 9  21117255.639         -45.750
  -8224986.766 7  -7959422.792 5  23488989.469       -2914.505
 -15036478.470 7 -11722108.987 7  21782032.712         834.653
     89030.476 6   -181384.145 5  23025295.519        2782.212
   -750083.696 5   -579469.826 4  24758503.752       -1648.967
 92 11 17 19 51  0.0010000  0  5 23 21 11 28 17                      0.001803940
   6321134.927 7  -8096417.150 7  22265567.688        1860.122
 -20755417.813 8 -14577311.598 9  21117016.176         -38.259
  -8312246.304 7  -8027417.158 5  23472383.999       -2902.783
 -15011143.314 7 -11702367.337 7  21786853.906         854.326
    172645.982 6   -116229.322 5  23041207.325        2792.069
 92 11 17 19 51 30.0010000  0  5 23 21 11 28 17                      0.001808200
   6376999.060 7  -8052886.725 7  22276198.229        1864.212
 -20756456.819 8 -14578121.227 9  21116818.431         -31.000
  -8399150.240 7  -8095134.430 5  23455847.104       -2890.787
 -14985210.558 7 -11682160.035 7  21791788.647         874.518
    256552.685 6    -50847.577 5  23057174.091        2801.617
 92 11 17 19 52  0.0010000  0  6 23 21 11 28 17 12                   0.001812570
   6432982.542 7  -8009263.325 7  22286851.425        1867.965
 -20757283.877 8 -14578765.720 9  21116661.142         -23.960
  -8485694.914 7  -8162571.753 5  23439377.544       -2878.759
 -14958676.837 7 -11661484.434 7  21796837.733         894.264
    340742.714 6     14754.947 5  23073195.269        2811.018
     -8031.03715    -10607.48311  24730638.628       -1605.140
 92 11 17 19 52 30.0010000  0  6 23 21 11 28 17 12                   0.001816850
   6489074.276 7  -7965555.548 7  22297525.153        1871.586
 -20757883.600 8 -14579233.047 9  21116546.897         -16.220
  -8571874.215 7  -8229724.382 5  23422978.389       -2866.456
 -14931552.484 7 -11640348.609 7  21801999.519         914.248
    425215.797 6     80578.030 5  23089270.412        2820.368
    -55958.145 5    -47960.264 1  24721518.316       -1590.111
 92 11 17 19 53  0.0010000  0  6 23 21 11 28 17 12                   0.001821130
   6545274.587 7  -7921763.185 7  22308219.802        1875.194
 -20758259.631 8 -14579526.070 9  21116475.049          -8.887
  -8657684.368 7  -8296589.377 5  23406649.541       -2854.209
 -14903819.709 7 -11618738.696 7  21807276.927         934.698
    509959.241 6    146611.778 5  23105396.549        2829.217
   -103436.429 5    -84959.925 1  24712483.720       -1575.254
 92 11 17 19 53 30.0010000  0  6 23 21 11 28 17 12                   0.001825430
   6601599.509 7  -7877873.700 7  22318938.308        1879.841
 -20758408.844 8 -14579642.380 9  21116446.716          -0.863
  -8743122.404 7  -8363164.398 5  23390391.183       -2841.555
 -14875465.220 7 -11596644.319 7  21812672.533         955.672
    594972.863 6    212856.062 5  23121573.948        2838.422
   -150463.005 5   -121604.962 1  24703535.347       -1559.928
 92 11 17 19 54  0.0010000  0  6 23 21 11 28 17 12                   0.001829720
   6658048.894 7  -7833887.252 7  22329680.423        1883.490
 -20758314.864 8 -14579569.167 9  21116464.575           7.223
  -8828184.996 7  -8429446.860 6  23374204.169       -2829.138
 -14846489.907 7 -11574066.188 7  21818186.145         976.003
    680261.743 6    279314.833 5  23137803.763        2847.720
   -197035.033 5   -157894.793 2  24694672.820       -1544.899
 92 11 17 19 54 30.0010000  0  6 23 21 11 28 17 12                   0.001834000
   6714614.753 7  -7789810.033 7  22340444.523        1887.627
 -20757970.601 8 -14579300.931 9  21116530.190          15.460
  -8912869.491 7  -8495434.711 6  23358088.873       -2816.522
 -14816902.739 7 -11551011.277 7  21823816.576         996.439
    765844.087 6    346002.263 5  23154089.677        2857.682
   -243149.772 5   -193828.381 2  24685897.145       -1529.624
 92 11 17 19 55  0.0010000  0  6 23 21 11 28 17 12                   0.001838290
   6771309.724 7  -7745632.219 7  22351233.372        1891.875
 -20757383.731 8 -14578843.648 9  21116641.963          23.703
  -8997171.543 7  -8561124.573 6  23342046.606       -2803.604
 -14786701.876 7 -11527478.160 7  21829563.479        1016.717
    851729.069 6    412925.530 5  23170433.043        2867.920
   -288803.349 5   -229402.517 2  24677208.807       -1514.068
 92 11 17 19 55 30.0010000  0  6 23 21 11 28 17 12                   0.001842570
   6828121.422 7  -7701363.425 7  22362044.247        1895.512
 -20756551.806 8 -14578195.418 9  21116800.335          31.760
  -9081089.042 7  -8626514.751 6  23326077.432       -2790.877
 -14755907.782 7 -11503482.792 7  21835423.770        1036.185
    937911.983 6    480080.929 5  23186833.338        2877.498
   -333993.760 5   -264615.756 3  24668609.872       -1498.824
 92 11 17 19 56  0.0010000  0  6 23 21 11 28 17 12                   0.001846840
   6885040.196 7  -7657011.213 7  22372875.450        1899.178
 -20755475.951 8 -14577357.119 9  21117005.232          39.830
  -9164621.872 7  -8691605.213 6  23310182.176       -2777.930
 -14724530.295 7 -11479032.844 7  21841394.308        1055.666
   1024381.593 6    547459.738 5  23203288.268        2887.163
   -378721.317 5   -299468.317 3  24660098.523       -1483.274
 92 11 17 19 56 30.0010000  0  6 23 21 11 28 17 12                   0.001851100
   6942075.209 7  -7612568.413 7  22383729.007        1903.086
 -20754164.689 8 -14576335.375 9  21117254.669          47.531
  -9247766.281 7  -8756392.981 6  23294360.231       -2764.955
 -14692567.241 7 -11454126.609 7  21847476.487        1075.365
   1111134.332 6    615059.166 5  23219797.017        2896.206
   -422982.258 5   -333957.303 3  24651676.744       -1467.652
 92 11 17 19 57  0.0010000  0  6 23 21 11 28 17 12                   0.001855360
   6999221.794 7  -7568038.663 7  22394603.980        1906.660
 -20752623.626 8 -14575134.565 9  21117547.996          55.242
  -9330518.860 7  -8820875.451 6  23278611.999       -2751.737
 -14660003.092 7 -11428751.971 7  21853673.546        1095.643
   1198151.007 6    682864.260 5  23236355.352        2904.950
   -466773.785 5   -368080.524 3  24643342.773       -1451.846
 92 11 17 19 57 30.0010000  0  6 23 21 11 28 17 12                   0.001859640
   7056470.009 7  -7523429.745 7  22405497.967        1910.199
 -20750861.918 8 -14573761.833 9  21117883.223          62.260
  -9412876.536 7  -8885050.196 6  23262939.820       -2738.621
 -14626827.488 7 -11402900.887 7  21859986.268        1116.296
   1285423.112 6    750868.393 5  23252962.510        2913.304
   -510092.916 5   -401835.630 3  24635099.985       -1436.129
 92 11 17 19 58  0.0010000  0  6 23 21 11 28 17 12                   0.001863930
   7113833.076 7  -7478731.319 7  22416414.070        1913.905
 -20748888.185 8 -14572223.887 9  21118258.834          69.196
  -9494835.172 7  -8948914.012 6  23247344.468       -2725.190
 -14593020.034 7 -11376557.443 7  21866419.902        1137.578
   1372948.113 6    819069.565 5  23269618.268        2921.700
   -552935.843 5   -435219.711 4  24626946.760       -1420.111
 92 11 17 19 58 30.0010000  0  6 23 21 11 28 17 12                   0.001868250
   7171301.259 7  -7433950.984 7  22427349.970        1917.285
 -20746715.726 8 -14570531.086 9  21118672.157          75.745
  -9576390.860 7  -9012463.840 6  23231824.893       -2711.796
 -14558572.836 7 -11349715.495 7  21872974.455        1158.947
   1460719.162 6    887462.463 5  23286321.495        2929.672
   -595299.164 5   -468230.036 4  24618884.757       -1404.191
 92 11 17 19 59  0.0010000  0  6 23 21 11 28 17 12                   0.001872590
   7228874.627 7  -7389088.680 7  22438305.712        1921.083
 -20744336.052 8 -14568676.827 9  21119125.075          82.857
  -9657540.867 7  -9075697.552 6  23216382.863       -2698.099
 -14523485.109 7 -11322374.448 7  21879651.293        1180.086
   1548737.456 6    956048.045 5  23303070.359        2938.317
   -637180.332 5   -500864.653 4  24610915.075       -1387.951
 92 11 17 19 59 30.0010000  0  6 23 21 11 28 17 12                   0.001876960
   7286566.130 7  -7344134.336 7  22449284.115        1925.003
 -20741743.551 8 -14566656.697 9  21119618.412          90.155
  -9738278.615 7  -9138610.023 6  23201019.067       -2684.343
 -14487772.851 7 -11294546.760 7  21886447.247        1200.681
   1637017.522 6   1024837.586 5  23319869.872        2947.147
   -678573.139 5   -533118.736 4  24603037.776       -1371.673
 92 11 17 20  0  0.0010000  0  6 23 21 11 28 17 12                   0.001881340
   7344371.325 7  -7299091.384 7  22460284.218        1928.565
 -20738922.805 8 -14564458.761 9  21120155.271          97.904
  -9818600.435 7  -9201198.384 6  23185733.743       -2670.358
 -14451449.353 7 -11266242.771 7  21893360.101        1220.799
   1725569.906 6   1093839.299 5  23336720.324        2956.388
   -719474.250 5   -564989.757 4  24595254.854       -1355.147
 92 11 17 20  0 30.0010000  0  6 23 21 11 28 17 12                   0.001885720
   7402285.521 7  -7253963.504 7  22471304.819        1932.578
 -20735865.764 8 -14562076.668 9  21120737.039         106.061
  -9898501.940 7  -9263459.256 6  23170528.358       -2656.255
 -14414532.624 7 -11237476.532 7  21900385.069        1240.295
   1814405.192 6   1163061.478 5  23353624.973        2966.068
   -759879.789 5   -596474.525 4  24587566.442       -1338.565
 92 11 17 20  1  0.0010000  0  6 23 21 11 28 17 12                   0.001890100
   7460320.721 7  -7208741.336 7  22482348.505        1936.403
 -20732560.943 8 -14559501.493 9  21121366.012         114.116
  -9977978.678 7  -9325389.113 6  23155404.368       -2642.039
 -14377040.569 7 -11208261.982 7  21907519.811        1259.168
   1903535.694 6   1232513.726 5  23370585.638        2976.023
   -799785.755 5   -627570.012 4  24579973.822       -1321.844
 92 11 17 20  1 30.0010000  0  6 23 21 11 28 17 12                   0.001894470
   7518458.324 7  -7163439.382 7  22493411.715        1939.415
 -20729024.285 8 -14556745.688 9  21122038.877         121.868
 -10057028.589 7  -9386986.391 6  23140362.379       -2627.874
 -14338985.864 7 -11178609.020 7  21914761.596        1277.959
   1992953.812 6   1302190.045 5  23387601.639        2985.298
   -839190.408 5   -658274.834 4  24572474.557       -1305.257
 92 11 17 20  2  0.0010000  0  6 23 21 11 28 17 12                   0.001898850
   7576691.698 7  -7118062.792 7  22504493.323        1942.854
 -20725247.476 8 -14553802.732 9  21122757.570         129.787
 -10135649.813 7  -9448249.648 6  23125401.097       -2613.493
 -14300361.328 7 -11148512.007 7  21922111.689        1296.911
   2082647.396 6   1372081.028 5  23404669.737        2994.144
   -878092.287 5   -688587.996 4  24565071.472       -1288.388
 92 11 17 20  2 30.0010000  0  6 23 21 11 28 17 12                   0.001903220
   7635037.260 7  -7072598.772 7  22515596.279        1946.701
 -20721233.915 8 -14550675.306 9  21123521.352         137.648
 -10213838.121 7  -9509175.538 6  23110522.422       -2599.063
 -14261169.096 7 -11117972.635 7  21929569.366        1315.813
   2172607.177 6   1442179.424 5  23421788.181        3003.049
   -916487.679 5   -718506.412 4  24557765.192       -1271.488
 92 11 17 20  3  0.0010000  0  6 23 21 11 28 17 12                   0.001907580
   7693489.101 7  -7027051.941 7  22526719.197        1949.951
 -20716986.560 8 -14547365.695 9  21124329.540         145.449
 -10291590.730 7  -9569761.946 6  23095726.496       -2584.509
 -14221403.330 7 -11086986.360 7  21937136.546        1335.195
   2262832.721 6   1512484.930 5  23438957.745        3011.875
   -954374.194 5   -748028.353 4  24550554.978       -1254.429
 92 11 17 20  3 30.0010000  0  6 23 21 11 28 17 12                   0.001911950
   7752043.695 7  -6981425.070 7  22537861.603        1953.861
 -20712499.782 8 -14543869.520 9  21125183.149         153.951
 -10368907.363 7  -9630008.610 6  23081012.799       -2569.797
 -14181053.454 7 -11055544.946 7  21944814.753        1354.834
   2353316.975 6   1582991.995 5  23456176.377        3020.467
   -991752.046 5   -777153.817 4  24543441.894       -1237.392
 92 11 17 20  4  0.0010000  0  6 23 21 11 28 17 12                   0.001916300
   7810721.413 7  -6935702.237 6  22549027.305        1958.034
 -20707754.125 8 -14540171.612 9  21126086.214         162.302
 -10445783.624 7  -9689912.153 6  23066383.604       -2555.143
 -14140120.732 7 -11023649.353 7  21952604.367        1373.916
   2444061.402 6   1653701.832 5  23473444.944        3029.192
  -1028617.434 5   -805880.058 4  24536427.392       -1220.360
 92 11 17 20  4 30.0010000  0  6 23 21 11 28 17 12                   0.001920630
   7869518.117 7  -6889886.692 6  22560216.368        1961.599
 -20702761.639 8 -14536281.397 9  21127036.326         170.489
 -10522215.032 7  -9749469.060 6  23051839.184       -2540.257
 -14098617.926 7 -10991309.540 7  21960502.010        1392.981
   2535070.467 6   1724617.852 5  23490764.004        3038.094
  -1064966.151 5   -834203.732 4  24529510.367       -1203.132
 92 11 17 20  5  0.0010000  0  6 23 21 11 28 17 12                   0.001924950
   7928419.488 7  -6843989.589 6  22571425.017        1965.246
 -20697524.240 8 -14532200.333 9  21128033.157         178.679
 -10598198.480 7  -9808676.898 6  23037380.042       -2525.232
 -14056539.147 7 -10958520.919 7  21968509.298        1412.199
   2626346.480 6   1795741.921 5  23508133.497        3046.985
  -1100795.954 5   -862122.984 4  24522691.933       -1185.738
 92 11 17 20  5 30.0010000  0  6 23 21 11 28 17 12                   0.001929270
   7987436.169 7  -6798002.645 6  22582655.763        1969.106
 -20692045.380 8 -14527931.114 9  21129075.716         186.460
 -10673729.671 7  -9867532.323 6  23023007.317       -2510.142
 -14013887.663 7 -10925286.052 7  21976625.667        1431.184
   2717884.190 6   1867069.891 5  23525552.758        3055.437
  -1136102.748 5   -889634.705 4  24515973.107       -1168.310
 92 11 17 20  6  0.0010000  0  6 23 21 11 28 17 12                   0.001933600
   8046557.832 7  -6751933.892 6  22593906.093        1972.319
 -20686344.506 8 -14523488.898 9  21130160.403         193.499
 -10748808.505 7  -9926035.258 6  23008719.964       -2495.039
 -13970665.708 7 -10891606.635 7  21984850.376        1450.363
   2809673.871 6   1938594.179 5  23543019.369        3063.977
  -1170887.042 5   -916739.286 4  24509353.738       -1150.752
 92 11 17 20  6 30.0010000  0  6 23 21 11 28 17 12                   0.001937930
   8105780.175 7  -6705786.705 6  22605175.962        1975.804
 -20680430.453 8 -14518880.566 9  21131285.706         200.762
 -10823429.829 7  -9984181.717 6  22994519.695       -2479.698
 -13926855.042 7 -10857468.492 7  21993187.301        1470.412
   2901727.596 6   2010324.240 5  23560537.200        3072.985
  -1205144.524 5   -943433.350 4  24502833.959       -1133.262
 92 11 17 20  7  0.0010000  0  6 23 21 11 28 17 12                   0.001942300
   8165115.148 7  -6659551.739 6  22616467.468        1979.774
 -20674300.233 8 -14514103.797 9  21132452.428         207.914
 -10897590.197 7 -10041968.960 6  22980408.355       -2464.318
 -13882443.558 7 -10822862.188 7  22001638.484        1490.169
   2994049.930 6   2082263.560 5  23578105.669        3081.734
  -1238871.957 5   -969714.454 4  24496415.968       -1115.554
 92 11 17 20  7 30.0010000  0  6 23 21 11 28 17 12                   0.001946670
   8224565.713 7  -6613226.713 6  22627780.165        1983.661
 -20667953.285 8 -14509158.158 9  21133659.910         215.282
 -10971287.740 7 -10099395.579 6  22966383.642       -2448.738
 -13837442.860 7 -10787796.748 7  22010202.054        1509.902
   3086631.348 6   2154404.806 5  23595722.962        3090.329
  -1272068.205 5   -995581.603 5  24490098.471       -1097.715
 92 11 17 20  8  0.0010000  0  6 23 21 11 28 17 12                   0.001951050
   8284132.936 7  -6566810.777 6  22639115.385        1987.583
 -20661383.120 8 -14504038.573 9  21134910.336         222.661
 -11044515.703 7 -10156456.272 6  22952448.809       -2433.012
 -13791855.989 7 -10752274.542 7  22018877.216        1529.111
   3179470.348 6   2226746.771 5  23613389.449        3099.087
  -1304727.012 5  -1021029.964 5  24483884.268       -1079.672
 92 11 17 20  8 30.0010000  0  6 23 21 11 28 17 12                   0.001955440
   8343821.037 7  -6520300.658 6  22650473.984        1991.655
 -20654599.517 8 -14498752.669 9  21136201.252         229.602
 -11117274.407 7 -10213151.330 6  22938603.085       -2417.451
 -13745707.611 7 -10716314.819 7  22027659.488        1547.404
   3272569.211 6   2299291.183 5  23631105.849        3107.288
  -1336849.405 5  -1046060.340 5  24477771.744       -1061.861
 92 11 17 20  9  0.0010000  0  6 23 21 11 28 17 12                   0.001959840
   8403631.896 7  -6473694.895 6  22661855.526        1995.659
 -20647601.591 8 -14493299.769 9  21137532.880         236.843
 -11189560.127 7 -10269477.818 6  22924847.339       -2401.640
 -13699017.377 7 -10679932.872 7  22036544.150        1565.256
   3365910.305 6   2372024.377 5  23648867.817        3115.262
  -1368432.228 5  -1070670.300 5  24471762.415       -1043.799
 92 11 17 20  9 30.0010000  0  6 23 21 11 28 17 12                   0.001964230
   8463554.914 7  -6427001.725 6  22673258.490        1999.250
 -20640388.988 8 -14487679.582 9  21138905.621         243.980
 -11261371.916 7 -10325435.010 6  22911182.668       -2385.773
 -13651789.509 7 -10643131.987 7  22045531.498        1583.361
   3459489.373 6   2444943.024 5  23666675.583        3123.478
  -1399475.133 5  -1094859.531 5  24465855.195       -1025.787
 92 11 17 20 10  0.0010000  0  6 23 21 11 28 17 12                   0.001968630
   8523585.752 7  -6380224.522 6  22684682.281        2002.687
 -20632966.104 8 -14481895.526 9  21140318.344         250.921
 -11332707.002 7 -10381020.742 6  22897607.804       -2369.874
 -13604017.073 7 -10605906.781 7  22054622.383        1601.522
   3553321.807 6   2518059.063 5  23684530.943        3132.201
  -1429976.033 5  -1118626.457 5  24460050.267       -1007.720
 92 11 17 20 10 30.0010000  0  6 23 21 11 28 17 12                   0.001973040
   8583716.791 7  -6333369.252 6  22696125.209        2005.990
 -20625326.269 8 -14475942.442 9  21141772.405         258.475
 -11403563.000 7 -10436233.171 6  22884124.181       -2353.767
 -13555685.031 7 -10568245.497 7  22063819.325        1620.790
   3647422.407 6   2591384.100 5  23702438.474        3141.149
  -1459933.267 6  -1141969.632 5  24454349.631        -989.508
 92 11 17 20 11  0.0010000  0  6 23 21 11 28 17 12                   0.001977460
   8643942.521 7  -6286440.224 6  22707585.435        2009.011
 -20617455.543 8 -14469809.438 9  21143270.276         266.150
 -11473934.107 7 -10491067.754 6  22870733.397       -2337.618
 -13506771.341 7 -10530131.004 7  22073127.710        1640.095
   3741795.388 6   2664921.359 5  23720397.031        3150.450
  -1489341.554 5  -1164885.128 5  24448753.582        -971.116
 92 11 17 20 11 30.0010000  0  6 23 21 11 28 17 12                   0.001981900
   8704259.760 7  -6239439.850 6  22719063.898        2012.324
 -20609358.942 8 -14463500.402 9  21144811.151         273.849
 -11543818.930 7 -10545523.406 6  22857434.430       -2321.172
 -13457277.959 7 -10491564.784 7  22082546.172        1659.513
   3836447.692 6   2738676.243 5  23738408.783        3159.777
  -1518200.222 5  -1187372.410 5  24443262.649        -952.760
 92 11 17 20 12  0.0010000  0  6 23 21 11 28 17 12                   0.001986340
   8764681.463 7  -6192358.084 6  22730561.611        2015.696
 -20601027.341 8 -14457008.283 9  21146396.632         281.634
 -11613211.123 7 -10599595.194 6  22844229.259       -2304.864
 -13407213.046 7 -10452553.236 7  22092072.816        1678.072
   3931370.715 6   2812642.124 5  23756472.429        3168.324
  -1546503.746 5  -1209426.972 5  24437876.692        -934.310
 92 11 17 20 12 30.0010000  0  6 23 21 11 28 17 12                   0.001990760
   8825207.844 7  -6145194.772 6  22742079.254        2019.325
 -20592453.946 8 -14450327.741 9  21148028.206         289.752
 -11682111.012 7 -10653283.382 6  22831117.916       -2288.415
 -13356590.110 7 -10413106.836 7  22101705.626        1696.486
   4026543.976 6   2886802.983 5  23774583.686        3176.459
  -1574253.100 5  -1231049.791 5  24432595.787        -915.816
